[[{"header":{"parameterUnit":"m.s-1","parameterCategory":1,"la1":31.0,"la2":29.5877,"lo1":-88.7671,"lo2":-86.6584,"dy":0.0162,"dx":0.0185,"nx":115,"ny":88,"refTime":"2023-07-23T00:00:00:Z","depth":0,"parameterNumber":2,"parameterNumberName":"U-component_of_WINDS"},"data":[0.0,0.0,0.0,0.0,0.0,0.0,0.0,0.0,0.0,0.0,0.0,0.0,0.0,0.0,0.0,0.0,0.0,0.0,0.0,0.0,0.0,0.0,0.0,0.0,0.0,0.0,0.0,0.0,0.0,0.0,0.0,0.0,0.0,0.0,0.0,0.0,0.0,0.0,0.0,0.0,0.0,0.0,0.0,0.0,0.0,0.0,0.0,0.0,0.0,0.0,0.0,0.0,0.0,0.0,0.0,0.0,0.0,0.0,0.0,0.0,0.0,0.0,0.0,0.0,0.0,0.0,0.0,0.0,0.0,0.0,0.0,0.0,0.0,0.0,0.0,0.0,0.0,0.0,0.0,0.0,0.0,0.0,0.0,0.0,0.0,0.0,0.0,0.0,0.0,0.0,0.0,0.0,0.0,0.0,0.0,0.0,0.0,0.0,0.0,0.0,0.0,0.0,0.0,0.0,0.0,0.0,0.0,0.0,0.0,0.0,0.0,0.0,0.0,0.0,0.0,0.0,0.0,0.0,0.0,0.0,0.0,0.0,0.0,0.0,0.0,0.0,0.0,0.0,0.0,0.0,0.0,0.0,0.0,0.0,0.0,0.0,0.0,0.0,0.0,0.0,0.0,0.0,0.0,0.0,0.0,0.0,0.0,0.0,0.0,0.0,0.0,0.0,0.0,0.0,0.0,0.0,0.0,0.0,0.0,0.0,0.0,0.0,0.0,0.0,0.0,0.0,0.0,0.0,0.0,0.0,0.0,0.0,0.0,0.0,0.0,0.0,0.0,0.0,0.0,0.0,0.0,0.0,0.0,0.0,0.0,0.0,0.0,0.0,0.0,0.0,0.0,0.0,0.0,0.0,0.0,0.0,0.0,0.0,0.0,0.0,0.0,0.0,0.0,0.0,0.0,0.0,0.0,0.0,0.0,0.0,0.0,0.0,0.0,0.0,0.0,0.0,0.0,0.0,0.0,0.0,0.0,0.0,0.0,0.0,0.0,0.0,0.0,0.0,0.0,0.0,0.0,0.0,0.0,0.0,0.0,0.0,0.0,0.0,0.0,0.0,0.0,0.0,0.0,0.0,0.0,0.0,0.0,0.0,0.0,0.0,0.0,0.0,0.0,0.0,0.0,0.0,0.0,0.0,0.0,0.0,0.0,0.0,0.0,0.0,0.0,0.0,0.0,0.0,0.0,0.0,0.0,0.0,0.0,0.0,0.0,0.0,0.0,0.0,0.0,0.0,0.0,0.0,0.0,0.0,0.0,0.0,0.0,0.0,0.0,0.0,0.0,0.0,0.0,0.0,0.0,0.0,0.0,0.0,0.0,0.0,0.0,0.0,0.0,0.0,0.0,0.0,0.0,0.0,0.0,0.0,0.0,0.0,0.0,0.0,0.0,0.0,0.0,0.0,0.0,0.0,0.0,0.0,0.0,0.0,0.0,0.0,0.0,0.0,0.0,0.0,0.0,0.0,0.0,0.0,0.0,0.0,0.0,0.0,0.0,0.0,0.0,0.0,0.0,0.0,0.0,0.0,0.0,0.0,0.0,0.0,0.0,0.0,0.0,0.0,0.0,0.0,0.0,0.0,0.0,0.0,0.0,0.0,0.0,0.0,0.0,0.0,0.0,0.0,0.0,0.0,0.0,0.0,0.0,0.0,0.0,0.0,0.0,0.0,0.0,0.0,0.0,0.0,0.0,0.0,0.0,0.0,0.0,0.0,0.0,0.0,0.0,0.0,0.0,0.0,0.0,0.0,0.0,0.0,0.0,0.0,0.0,0.0,0.0,0.0,0.0,0.0,0.0,0.0,0.0,0.0,0.0,0.0,0.0,0.0,0.0,0.0,0.0,0.0,0.0,0.0,0.0,0.0,0.0,0.0,0.0,0.0,0.0,0.0,0.0,0.0,0.0,0.0,0.0,0.0,0.0,0.0,0.0,0.0,0.0,0.0,0.0,0.0,0.0,0.0,0.0,0.0,0.0,0.0,0.0,0.0,0.0,0.0,0.0,0.0,0.0,0.0,0.0,0.0,0.0,0.0,0.0,0.0,0.0,0.0,0.0,0.0,0.0,0.0,0.0,0.0,0.0,0.0,0.0,0.0,0.0,0.0,0.0,0.0,0.0,0.0,0.0,0.0,0.0,0.0,0.0,0.0,0.0,0.0,0.0,0.0,0.0,0.0,0.0,0.0,0.0,0.0,0.0,0.0,0.0,0.0,0.0,0.0,0.0,0.0,0.0,0.0,0.0,0.0,0.0,0.0,0.0,0.0,0.0,0.0,0.0,0.0,0.0,0.0,0.0,0.0,0.0,0.0,0.0,0.0,0.0,0.0,0.0,0.0,0.0,0.0,0.0,0.0,0.0,0.0,0.0,0.0,0.0,0.0,0.0,0.0,0.0,0.0,0.0,0.0,0.0,0.0,0.0,0.0,0.0,0.0,0.0,0.0,0.0,0.0,0.0,0.0,0.0,0.0,0.0,0.0,0.0,0.0,0.0,0.0,0.0,0.0,0.0,0.0,0.0,0.0,0.0,0.0,0.0,0.0,0.0,0.0,0.0,0.0,0.0,0.0,0.0,0.0,0.0,0.0,0.0,0.0,0.0,0.0,0.0,0.0,0.0,0.0,0.0,0.0,0.0,0.0,0.0,0.0,0.0,0.0,0.0,0.0,0.0,0.0,0.0,0.0,0.0,0.0,0.0,0.0,0.0,0.0,0.0,0.0,0.0,0.0,0.0,0.0,0.0,0.0,0.0,0.0,0.0,0.0,0.0,0.0,0.0,0.0,0.0,0.0,0.0,0.0,0.0,0.0,0.0,0.0,0.0,0.0,0.0,0.0,0.0,0.0,0.0,0.0,0.0,0.0,0.0,0.0,0.0,0.0,0.0,0.0,0.0,0.0,0.0,0.0,0.0,0.0,0.0,0.0,0.0,0.0,0.0,0.0,0.0,0.0,0.0,0.0,0.0,0.0,0.0,0.0,0.0,0.0,0.0,0.0,0.0,0.0,0.0,0.0,0.0,0.0,0.0,0.0,0.0,0.0,0.0,0.0,0.0,0.0,0.0,0.0,0.0,0.0,0.0,0.0,0.0,0.0,0.0,0.0,0.0,0.0,0.0,0.0,0.0,0.0,0.0,0.0,0.0,0.0,0.0,0.0,0.0,0.0,0.0,0.0,0.0,0.0,0.0,0.0,0.0,0.0,0.0,0.0,0.0,0.0,0.0,0.0,0.0,0.0,0.0,0.0,0.0,0.0,0.0,0.0,0.0,0.0,0.0,0.0,0.0,0.0,0.0,0.0,0.0,0.0,0.0,0.0,0.0,0.0,0.0,0.0,0.0,0.0,0.0,0.0,0.0,0.0,0.0,0.0,0.0,0.0,0.0,0.0,0.0,0.0,0.0,0.0,0.0,0.0,0.0,0.0,0.0,0.0,0.0,0.0,0.0,0.0,0.0,0.0,0.0,0.0,0.0,0.0,0.0,0.0,0.0,0.0,0.0,0.0,0.0,0.0,0.0,0.0,0.0,0.0,0.0,0.0,0.0,0.0,0.0,0.0,0.0,0.0,0.0,0.0,0.0,0.0,0.0,0.0,0.0,0.0,0.0,0.0,0.0,0.0,0.0,0.0,0.0,0.0,0.0,0.0,0.0,0.0,0.0,0.0,0.0,0.0,0.0,0.0,0.0,0.0,0.0,0.0,0.0,0.0,0.0,0.0,0.0,0.0,0.0,0.0,0.0,0.0,0.0,0.0,0.0,0.0,0.0,0.0,0.0,0.0,0.0,0.0,0.0,0.0,0.0,0.0,0.0,0.0,0.0,0.0,0.0,0.0,0.0,0.0,0.0,0.0,0.0,0.0,0.0,0.0,0.0,0.0,0.0,0.0,0.0,0.0,0.0,0.0,0.0,0.0,0.0,0.0,0.0,0.0,0.0,0.0,0.0,0.0,0.0,0.0,0.0,0.0,0.0,0.0,0.0,0.0,0.0,0.0,0.0,0.0,0.0,0.0,0.0,0.0,0.0,0.0,0.0,0.0,0.0,0.0,0.0,0.0,0.0,0.0,0.0,0.0,0.0,0.0,0.0,0.0,0.0,0.0,0.0,0.0,0.0,0.0,0.0,0.0,0.0,0.0,0.0,0.0,0.0,0.0,0.0,0.0,0.0,0.0,0.0,0.0,0.0,0.0,0.0,0.0,0.0,0.0,0.0,0.0,0.0,0.0,0.0,0.0,0.0,0.0,0.0,0.0,0.0,0.0,0.0,0.0,0.0,0.0,0.0,0.0,-0.1803,0.0,0.0,0.0,0.0,0.0,0.0,0.0,0.0,0.0,0.0,0.0,0.0,0.0,0.0,0.0,0.0,0.0,0.0,0.0,0.0,0.0,0.0,0.0,0.0,0.0,0.0,0.0,0.0,0.0,0.0,0.0,0.0,0.0,0.0,0.0,0.0,0.0,0.0,0.0,0.0,0.0,0.0,0.0,0.0,0.0,0.0,0.0,0.0,0.0,0.0,0.0,0.0,0.0,0.0,0.0,0.0,0.0,0.0,0.0,0.0,0.0,0.0,0.0,0.0,0.0,0.0,0.0,0.0,0.0,0.0,0.0,0.0,0.0,0.0,0.0,0.0,0.0,0.0,0.0,0.0,0.0,0.0,0.0,0.0,0.0,0.0,0.0,0.0,0.0,0.0,0.0,0.0,0.0,0.0,0.0,0.0,0.0,0.0,0.0,0.0,0.0,0.0,0.0,0.0,0.0,0.0,0.0,0.0,0.0,0.0,-0.2814,-0.2518,-0.2387,-0.237,-0.2491,0.0,0.0,0.0,0.0,0.0,0.0,0.0,0.0,0.0,0.0,0.0,0.0,0.0,0.0,0.0,0.0,0.0,0.0,0.0,0.0,0.0,0.0,0.0,0.0,0.0,0.0,0.0,0.0,0.0,0.0,0.0,0.0,0.0,0.0,0.0,0.0,0.0,0.0,0.0,0.0,0.0,0.0,0.0,0.0,0.0,0.0,0.0,0.0,0.0,0.0,0.0,0.0,0.0,0.0,0.0,0.0,0.0,0.0,0.0,0.0,0.0,0.0,0.0,0.0,0.0,0.0,0.0,0.0,0.0,0.0,0.0,0.0,0.0,0.0,0.0,0.0,0.0,0.0,0.0,0.0,0.0,0.0,0.0,0.0,0.0,0.0,0.0,0.0,0.0,0.0,0.0,0.0,0.0,0.0,0.0,0.0,0.0,0.0,0.0,0.0,0.0,0.0,0.0,0.0,0.0,0.0,0.0,0.0,0.0,0.0,0.0,0.0,-0.2829,-0.296,-0.3154,0.0,0.0,0.0,0.0,0.0,0.0,0.0,0.0,0.0,0.0,0.0,0.0,0.0,0.0,0.0,0.0,0.0,0.0,0.0,0.0,0.0,0.0,0.0,0.0,0.0,0.0,0.0,0.0,0.0,0.0,0.0,0.0,0.0,0.0,0.0,0.0,0.0,0.0,0.0,0.0,0.0,0.0,0.0,0.0,0.0,0.0,0.0,0.0,0.0,0.0,0.0,0.0,0.0,0.0,0.0,0.0,0.0,0.0,0.0,0.0,0.0,0.0,0.0,0.0,0.0,0.0,0.0,0.0,0.0,0.0,0.0,0.0,0.0,0.0,0.0,0.0,0.0,0.0,0.0,0.0,0.0,0.0,0.0,0.0,0.0,0.0,0.0,0.0,0.0,0.0,0.0,0.0,0.0,0.0,0.0,0.0,0.0,0.0,0.0,0.0,0.0,0.0,0.0,0.0,0.0,0.0,0.0,0.0,0.0,0.0,-0.3247,-0.2975,-0.282,0.0,-0.331,0.0,0.0,0.0,0.0,0.0,0.0,0.0,0.0,0.0,0.0,0.0,0.0,0.0,0.0,0.0,0.0,0.0,0.0,0.0,0.0,0.0,0.0,0.0,0.0,0.0,0.0,0.0,0.0,0.0,0.0,0.0,0.0,0.0,0.0,0.0,0.0,0.0,0.0,0.0,0.0,0.0,0.0,0.0,0.0,0.0,0.0,0.0,0.0,0.0,0.0,0.0,0.0,0.0,0.0,0.0,0.0,0.0,0.0,0.0,0.0,0.0,0.0,0.0,0.0,0.0,0.0,0.0,0.0,0.0,0.0,0.0,0.0,0.0,0.0,0.0,0.0,0.0,0.0,0.0,0.0,0.0,0.0,0.0,0.0,0.0,0.0,0.0,0.0,0.0,0.0,0.0,0.0,0.0,0.0,0.0,0.0,0.0,0.0,0.0,0.0,0.0,0.0,0.0,0.0,0.0,0.0,0.0,0.0,0.0,0.0,-0.2934,-0.2944,-0.292,-0.3143,0.0,0.0,0.0,0.0,0.0,0.0,0.0,0.0,0.0,0.0,0.0,0.0,0.0,0.0,0.0,0.0,0.0,0.0,0.0,0.0,0.0,0.0,0.0,0.0,0.0,0.0,0.0,0.0,0.0,0.0,0.0,0.0,0.0,0.0,0.0,0.0,0.0,0.0,0.0,0.0,0.0,0.0,0.0,0.0,0.0,0.0,0.0,0.0,0.0,0.0,0.0,0.0,0.0,0.0,0.0,0.0,0.0,0.0,0.0,0.0,0.0,0.0,0.0,0.0,0.0,0.0,0.0,0.0,0.0,0.0,0.0,0.0,0.0,0.0,0.0,0.0,0.0,0.0,0.0,0.0,0.0,0.0,0.0,0.0,0.0,0.0,0.0,0.0,0.0,0.0,0.0,0.0,0.0,0.0,0.0,0.0,0.0,0.0,0.0,0.0,0.0,0.0,0.0,0.0,0.0,0.0,0.0,0.0,0.0,0.0,-0.2693,-0.2732,-0.282,-0.2842,-0.3001,-0.3258,0.0,0.0,0.0,0.0,0.0,0.0,0.0,0.0,0.0,0.0,0.0,0.0,0.0,0.0,0.0,0.0,0.0,0.0,0.0,0.0,0.0,0.0,0.0,0.0,0.0,0.0,0.0,0.0,0.0,0.0,0.0,0.0,0.0,0.0,0.0,0.0,0.0,0.0,0.0,0.0,0.0,0.0,0.0,0.0,0.0,0.0,0.0,0.0,0.0,0.0,0.0,0.0,0.0,0.0,0.0,0.0,0.0,0.0,0.0,0.0,0.0,0.0,0.0,0.0,0.0,0.0,0.0,0.0,0.0,0.0,0.0,0.0,0.0,0.0,0.0,0.0,0.0,0.0,0.0,0.0,0.0,0.0,0.0,0.0,0.0,0.0,0.0,0.0,0.0,0.0,0.0,0.0,0.0,0.0,0.0,0.0,0.0,0.0,0.0,0.0,0.0,0.0,0.0,0.0,0.0,0.0,0.0,0.0,-0.3057,-0.2994,-0.287,-0.2621,-0.2381,-0.2251,0.0,0.0,0.0,0.0,0.0,0.0,0.0,0.0,0.0,0.0,0.0,0.0,0.0,0.0,0.0,0.0,0.0,0.0,0.0,0.0,0.0,0.0,0.0,0.0,0.0,0.0,0.0,0.0,0.0,0.0,0.0,0.0,0.0,0.0,0.0,0.0,0.0,0.0,0.0,0.0,0.0,0.0,0.0,0.0,0.0,0.0,0.0,0.0,0.0,0.0,0.0,0.0,0.0,0.0,0.0,0.0,0.0,0.0,0.0,0.0,0.0,0.0,0.0,0.0,0.0,0.0,0.0,0.0,0.0,0.0,0.0,0.0,0.0,0.0,0.0,0.0,0.0,0.0,0.0,0.0,0.0,0.0,0.0,0.0,0.0,0.0,0.0,0.0,0.0,0.0,0.0,0.0,0.0,0.0,0.0,0.0,0.0,0.0,0.0,0.0,0.0,0.0,0.0,0.0,0.0,0.0,0.0,0.0,0.0,-0.2406,-0.2486,-0.238,-0.203,-0.1961,-0.18,0.0,0.0,0.0,0.0,0.0,0.0,0.0,0.0,0.0,0.0,0.0,0.0,0.0,0.0,0.0,0.0,0.0,0.0,0.0,0.0,0.0,0.0,0.0,0.0,0.0,0.0,0.0,0.0,0.0,0.0,0.0,0.0,0.0,0.0,0.0,0.0,0.0,0.0,0.0,0.0,0.0,0.0,0.0,0.0,0.0,0.0,0.0,0.0,0.0,0.0,0.0,0.0,0.0,0.0,0.0,0.0,0.0,0.0,0.0,0.0,0.0,0.0,0.0,0.0,0.0,0.0,0.0,0.0,0.0,0.0,0.0,0.0,0.0,0.0,0.0,0.0,0.0,0.0,0.0,0.0,0.0,0.0,0.0,0.0,0.0,0.0,0.0,0.0,0.0,0.0,0.0,0.0,0.0,0.0,0.0,0.0,0.0,0.0,0.0,0.0,0.0,0.0,0.0,0.0,0.0,0.0,0.0,0.0,0.0,-0.2221,0.0,-0.2204,-0.1864,-0.1824,-0.1597,0.0,0.0,0.0,0.0,0.0,0.0,0.0,0.0,0.0,0.0,0.0,0.0,0.0,0.0,0.0,0.0,0.0,0.0,0.0,0.0,0.0,0.0,0.0,0.0,0.0,0.0,0.0,0.0,0.0,0.0,0.0,0.0,0.0,0.0,0.0,0.0,0.0,0.0,0.0,0.0,0.0,0.0,0.0,0.0,0.0,0.0,0.0,0.0,0.0,0.0,0.0,0.0,0.0,0.0,0.0,0.0,0.0,0.0,0.0,0.0,0.0,0.0,0.0,0.0,0.0,0.0,0.0,0.0,0.0,0.0,0.0,0.0,0.0,0.0,0.0,0.0,0.0,0.0,0.0,0.0,0.0,0.0,0.0,0.0,0.0,0.0,0.0,0.0,0.0,0.0,0.0,0.0,0.0,0.0,0.0,0.0,0.0,0.0,0.0,0.0,0.0,0.0,0.0,0.0,0.0,0.0,0.0,0.0,-0.2582,-0.2582,-0.2534,-0.2377,-0.2096,-0.191,-0.1648,0.0,0.0,0.0,0.0,0.0,0.0,0.0,0.0,0.0,0.0,0.0,0.0,0.0,0.0,0.0,0.0,0.0,0.0,0.0,0.0,0.0,0.0,0.0,0.0,0.0,0.0,0.0,0.0,0.0,0.0,0.0,0.0,0.0,0.0,0.0,0.0,0.0,0.0,0.0,0.0,0.0,0.0,0.0,0.0,0.0,0.0,0.0,0.0,0.0,0.0,0.0,0.0,0.0,0.0,0.0,0.0,0.0,0.0,0.0,0.0,0.0,0.0,0.0,0.0,0.0,0.0,0.0,0.0,0.0,0.0,0.0,0.0,0.0,0.0,0.0,0.0,0.0,0.0,0.0,0.0,0.0,0.0,0.0,0.0,0.0,0.0,0.0,0.0,0.0,0.0,0.0,0.0,0.0,0.0,0.0,0.0,0.0,0.0,0.0,0.0,0.0,0.0,0.0,0.0,0.0,0.0,0.0,0.0,0.0,-0.2403,-0.2473,-0.2417,-0.225,-0.2131,-0.1992,0.0,0.0,0.0,0.0,0.0,0.0,0.0,0.0,0.0,0.0,0.0,0.0,0.0,0.0,0.0,0.0,0.0,0.0,0.0,0.0,0.0,0.0,0.0,0.0,0.0,0.0,0.0,0.0,0.0,0.0,0.0,0.0,0.0,0.0,0.0,0.0,0.0,0.0,0.0,0.0,0.0,0.0,0.0,0.0,0.0,0.0,0.0,0.0,0.0,0.0,0.0,0.0,0.0,0.0,0.0,0.0,0.0,0.0,0.0,0.0,0.0,0.0,0.0,0.0,0.0,0.0,0.0,0.0,0.0,0.0,0.0,0.0,0.0,0.0,0.0,0.0,0.0,0.0,0.0,0.0,0.0,0.0,0.0,0.0,0.0,0.0,0.0,0.0,0.0,0.0,0.0,0.0,0.0,0.0,0.0,0.0,0.0,0.0,0.0,0.0,0.0,0.0,0.0,0.0,0.0,0.0,0.0,0.0,0.0,-0.2841,-0.2883,-0.2869,-0.2738,-0.2677,-0.2446,-0.2007,0.0,0.0,0.0,0.0,0.0,0.0,0.0,0.0,0.0,0.0,0.0,0.0,0.0,0.0,0.0,0.0,0.0,0.0,0.0,0.0,0.0,0.0,0.0,0.0,0.0,0.0,0.0,0.0,0.0,0.0,0.0,0.0,0.0,0.0,0.0,0.0,0.0,0.0,0.0,0.0,0.0,0.0,0.0,0.0,0.0,0.0,0.0,0.0,0.0,0.0,0.0,0.0,0.0,0.0,0.0,0.0,0.0,0.0,0.0,0.0,0.0,0.0,0.0,0.0,0.0,0.0,0.0,0.0,0.0,0.0,0.0,0.0,0.0,0.0,0.0,0.0,0.0,0.0,0.0,0.0,0.0,0.0,0.0,0.0,0.0,0.0,0.0,0.0,0.0,0.0,0.0,0.0,0.0,0.0,0.0,0.0,0.0,0.0,0.0,0.0,0.0,0.0,0.0,0.0,0.0,0.0,0.0,0.0,-0.3799,-0.386,-0.3805,-0.3607,-0.3498,-0.3033,0.0,0.0,0.0,0.0,0.0,0.0,0.0,0.0,0.0,0.0,0.0,0.0,0.0,0.0,0.0,0.0,0.0,0.0,0.0,0.0,0.0,0.0,0.0,0.0,0.0,0.0,0.0,0.0,0.0,0.0,0.0,0.0,0.0,0.0,0.0,0.0,0.0,0.0,0.0,0.0,0.0,0.0,0.0,0.0,0.0,0.0,0.0,0.0,0.0,0.0,0.0,0.0,0.0,0.0,0.0,0.0,0.0,0.0,0.0,0.0,0.0,0.0,0.0,0.0,0.0,0.0,0.0,0.0,0.0,0.0,0.0,0.0,0.0,0.0,0.0,0.0,0.0,0.0,0.0,0.0,0.0,0.0,0.0,0.0,0.0,0.0,0.0,0.0,0.0,0.0,0.0,0.0,0.0,0.0,0.0,0.0,0.0,0.0,0.0,0.0,0.0,0.0,0.0,0.0,0.0,0.0,0.0,0.0,0.0,-0.5028,-0.5746,-0.5705,-0.4789,-0.422,-0.3802,0.0,0.0,0.0,0.0,0.0,0.0,0.0,0.0,0.0,0.0,0.0,0.0,0.0,0.0,0.0,0.0,0.0,0.0,0.0,0.0,0.0,0.0,0.0,0.0,0.0,0.0,0.0,0.0,0.0,0.0,0.0,0.0,0.0,0.0,0.0,0.0,0.0,0.0,0.0,0.0,0.0,0.0,0.0,0.0,0.0,0.0,0.0,0.0,0.0,0.0,0.0,0.0,0.0,0.0,0.0,0.0,0.0,0.0,0.0,0.0,0.0,0.0,0.0,0.0,0.0,0.0,0.0,0.0,0.0,0.0,0.0,0.0,0.0,0.0,0.0,0.0,0.0,0.0,0.0,0.0,0.0,0.0,0.0,0.0,0.0,0.0,0.0,0.0,0.0,0.0,0.0,0.0,0.0,0.0,0.0,0.0,0.0,0.0,0.0,0.0,0.0,0.0,0.0,0.0,0.0,0.0,0.0,0.0,-0.528,-0.5627,-0.6881,-0.7201,-0.6514,-0.5327,-0.4516,0.0,0.0,0.0,0.0,0.0,0.0,0.0,0.0,0.0,0.0,0.0,0.0,0.0,0.0,0.0,0.0,0.0,0.0,0.0,0.0,0.0,0.0,0.0,0.0,0.0,0.0,0.0,0.0,0.0,0.0,0.0,0.0,0.0,0.0,0.0,0.0,0.0,0.0,0.0,0.0,0.0,0.0,0.0,0.0,0.0,0.0,0.0,0.0,0.0,0.0,0.0,0.0,0.0,0.0,0.0,0.0,0.0,0.0,0.0,0.0,0.0,0.0,0.0,0.0,0.0,0.0,0.0,0.0,0.0,0.0,0.0,0.0,0.0,0.0,0.0,0.0,0.0,0.0,0.0,0.0,0.0,0.0,0.0,0.0,0.0,0.0,0.0,0.0,0.0,0.0,0.0,0.0,0.0,0.0,0.0,0.0,0.0,0.0,0.0,0.0,0.0,0.0,0.0,0.0,0.0,0.0,0.0,0.0,-0.6031,-0.5933,-0.7485,-0.8376,-0.831,-0.652,-0.5135,0.0,0.0,0.0,0.0,0.0,0.0,0.0,0.0,0.0,0.0,0.0,0.0,0.0,0.0,0.0,0.0,0.0,0.0,0.0,0.0,0.0,0.0,0.0,0.0,0.0,0.0,0.0,0.0,0.0,0.0,0.0,0.0,0.0,0.0,0.0,0.0,0.0,0.0,0.0,0.0,0.0,0.0,0.0,0.0,0.0,0.0,0.0,0.0,0.0,0.0,0.0,0.0,0.0,0.0,0.0,0.0,0.0,0.0,0.0,0.0,0.0,0.0,0.0,0.0,0.0,0.0,0.0,0.0,0.0,0.0,0.0,0.0,0.0,0.0,0.0,0.0,0.0,0.0,0.0,0.0,0.0,0.0,0.0,0.0,0.0,0.0,0.0,0.0,0.0,0.0,0.0,0.0,0.0,0.0,0.0,0.0,0.0,0.0,0.0,0.0,0.0,0.0,0.0,0.0,0.0,0.0,0.0,0.0,-0.5969,-0.6718,-0.7931,-0.8612,-0.881,-0.6606,-0.5311,0.0,0.0,0.0,0.0,0.0,0.0,0.0,0.0,0.0,0.0,0.0,0.0,0.0,0.0,0.0,0.0,0.0,0.0,0.0,0.0,0.0,0.0,0.0,0.0,0.0,0.0,0.0,0.0,0.0,0.0,0.0,0.0,0.0,0.0,0.0,0.0,0.0,0.0,0.0,0.0,0.0,0.0,0.0,0.0,0.0,0.0,0.0,0.0,-0.2159,0.0,0.0,0.0,0.0,0.0,0.0,0.0,0.0,0.0,0.0,0.0,0.0,0.0,0.0,0.0,0.0,0.0,0.0,0.0,0.0,0.0,0.0,0.0,0.0,0.0,0.0,0.0,0.0,0.0,0.0,0.0,0.0,0.0,0.0,0.0,0.0,0.0,0.0,0.0,0.0,0.0,0.0,0.0,0.0,0.0,0.0,0.0,0.0,0.0,0.0,0.0,0.0,0.0,0.0,0.0,0.0,0.0,0.0,0.0,-0.6127,-0.7016,-0.7955,-0.848,-0.8633,-0.6976,-0.5887,0.0,0.0,0.0,0.0,0.0,0.0,0.0,0.0,0.0,0.0,0.0,0.0,0.0,0.0,0.0,0.0,0.0,0.0,0.0,0.0,0.0,0.0,0.0,0.0,0.0,0.0,0.0,0.0,0.0,0.0,0.0,0.0,0.0,0.0,0.0,0.0,0.0,0.0,0.0,0.0,0.0,0.0,0.0,0.0,0.0,0.0,0.0,0.0,0.0,0.0,0.0,0.0,0.0,0.0,0.0,0.0,0.0,0.0,0.0,0.0,0.0,0.0,0.0,0.0,0.0,0.0,0.0,0.0,0.0,0.0,0.0,0.0,0.0,0.0,0.0,0.0,0.0,0.0,0.0,0.0,0.0,0.0,0.0,0.0,0.0,0.0,0.0,0.0,0.0,0.0,0.0,0.0,0.0,0.0,0.0,0.0,0.0,0.0,0.0,0.0,0.0,0.0,0.0,0.0,0.0,0.0,0.0,-0.5575,-0.6371,-0.7309,-0.7893,-0.8293,-0.8419,-0.7387,-0.6465,-0.5726,0.0,0.0,0.0,0.0,0.0,0.0,0.0,0.0,0.0,0.0,0.0,0.0,0.0,0.0,0.0,0.0,0.0,0.0,0.0,0.0,0.0,0.0,0.0,0.0,0.0,0.0,0.0,0.0,0.0,0.0,0.0,0.0,0.0,0.0,0.0,0.0,0.0,0.0,-0.1823,-0.1888,0.0,0.0,0.0,0.0,0.0,0.0,0.0,0.0,-0.2225,0.0,0.0,0.0,0.0,0.0,0.0,0.0,0.0,0.0,0.0,0.0,0.0,0.0,0.0,0.0,0.0,0.0,0.0,0.0,0.0,0.0,0.0,0.0,0.0,0.0,0.0,0.0,0.0,0.0,0.0,0.0,0.0,0.0,0.0,0.0,0.0,0.0,0.0,0.0,0.0,0.0,0.0,0.0,0.0,0.0,0.0,0.0,0.0,0.0,0.0,0.0,0.0,0.0,0.0,0.0,0.0,-0.5273,-0.5497,-0.6486,-0.8317,-0.8236,-0.8375,-0.8673,-0.7376,-0.6245,-0.5357,0.0,0.0,0.0,0.0,0.0,0.0,0.0,0.0,0.0,0.0,0.0,0.0,0.0,0.0,0.0,0.0,0.0,0.0,0.0,0.0,0.0,0.0,0.0,0.0,0.0,0.0,0.0,0.0,0.0,0.0,0.0,0.0,0.0,0.0,0.0,0.0,0.0,0.0,0.0,-0.18,-0.1742,0.0,0.0,0.0,0.0,0.0,0.0,0.0,0.0,-0.2099,0.0,0.0,0.0,0.0,0.0,0.0,0.0,0.0,0.0,0.0,0.0,0.0,0.0,0.0,0.0,0.0,0.0,0.0,0.0,0.0,0.0,0.0,0.0,0.0,0.0,0.0,0.0,0.0,0.0,0.0,0.0,0.0,0.0,0.0,0.0,0.0,0.0,0.0,0.0,0.0,0.0,0.0,0.0,0.0,0.0,0.0,0.0,0.0,0.0,0.0,0.0,0.0,0.0,0.0,0.0,-0.5464,-0.6006,-0.6901,-0.8148,-0.8129,-0.8123,-0.8329,-0.7188,-0.6165,0.0,0.0,0.0,0.0,0.0,0.0,0.0,0.0,0.0,0.0,0.0,0.0,0.0,0.0,0.0,0.0,0.0,0.0,0.0,0.0,0.0,0.0,0.0,0.0,0.0,0.0,0.0,0.0,0.0,0.0,0.0,0.0,0.0,0.0,0.0,0.0,0.0,0.0,0.0,0.0,-0.1789,-0.1857,-0.2033,0.0,0.0,0.0,0.0,0.0,0.0,-0.2096,-0.2029,0.0,0.0,0.0,0.0,0.0,0.0,0.0,0.0,0.0,0.0,0.0,0.0,0.0,0.0,0.0,0.0,0.0,0.0,0.0,0.0,0.0,0.0,0.0,0.0,0.0,0.0,0.0,0.0,0.0,0.0,0.0,0.0,0.0,0.0,0.0,0.0,0.0,0.0,0.0,0.0,0.0,0.0,0.0,0.0,0.0,0.0,0.0,0.0,0.0,0.0,0.0,0.0,0.0,0.0,0.0,-0.5663,-0.652,-0.7273,-0.7919,-0.7955,-0.7955,-0.7985,-0.6842,-0.5882,0.0,0.0,0.0,0.0,0.0,0.0,0.0,0.0,0.0,0.0,0.0,0.0,0.0,0.0,0.0,0.0,0.0,0.0,0.0,0.0,0.0,0.0,0.0,0.0,0.0,0.0,0.0,0.0,0.0,0.0,0.0,0.0,0.0,0.0,0.0,0.0,0.0,0.0,0.0,0.0,0.0,-0.1958,-0.2144,-0.1921,0.0,0.0,0.0,0.0,-0.1935,-0.204,0.0,0.0,0.0,0.0,0.0,0.0,0.0,0.0,0.0,0.0,0.0,0.0,0.0,0.0,0.0,0.0,0.0,0.0,0.0,0.0,0.0,0.0,0.0,0.0,0.0,0.0,0.0,0.0,0.0,0.0,0.0,0.0,0.0,0.0,0.0,0.0,0.0,0.0,0.0,0.0,0.0,0.0,0.0,0.0,0.0,0.0,0.0,0.0,0.0,0.0,0.0,0.0,0.0,0.0,0.0,0.0,-0.5825,-0.6492,-0.7304,-0.8201,-0.8148,-0.8142,-0.8224,-0.6322,-0.523,0.0,0.0,0.0,0.0,0.0,0.0,0.0,0.0,0.0,0.0,0.0,0.0,0.0,0.0,0.0,0.0,0.0,0.0,0.0,0.0,0.0,0.0,0.0,0.0,0.0,0.0,0.0,0.0,0.0,0.0,0.0,0.0,0.0,0.0,0.0,0.0,0.0,0.0,0.0,0.0,0.0,-0.1748,-0.1982,-0.1789,-0.1607,0.0,0.0,-0.2145,-0.2076,-0.239,0.0,0.0,0.0,0.0,0.0,0.0,0.0,0.0,0.0,0.0,0.0,0.0,0.0,0.0,0.0,0.0,0.0,0.0,0.0,0.0,0.0,0.0,0.0,0.0,0.0,0.0,0.0,0.0,0.0,0.0,0.0,0.0,0.0,0.0,0.0,0.0,0.0,0.0,0.0,0.0,0.0,0.0,0.0,0.0,0.0,0.0,0.0,0.0,0.0,0.0,0.0,0.0,0.0,0.0,0.0,-0.53,-0.5907,-0.694,-0.7621,-0.8046,-0.8155,-0.8166,-0.8215,-0.6268,-0.5275,0.0,0.0,0.0,0.0,0.0,0.0,0.0,0.0,0.0,0.0,0.0,0.0,0.0,0.0,0.0,0.0,0.0,0.0,0.0,0.0,0.0,0.0,0.0,0.0,0.0,0.0,0.0,0.0,0.0,0.0,0.0,0.0,0.0,0.0,0.0,0.0,0.0,0.0,0.0,0.0,0.0,0.0,-0.2069,-0.2035,0.0,0.0,0.0,-0.2179,-0.1777,0.0,0.0,0.0,0.0,0.0,0.0,0.0,0.0,0.0,0.0,0.0,0.0,0.0,0.0,0.0,0.0,0.0,0.0,0.0,0.0,0.0,0.0,0.0,0.0,0.0,0.0,0.0,0.0,0.0,0.0,0.0,0.0,0.0,0.0,0.0,0.0,0.0,0.0,0.0,0.0,0.0,0.0,0.0,0.0,0.0,0.0,0.0,0.0,0.0,0.0,0.0,0.0,0.0,0.0,0.0,0.0,0.0,-0.6083,-0.7291,-0.7954,-0.7965,-0.8156,-0.8224,-0.8075,-0.6449,0.0,0.0,0.0,0.0,0.0,0.0,0.0,0.0,0.0,0.0,0.0,0.0,0.0,0.0,0.0,0.0,0.0,0.0,0.0,0.0,0.0,0.0,0.0,0.0,0.0,0.0,0.0,-0.1501,0.0,0.0,0.0,0.0,0.0,0.0,0.0,0.0,0.0,0.0,0.0,0.0,0.0,0.0,-0.1961,-0.2199,-0.2249,-0.2321,0.0,0.0,-0.2199,-0.1712,-0.2438,-0.2926,0.0,0.0,0.0,0.0,0.0,0.0,0.0,0.0,0.0,0.0,0.0,0.0,0.0,0.0,0.0,0.0,0.0,0.0,0.0,0.0,0.0,0.0,0.0,0.0,0.0,0.0,0.0,0.0,0.0,0.0,0.0,0.0,0.0,0.0,0.0,0.0,0.0,0.0,0.0,0.0,0.0,0.0,0.0,0.0,0.0,0.0,0.0,0.0,0.0,0.0,0.0,0.0,0.0,0.0,0.0,-0.6487,-0.7492,-0.805,-0.8209,-0.8309,-0.821,-0.7795,-0.6873,-0.5884,0.0,0.0,0.0,0.0,0.0,0.0,0.0,0.0,0.0,0.0,0.0,0.0,0.0,0.0,0.0,0.0,0.0,0.0,0.0,0.0,0.0,0.0,0.0,0.0,0.0,0.0,0.0,0.0,0.0,0.0,0.0,0.0,0.0,0.0,0.0,0.0,0.0,0.0,0.0,0.0,0.0,-0.216,-0.2262,-0.2309,-0.2407,0.0,0.0,-0.2282,-0.2226,-0.285,-0.3152,-0.2587,0.0,0.0,0.0,0.0,0.0,0.0,0.0,0.0,0.0,0.0,0.0,0.0,0.0,0.0,0.0,0.0,0.0,0.0,0.0,0.0,0.0,0.0,0.0,0.0,0.0,0.0,0.0,0.0,0.0,0.0,0.0,0.0,0.0,0.0,0.0,0.0,0.0,0.0,0.0,0.0,0.0,0.0,0.0,0.0,0.0,0.0,0.0,0.0,0.0,0.0,0.0,0.0,0.0,-0.6245,-0.6527,-0.746,-0.8083,-0.8207,-0.8365,-0.8332,-0.8016,-0.7036,-0.6054,0.0,0.0,0.0,0.0,0.0,0.0,0.0,0.0,0.0,0.0,0.0,0.0,0.0,0.0,0.0,0.0,0.0,0.0,0.0,0.0,0.0,0.0,0.0,0.0,0.0,0.0,0.0,0.0,-0.1508,-0.13,-0.1268,0.0,0.0,0.0,0.0,0.0,0.0,0.0,0.0,0.0,0.0,-0.2288,-0.2449,-0.2511,0.0,0.0,-0.2803,-0.2616,-0.2233,-0.272,-0.2995,-0.2579,-0.2268,0.0,0.0,0.0,0.0,0.0,0.0,0.0,0.0,0.0,0.0,0.0,0.0,0.0,0.0,0.0,0.0,0.0,0.0,0.0,0.0,0.0,0.0,0.0,0.0,0.0,0.0,0.0,0.0,0.0,0.0,0.0,0.0,0.0,0.0,0.0,0.0,0.0,0.0,0.0,0.0,0.0,0.0,0.0,0.0,0.0,0.0,0.0,0.0,0.0,0.0,0.0,0.0,-0.6691,-0.673,-0.7682,-0.8254,-0.8378,-0.8489,-0.8398,-0.8202,-0.7385,-0.6528,0.0,0.0,0.0,0.0,0.0,0.0,0.0,0.0,0.0,0.0,0.0,0.0,0.0,0.0,0.0,0.0,0.0,0.0,0.0,0.0,0.0,0.0,0.0,0.0,0.0,0.0,0.0,0.0,-0.159,-0.1392,-0.1269,0.0,0.0,0.0,0.0,0.0,0.0,0.0,0.0,0.0,0.0,-0.2549,-0.2607,-0.2644,-0.274,-0.2963,-0.2867,-0.275,-0.2561,-0.2766,-0.2837,-0.2509,0.0,0.0,0.0,0.0,0.0,0.0,0.0,0.0,0.0,0.0,0.0,0.0,0.0,0.0,0.0,0.0,0.0,0.0,0.0,0.0,0.0,0.0,0.0,0.0,0.0,0.0,0.0,0.0,0.0,0.0,-0.5584,0.0,0.0,0.0,0.0,0.0,0.0,0.0,0.0,0.0,0.0,0.0,0.0,0.0,0.0,0.0,0.0,0.0,0.0,0.0,0.0,0.0,0.0,-0.7163,-0.7314,-0.8109,-0.8635,-0.8748,-0.8576,-0.8393,-0.8218,-0.8,-0.7328,-0.6288,0.0,0.0,0.0,0.0,0.0,0.0,0.0,0.0,0.0,0.0,0.0,0.0,0.0,0.0,0.0,0.0,0.0,0.0,0.0,0.0,0.0,0.0,0.0,0.0,0.0,0.0,-0.1838,-0.1618,-0.1426,0.0,0.0,0.0,0.0,0.0,0.0,0.0,0.0,0.0,0.0,-0.2616,-0.2923,-0.2734,-0.2756,-0.2817,-0.2975,-0.2713,-0.2692,-0.3387,-0.3186,-0.2745,0.0,0.0,0.0,0.0,0.0,0.0,0.0,0.0,0.0,0.0,0.0,0.0,0.0,0.0,0.0,0.0,0.0,0.0,0.0,0.0,0.0,0.0,0.0,0.0,0.0,0.0,0.0,-0.7111,-0.6744,0.0,0.0,0.0,0.0,0.0,0.0,0.0,0.0,0.0,0.0,0.0,-0.7567,-0.7891,0.0,0.0,0.0,0.0,0.0,0.0,0.0,0.0,0.0,0.0,0.0,0.0,-0.7624,-0.7666,-0.827,-0.8646,-0.8759,-0.8576,-0.8398,-0.8224,-0.8145,-0.7723,-0.6858,0.0,0.0,0.0,0.0,0.0,0.0,0.0,0.0,0.0,0.0,0.0,0.0,0.0,0.0,0.0,0.0,0.0,0.0,0.0,0.0,0.0,0.0,0.0,0.0,0.0,-0.2535,0.0,0.0,0.0,0.0,0.0,0.0,0.0,0.0,0.0,0.0,0.0,-0.2228,-0.2183,-0.2413,-0.258,-0.2616,-0.2756,-0.2897,0.0,0.0,0.0,0.0,0.0,0.0,0.0,0.0,0.0,0.0,0.0,0.0,0.0,0.0,-0.0813,-0.0197,-0.0,0.0116,0.0392,0.0,0.0,0.0,0.0,0.0,0.0,0.0,0.0,0.0,0.0,0.0,0.0,0.0,0.0,-0.8364,0.0,-0.7636,0.0,0.0,0.0,0.0,0.0,0.0,0.0,0.0,-0.8416,-0.8724,-0.8697,-0.9,-0.8961,0.0,-0.8556,-0.812,0.0,0.0,0.0,0.0,0.0,0.0,0.0,0.0,-0.8016,-0.8006,-0.8574,-0.8857,-0.8823,-0.8705,-0.85,-0.8343,-0.8256,-0.7966,-0.7592,-0.603,-0.4642,0.0,0.0,0.0,0.0,0.0,0.0,0.0,0.0,0.0,0.0,0.0,0.0,0.0,0.0,0.0,0.0,0.0,0.0,0.0,0.0,0.0,0.0,0.0,-0.2465,0.0,0.0,0.0,0.0,0.0,0.0,0.0,0.0,0.0,-0.2156,-0.2387,-0.2555,-0.247,-0.2585,-0.2661,-0.2623,0.0,0.0,0.0,0.0,0.0,0.0,0.0,-0.255,-0.2523,-0.2174,-0.1944,-0.1852,-0.1685,-0.1572,-0.1515,0.0,0.0,-0.0621,-0.0435,-0.0352,-0.0087,-0.0236,-0.0404,-0.0344,-0.0348,-0.035,0.0,0.0,0.0,0.0,0.0,0.0,0.0,0.0,-1.0733,-1.0008,0.0,-0.9233,0.0,0.0,0.0,0.0,0.0,-0.8281,0.0,0.0,-1.0262,-1.0717,-0.9968,-1.0202,-1.0213,-1.0051,-0.9335,-0.8979,-0.8949,-0.8689,0.0,0.0,0.0,0.0,0.0,0.0,-0.8333,-0.8362,-0.8932,-0.9204,-0.9017,-0.8899,-0.8705,-0.8501,-0.8285,-0.8281,-0.8447,-0.725,-0.6232,-0.5325,-0.4721,0.0,0.0,0.0,0.0,0.0,0.0,0.0,0.0,0.0,0.0,0.0,0.0,0.0,0.0,0.0,0.0,0.0,0.0,0.0,0.0,-0.184,0.0,0.0,0.0,0.0,0.0,0.0,0.0,0.0,0.0,0.0,-0.2605,-0.2763,-0.2947,-0.2956,0.0,0.0,0.0,0.0,-0.3062,-0.2528,-0.2585,-0.2703,-0.2705,-0.2774,-0.2817,-0.2955,0.0,0.0,-0.1859,-0.1647,-0.1474,-0.1414,-0.1515,-0.1506,-0.1234,-0.0983,-0.0815,-0.0717,-0.0908,-0.1084,-0.1089,-0.0955,-0.0948,-1.427,0.0,0.0,0.0,0.0,-1.1628,-1.1871,-1.2505,-1.2093,-1.1462,-1.0664,-1.0545,0.0,0.0,0.0,0.0,0.0,0.0,-0.946,-1.036,-1.0596,-1.0711,-1.0779,-1.0707,-1.0587,-1.042,-1.0192,-1.0101,-1.0108,-1.0047,-0.9334,-0.7976,0.0,0.0,0.0,0.0,-0.8825,-0.8877,-0.915,-0.921,-0.9017,-0.8899,-0.8705,-0.8517,-0.8447,-0.8469,-0.8491,-0.7555,-0.6657,-0.5834,-0.5382,0.0,0.0,0.0,0.0,0.0,0.0,0.0,0.0,0.0,0.0,0.0,0.0,0.0,0.0,0.0,0.0,0.0,0.0,0.0,-0.2732,-0.2276,-0.2191,0.0,0.0,0.0,0.0,0.0,0.0,0.0,0.0,0.0,-0.3355,-0.3105,-0.291,0.0,0.0,-0.2867,-0.2725,-0.2856,-0.3006,-0.3046,-0.2978,0.0,0.0,-0.293,-0.2766,-0.2971,-0.2626,-0.2251,-0.1849,-0.1661,-0.1537,-0.1537,-0.1612,-0.1547,-0.1517,-0.1333,-0.119,-0.1052,-0.1028,-0.11,-0.1057,-0.0988,-0.098,-1.5522,-1.441,-1.3778,-1.3541,-1.3488,-1.3051,-1.3225,-1.3793,-1.3271,-1.2532,-1.1681,-1.1708,-1.0879,-0.9516,-0.9563,0.0,0.0,0.0,-1.037,-1.149,-1.1066,-1.1145,-1.1542,-1.1322,-1.1145,-1.1093,-1.0931,-1.084,-1.0779,-1.0601,-0.9946,-0.8801,0.0,0.0,-0.863,-0.903,-0.9321,-0.9445,-0.9485,-0.9432,-0.9307,-0.895,-0.8705,-0.8517,-0.8517,-0.8537,-0.8494,-0.7995,-0.7336,-0.642,-0.6145,-0.5528,0.0,0.0,0.0,0.0,0.0,0.0,0.0,0.0,0.0,0.0,0.0,-0.3073,0.0,0.0,0.0,0.0,-0.2695,-0.2893,-0.2789,-0.2546,0.0,0.0,0.0,0.0,0.0,0.0,0.0,-0.3339,-0.3537,-0.3686,-0.367,-0.3448,-0.3185,-0.2913,-0.2897,-0.2894,-0.2815,0.0,-0.3082,-0.3121,-0.3019,-0.3081,-0.3158,-0.2997,-0.2912,-0.2976,-0.2637,-0.2265,-0.2003,-0.1775,-0.166,-0.1647,-0.1572,-0.1499,-0.1482,-0.1373,-0.1225,-0.1134,-0.1076,-0.1067,-0.1044,-0.1046,-0.104,-1.6729,-1.6468,-1.5315,-1.5097,-1.5508,-1.4774,-1.4714,-1.5164,-1.4216,-1.3371,-1.2609,-1.2692,-1.1999,-1.0828,-1.083,0.0,-1.1336,-1.0929,-1.122,-1.2051,-1.174,-1.185,-1.2297,-1.1926,-1.1809,-1.1802,-1.1435,-1.124,-1.1094,-1.0664,-1.0314,-1.0068,-0.9938,-0.9743,-0.9542,-0.9646,-0.979,-0.9916,-0.9916,-0.9844,-0.9679,-0.9117,-0.8727,-0.8517,-0.8517,-0.8548,-0.8527,-0.8462,-0.8012,-0.714,-0.6976,-0.6445,-0.5358,0.0,0.0,0.0,0.0,0.0,0.0,0.0,0.0,0.0,0.0,0.0,0.0,0.0,0.0,0.0,-0.2441,0.0,-0.2479,-0.2694,0.0,0.0,0.0,-0.3427,-0.3765,-0.3814,-0.3862,-0.3902,0.0,0.0,-0.372,-0.3683,-0.3587,-0.333,-0.3211,-0.3129,-0.2963,-0.3236,-0.3299,-0.297,-0.3011,-0.3038,-0.3013,-0.3046,-0.3099,-0.2971,-0.2692,-0.2382,-0.2179,-0.1859,-0.1657,-0.1625,-0.1474,-0.1392,-0.1357,-0.1216,-0.1081,-0.1088,-0.1081,-0.1075,-0.1073,-0.1073,-0.1072,-1.8589,-1.8267,-1.7587,-1.668,-1.5592,-1.5509,-1.5477,-1.5528,-1.5183,-1.4635,-1.4052,-1.3834,-1.3227,-1.2459,-1.2341,-1.2439,-1.2681,-1.227,-1.2332,-1.2712,-1.2448,-1.2304,-1.2305,-1.1934,-1.1809,-1.1802,-1.1428,-1.1247,-1.1122,-1.085,-1.0648,-1.0545,-1.0538,-1.0293,-0.9821,-1.0066,-1.0233,-1.0253,-1.0257,-1.0043,-0.9455,-0.9209,-0.8893,-0.8522,-0.8517,-0.849,-0.85,-0.8285,-0.7968,-0.7705,-0.7479,-0.6915,-0.6005,-0.5911,0.0,0.0,0.0,0.0,0.0,0.0,0.0,0.0,0.0,-0.3669,-0.329,0.0,-0.3407,0.0,-0.2765,-0.3058,-0.3176,-0.3014,0.0,0.0,-0.3539,-0.3671,-0.3843,-0.4034,-0.4042,-0.3938,-0.3975,-0.3946,-0.3867,-0.3735,-0.3608,-0.3432,-0.3215,-0.3098,-0.3253,-0.3321,-0.3407,-0.336,-0.3361,-0.3313,-0.3181,-0.3289,-0.3264,-0.3001,-0.2587,-0.2236,-0.1879,-0.1524,-0.131,-0.13,-0.1278,-0.1194,-0.1193,-0.1123,-0.1064,-0.1084,-0.112,-0.1076,-0.1076,-0.1076,-0.1076,-1.9376,-1.9091,-1.8529,-1.7622,-1.6515,-1.6407,-1.6385,-1.6364,-1.5722,-1.5233,-1.4794,-1.426,-1.3812,-1.3468,-1.3296,-1.3246,-1.3329,-1.3067,-1.2937,-1.292,-1.2707,-1.2522,-1.2436,-1.1996,-1.1864,-1.1934,-1.1615,-1.131,-1.1122,-1.0996,-1.0905,-1.0878,-1.1009,-1.0906,-1.0692,-1.0748,-1.0692,-1.0657,-1.0538,-1.0155,-0.961,-0.9383,-0.9025,-0.8493,-0.843,-0.8337,-0.8186,-0.8115,-0.7881,-0.7537,-0.7406,-0.6921,-0.6022,-0.5839,-0.5492,0.0,0.0,0.0,0.0,0.0,0.0,0.0,0.0,0.0,0.0,0.0,-0.3753,-0.3173,-0.3158,-0.3308,-0.3608,-0.3498,-0.345,-0.3669,-0.3788,-0.385,-0.399,-0.4142,-0.4221,-0.4091,-0.4015,-0.4017,-0.3875,-0.3596,-0.3436,-0.3482,-0.329,-0.3145,-0.3264,-0.33,-0.3394,-0.3483,-0.3476,-0.3426,-0.335,-0.3354,-0.3283,-0.3123,-0.2779,-0.2293,-0.1844,-0.1644,-0.1429,-0.1263,-0.1172,-0.1086,-0.0865,-0.1007,-0.1085,-0.087,-0.0857,-0.0909,-0.1046,-0.1116,-0.1114,-1.9696,-1.9463,-1.8926,-1.8253,-1.7665,-1.7294,-1.7197,-1.714,-1.6137,-1.5477,-1.5133,-1.4412,-1.409,-1.413,-1.395,-1.3761,-1.3571,-1.3527,-1.3291,-1.2805,-1.2645,-1.2607,-1.2631,-1.2073,-1.1956,-1.2126,-1.1769,-1.1457,-1.1178,-1.1122,-1.1106,-1.1001,-1.1296,-1.1477,-1.1531,-1.1406,-1.1143,-1.0962,-1.0742,-1.0411,-0.9863,-0.9545,-0.9145,-0.8499,-0.8356,-0.813,-0.7812,-0.7943,-0.7729,-0.7098,-0.7132,-0.6762,-0.5879,-0.5538,-0.5392,0.0,-0.4678,0.0,0.0,0.0,0.0,0.0,0.0,0.0,0.0,-0.3979,-0.4041,-0.4009,-0.3597,-0.3481,-0.391,-0.3971,-0.3918,-0.3868,-0.3998,-0.4033,-0.4115,-0.4172,-0.4233,-0.4233,-0.403,-0.3894,-0.3828,-0.3493,-0.3295,-0.3429,-0.3284,-0.3203,-0.3224,-0.325,-0.3309,-0.3383,-0.3407,-0.3475,-0.3459,-0.328,-0.3154,-0.3225,-0.2883,-0.2488,-0.2018,-0.1835,-0.1629,-0.1293,-0.1133,-0.1052,-0.0664,-0.0808,-0.0877,-0.0582,-0.0512,-0.0661,-0.0876,-0.1018,-0.1017,-2.0517,-2.0141,-1.9683,-1.8791,-1.7701,-1.7767,-1.7467,-1.6885,-1.6676,-1.6275,-1.5753,-1.5283,-1.4993,-1.4784,-1.4318,-1.4061,-1.389,-1.3631,-1.3327,-1.2989,-1.2728,-1.2765,-1.2965,-1.2383,-1.221,-1.2447,-1.1881,-1.1509,-1.143,-1.143,-1.1325,-1.1143,-1.1458,-1.1525,-1.1419,0.0,0.0,0.0,-1.0976,-1.0659,-1.0056,-0.9687,-0.916,-0.8429,-0.8226,0.0,-0.7794,-0.7681,-0.7498,-0.7276,-0.7074,0.0,0.0,0.0,0.0,0.0,0.0,0.0,0.0,0.0,0.0,0.0,-0.4987,-0.4724,-0.4125,-0.3909,-0.3884,-0.3986,-0.4059,-0.4072,-0.4083,-0.4162,-0.424,-0.4221,-0.4248,-0.4151,-0.4061,-0.4018,-0.403,-0.3894,-0.3828,-0.3758,-0.3629,-0.3498,-0.3364,-0.3295,-0.3228,-0.3226,-0.3226,-0.3342,-0.3471,-0.356,-0.3616,-0.3683,-0.3554,-0.3274,-0.3049,-0.3008,-0.2584,-0.2264,-0.1947,-0.1587,-0.1374,-0.1213,-0.0984,-0.0991,-0.108,-0.0686,-0.0378,-0.0461,-0.0464,-0.0538,-0.0599,-0.0589,-0.0731,-2.0819,0.0,-2.0008,-1.9421,0.0,-1.8254,-1.7962,-1.7776,-1.7088,-1.6457,-1.5874,-1.5526,-1.5245,-1.497,-1.4428,-1.413,-1.401,-1.3631,-1.3319,-1.2989,-1.3054,-1.3107,-1.3092,-1.2763,-1.2653,-1.2813,-1.2312,-1.1985,-1.1871,-1.1812,-1.1738,-1.1671,-1.1689,-1.1681,-1.1652,-1.1588,-1.1455,-1.1311,-1.1154,-1.0811,-1.0484,-1.0062,-0.9527,-0.8764,0.0,0.0,0.0,0.0,0.0,0.0,0.0,0.0,0.0,0.0,0.0,-0.6582,-0.6134,-0.5845,-0.5832,-0.5686,-0.5554,-0.5454,-0.5258,-0.4918,-0.4426,-0.4216,-0.4098,-0.4105,-0.4226,-0.4276,-0.4219,-0.4265,-0.4303,-0.4303,-0.4233,-0.4097,-0.403,-0.403,-0.3961,-0.3894,-0.3825,-0.3761,-0.3565,-0.3431,-0.3295,-0.3228,-0.3226,-0.3159,-0.3167,-0.3235,-0.3407,-0.3395,-0.3605,-0.3684,-0.3372,-0.2981,-0.2902,-0.2898,-0.2563,-0.2057,-0.1631,-0.1513,-0.1388,-0.1234,-0.1157,-0.1162,-0.1251,-0.0933,-0.0542,-0.0313,-0.0236,-0.0235,-0.0231,-0.0228,-0.0303,-2.1042,-2.07,-2.021,-2.0075,-2.0075,-1.8775,-1.8469,-1.8692,0.0,0.0,0.0,-1.5642,-1.5371,-1.5088,-1.4547,-1.4189,-1.401,-1.3761,-1.342,-1.3166,-1.3553,-1.3566,-1.3282,-1.3173,-1.3186,-1.3164,-1.2758,-1.248,-1.2334,-1.2197,-1.2117,-1.2212,-1.206,-1.1917,-1.187,-1.1456,-1.1346,-1.1447,-1.1188,-1.0968,-1.0795,-1.0343,-0.9799,-0.9163,-0.8798,-0.8399,-0.7883,-0.7907,-0.7836,-0.7634,-0.7348,-0.7231,-0.7263,-0.6934,-0.6744,-0.6702,-0.6334,-0.6114,-0.6145,-0.6053,-0.6009,-0.599,-0.548,-0.5006,-0.4653,-0.4449,-0.4303,-0.4303,-0.4303,-0.4303,-0.4303,-0.4303,-0.4308,-0.4327,-0.4175,-0.4036,-0.4053,-0.3969,-0.3894,-0.3828,-0.3761,-0.3627,-0.3498,-0.3362,-0.3226,-0.3226,-0.3159,-0.3092,-0.3027,-0.3048,-0.313,-0.322,-0.344,-0.353,-0.3139,-0.2746,-0.2668,-0.2902,-0.25,-0.192,-0.142,-0.1366,-0.1401,-0.1166,-0.1174,-0.1178,-0.1257,-0.1099,-0.0864,-0.0157,0.0079,0.0157,0.0236,0.0157,0.0157,-2.1094,-2.0839,-2.0643,-2.0538,-2.0404,-1.9541,-1.883,-1.823,-1.7518,-1.6911,-1.6316,-1.5972,-1.573,-1.5556,-1.4775,-1.4359,-1.4216,-1.4206,-1.3907,-1.352,-1.3973,-1.4105,-1.395,-1.3533,-1.3437,-1.3477,-1.3006,-1.2741,-1.2634,-1.2438,-1.2325,-1.2182,-1.2263,-1.2118,-1.187,-1.1274,-1.1109,-1.1294,-1.1083,-1.0924,-1.0766,-1.0185,-0.9681,-0.9365,-0.8851,-0.8401,-0.8052,-0.7738,-0.7557,-0.758,-0.7478,-0.7389,-0.7438,-0.7106,-0.6848,-0.6872,-0.6689,-0.6506,-0.6363,-0.6306,-0.6331,-0.631,-0.5873,-0.5259,-0.4429,-0.4337,-0.4303,-0.4303,-0.4303,-0.4303,-0.4303,-0.4303,-0.4336,-0.4414,-0.4355,-0.4204,-0.4148,-0.3946,-0.3761,-0.3565,-0.336,-0.3293,-0.3295,-0.3228,-0.3226,-0.3159,-0.3034,-0.2961,-0.2771,-0.2812,-0.2915,-0.2979,-0.3083,-0.3056,-0.2824,-0.2668,-0.2589,-0.2588,-0.2318,-0.1982,-0.1576,-0.1136,-0.0842,-0.061,-0.0621,-0.0784,-0.11,-0.0707,-0.0236,0.0079,0.0314,0.0629,0.0943,0.0786,0.0629,-2.1094,-2.0903,-2.0722,-2.059,-2.0445,-1.9973,-1.9187,-1.8201,-1.7906,-1.7389,-1.6788,-1.6757,-1.6487,-1.6049,-1.5712,-1.5325,-1.489,-1.4464,-1.4221,-1.4038,-1.4497,-1.4544,-1.4255,-1.4017,-1.3909,-1.3828,-1.3479,-1.3267,-1.3114,-1.2834,-1.2618,-1.2545,-1.2236,-1.2078,-1.2084,-1.1456,-1.1166,-1.1287,-1.096,-1.0895,-1.0953,-1.0463,-1.0077,-0.9799,-0.936,-0.8918,-0.8527,-0.8209,-0.8028,-0.7914,-0.7795,-0.7659,-0.7611,-0.724,-0.7008,-0.6933,-0.6806,-0.6609,-0.6416,-0.642,-0.6284,-0.6152,-0.5954,-0.5491,-0.4631,-0.4567,-0.45,-0.43,-0.4303,-0.4303,-0.4303,-0.4303,-0.4322,-0.4371,-0.426,-0.4118,-0.4021,-0.3926,-0.3696,-0.3563,-0.3431,-0.3362,-0.3431,-0.3295,-0.3159,-0.3029,-0.2854,-0.2681,-0.2614,-0.2533,-0.2596,-0.2737,-0.2755,-0.2659,-0.251,-0.2512,-0.2514,-0.2514,-0.2338,-0.1854,-0.1153,-0.0694,-0.0772,-0.0309,0.0078,0.0314,0.0079,0.0157,0.0393,0.0707,0.0786,0.11,0.1179,0.11,0.1022,-2.1094,-2.0903,-2.0786,-2.0593,-2.0399,-2.0216,-1.9522,-1.853,-1.8509,-1.807,-1.7398,-1.7328,-1.6991,-1.6515,-1.651,-1.6192,-1.556,-1.4911,-1.4635,-1.4688,-1.4942,-1.4833,-1.4547,-1.4451,-1.4353,-1.4137,-1.3928,-1.3717,-1.3499,-1.3119,-1.2826,-1.2718,-1.2155,-1.1984,-1.2198,-1.1559,-1.1204,-1.1198,-1.0848,-1.0755,-1.1009,-1.065,-1.037,-1.025,-0.9812,-0.9378,-0.8969,-0.8675,-0.8399,-0.8187,-0.7982,-0.7857,-0.7731,-0.74,-0.7138,-0.6881,-0.6741,-0.6613,-0.6416,-0.642,-0.6288,-0.602,-0.5958,-0.5627,-0.503,-0.4894,-0.4694,-0.4367,-0.4303,-0.4303,-0.4303,-0.4303,-0.4311,-0.433,-0.411,-0.3976,-0.3926,-0.3775,-0.3694,-0.3498,-0.3431,-0.3431,-0.3431,-0.3295,-0.3092,-0.2765,-0.2606,-0.2499,-0.244,-0.2348,-0.2383,-0.2402,-0.247,-0.2381,-0.2247,-0.2311,-0.2389,-0.2409,-0.2414,-0.1946,-0.1093,-0.0863,-0.0471,0.0235,0.0706,0.1022,0.1179,0.1022,0.0943,0.1179,0.1258,0.1258,0.1336,0.1336,0.1179,-2.121,-2.0903,-2.0903,-2.0722,-2.0346,-2.0216,-1.9868,-1.9445,-1.9467,-1.9017,-1.8185,-1.7257,-1.6921,-1.6882,-1.6636,-1.6357,-1.6002,-1.5725,-1.5551,-1.5392,-1.5261,-1.5092,-1.4871,-1.4697,-1.4425,-1.4129,-1.4057,-1.3848,-1.3492,-1.3119,-1.2753,-1.2345,-1.2011,-1.1891,-1.1891,-1.1287,-1.0931,-1.0924,-1.0502,-1.0496,-1.0665,-1.0321,-1.0273,-1.0473,-0.99,-0.9453,-0.9152,-0.8764,-0.841,-0.8192,-0.7787,-0.7591,-0.7666,-0.74,-0.7073,-0.6946,-0.6741,-0.6613,-0.642,-0.642,-0.6354,-0.6354,-0.609,-0.576,-0.5362,-0.5156,-0.4824,-0.4431,-0.4303,-0.4303,-0.4303,-0.4303,-0.4336,-0.4409,-0.4147,-0.3999,-0.4069,-0.3823,-0.3498,-0.3498,-0.3362,-0.3228,-0.3228,-0.3092,-0.2824,-0.2557,-0.2453,-0.2327,-0.2256,-0.2241,-0.2137,-0.2127,-0.2215,-0.2266,-0.2177,-0.2279,-0.2144,-0.2042,-0.2208,-0.1999,-0.1403,-0.0157,0.11,0.0786,0.0864,0.0943,0.1179,0.1258,0.1258,0.1258,0.1336,0.1336,0.1493,0.1493,0.1336,-2.121,-2.1031,-2.085,-2.054,-2.0216,-2.014,-2.002,-1.9781,-1.9372,-1.9093,-1.8843,-1.8112,-1.7748,-1.7678,-1.768,-1.7461,-1.7007,-1.684,-1.6652,-1.6318,-1.5922,-1.5638,-1.5417,-1.4927,-1.4569,-1.4281,-1.4281,-1.4072,-1.3645,-1.3127,-1.2753,-1.2519,-1.2251,-1.2124,-1.2111,-1.1644,-1.1217,-1.0899,-1.0534,-1.0315,-1.0209,-1.0067,-0.9982,-1.0056,-0.9625,-0.9249,-0.9028,-0.8915,-0.8626,-0.8132,-0.7712,-0.7512,-0.7596,-0.7204,-0.6946,-0.6881,-0.6683,-0.6482,-0.642,-0.642,-0.642,-0.642,-0.6288,-0.6024,-0.5634,-0.5491,-0.509,-0.4434,-0.4303,-0.4303,-0.43,-0.4167,-0.4118,-0.4149,-0.3984,-0.3847,-0.375,-0.3592,-0.3498,-0.3362,-0.3159,-0.3092,-0.2956,-0.2755,-0.249,-0.2369,-0.2345,-0.2237,-0.2151,-0.2145,-0.2125,-0.1902,-0.1941,-0.1942,-0.186,-0.1567,-0.148,-0.1483,-0.105,-0.0611,-0.0234,0.0079,0.0943,0.1258,0.11,0.1022,0.1258,0.1415,0.1415,0.1415,0.1493,0.1573,0.173,0.173,0.165,-2.1221,-2.1169,-2.0862,-2.0464,-2.0216,-2.0151,-2.002,-1.9835,-1.9297,-1.9156,-1.9233,-1.8778,-1.8503,-1.8359,-1.8475,-1.8202,-1.7794,-1.7598,-1.7323,-1.6899,-1.6412,-1.5991,-1.5771,-1.5284,-1.4784,-1.4505,-1.4425,-1.4145,-1.3717,-1.3273,-1.29,-1.2599,-1.2452,-1.2372,-1.2305,-1.1929,-1.1512,-1.0937,-1.0534,-1.017,-0.9771,-0.9614,-0.9639,-0.9765,-0.9497,-0.9173,-0.895,-0.9085,-0.8836,-0.8067,-0.7642,-0.7512,-0.7521,-0.7204,-0.6946,-0.6881,-0.6552,-0.642,-0.642,-0.642,-0.642,-0.6354,-0.6354,-0.6156,-0.5693,-0.5557,-0.5226,-0.4434,-0.4233,-0.4167,-0.43,-0.4097,-0.403,-0.403,-0.3828,-0.3627,-0.35,-0.3364,-0.3295,-0.3092,-0.2956,-0.2889,-0.2757,-0.249,-0.2293,-0.2326,-0.2236,-0.2151,-0.206,-0.2025,-0.1978,-0.1778,-0.1659,-0.1662,-0.156,-0.1181,-0.0957,-0.0588,-0.0074,0.0687,0.1249,0.102,0.0943,0.1493,0.1415,0.1493,0.1493,0.1651,0.165,0.1571,0.1649,0.1886,0.1963,0.1964,0.212,-2.1336,-2.1158,-2.0862,-2.0529,-2.0335,-2.014,-2.0009,-1.9868,-1.9628,-1.9452,-1.9285,-1.91,-1.8967,-1.8747,-1.8596,-1.8347,-1.8008,-1.7666,-1.7392,-1.7166,-1.6621,-1.614,-1.5797,-1.5355,-1.4991,-1.4641,-1.4497,-1.4137,-1.3564,-1.3266,-1.2973,-1.2599,-1.2599,-1.2452,-1.2305,-1.2083,-1.165,-1.0943,-1.0673,-1.0147,-0.9438,-0.9186,-0.9308,-0.9696,-0.9561,-0.9284,-0.8956,-0.9091,-0.8847,-0.7997,-0.7657,-0.7526,-0.7461,-0.7265,-0.7073,-0.6811,-0.6548,-0.642,-0.642,-0.642,-0.6354,-0.6284,-0.6284,-0.602,-0.5292,-0.5312,-0.5046,-0.4367,-0.4041,-0.3976,-0.4167,-0.403,-0.3961,-0.3961,-0.3696,-0.3431,-0.3228,-0.3167,-0.2958,-0.2827,-0.2772,-0.2642,-0.243,-0.2288,-0.2189,-0.2146,-0.2064,-0.193,-0.1925,-0.175,-0.1599,-0.1486,-0.1436,-0.1538,-0.1487,-0.096,-0.0504,-0.0,0.06,0.1222,0.132,0.1493,0.1573,0.1651,0.173,0.1808,0.1808,0.1887,0.1886,0.1963,0.212,0.2277,0.2198,0.2353,0.2431,-2.1106,-2.085,-2.0604,-2.041,-2.0216,-2.014,-2.0009,-1.9857,-1.9681,-1.9473,-1.9285,-1.9142,-1.8942,-1.8617,-1.8549,-1.8414,-1.8144,-1.794,-1.7803,-1.7657,-1.7176,-1.676,-1.6491,-1.5859,-1.5355,-1.4991,-1.4784,-1.4425,-1.3848,-1.3331,-1.2973,-1.2753,-1.2526,-1.2378,-1.2298,-1.2083,-1.165,-1.0943,-1.0673,-1.0208,-0.9526,-0.928,-0.9244,-0.9274,-0.9031,-0.8799,-0.8646,-0.8717,-0.8543,-0.7987,-0.7722,-0.7526,-0.7461,-0.7204,-0.6946,-0.6811,-0.6548,-0.642,-0.642,-0.642,-0.6354,-0.6354,-0.6284,-0.602,-0.5449,-0.5261,-0.495,-0.4268,-0.4122,-0.4064,-0.3914,-0.3828,-0.3699,-0.3632,-0.3429,-0.3295,-0.3171,-0.3071,-0.2966,-0.2904,-0.2727,-0.2535,-0.2297,-0.2175,-0.2063,-0.208,-0.1925,-0.1776,-0.1627,-0.1534,-0.139,-0.1276,-0.1058,-0.0783,-0.0538,-0.0452,-0.0074,0.0601,0.1226,0.1386,0.1558,0.1726,0.1807,0.1807,0.1887,0.1965,0.1965,0.2042,0.2042,0.2276,0.2433,0.2511,0.2431,0.251,0.251,-2.0978,-2.0669,-2.0475,-2.0281,-2.0085,-2.0085,-2.0009,-1.9868,-1.9671,-1.9473,-1.9285,-1.9142,-1.8875,-1.8549,-1.8482,-1.8414,-1.8212,-1.8076,-1.794,-1.7862,-1.7442,-1.7176,-1.6839,-1.614,-1.5647,-1.5284,-1.4848,-1.4425,-1.4057,-1.3404,-1.3046,-1.29,-1.251,-1.231,-1.2164,-1.1939,-1.152,-1.0867,-1.0629,-1.0208,-0.9544,-0.928,-0.9145,-0.8894,-0.8641,-0.8517,-0.8517,-0.8522,-0.837,-0.8088,-0.7829,-0.766,-0.765,-0.7328,-0.7007,-0.6836,-0.661,-0.6481,-0.6428,-0.6354,-0.635,-0.6292,-0.6156,-0.5888,-0.5376,-0.5192,-0.478,-0.424,-0.4074,-0.3977,-0.3792,-0.3573,-0.35,-0.345,-0.3295,-0.3092,-0.3027,-0.2868,-0.2758,-0.2699,-0.2536,-0.2355,-0.2152,-0.2099,-0.1973,-0.1916,-0.1751,-0.1577,-0.1437,-0.1333,-0.1257,-0.1142,-0.0769,-0.0424,-0.0074,0.0147,0.0525,0.1146,0.1383,0.1546,0.1782,0.1873,0.1957,0.196,0.2042,0.2043,0.212,0.2196,0.2275,0.251,0.2589,0.2668,0.2588,0.251,0.2588,-2.0786,-2.0669,-2.0464,-2.027,-2.0151,-2.0085,-1.9998,-1.9868,-1.9671,-1.9483,-1.9285,-1.9142,-1.8875,-1.8549,-1.8482,-1.8347,-1.8076,-1.8008,-1.793,-1.7784,-1.7598,-1.7254,-1.6899,-1.6202,-1.563,-1.5355,-1.4561,-1.4137,-1.4057,-1.3557,-1.3193,-1.2917,-1.2541,-1.2209,-1.1884,-1.165,-1.1242,-1.0664,-1.0523,-1.0172,-0.9409,-0.9145,-0.8958,-0.8835,-0.8582,-0.8517,-0.8517,-0.8463,-0.8362,-0.826,-0.8093,-0.8078,-0.7971,-0.764,-0.7324,-0.7011,-0.6814,-0.6607,-0.6402,-0.6312,-0.6184,-0.6055,-0.5973,-0.5652,-0.5084,-0.5086,-0.4845,-0.4138,-0.4006,-0.3885,-0.3686,-0.3566,-0.3482,-0.3472,-0.3244,-0.2971,-0.2757,-0.2559,-0.236,-0.2313,-0.2234,-0.2147,-0.2058,-0.1927,-0.1858,-0.1798,-0.1612,-0.1439,-0.1399,-0.1279,-0.1104,-0.1045,-0.07,-0.0212,0.0285,0.079,0.1194,0.1538,0.1541,0.17,0.1844,0.2002,0.2151,0.2153,0.2246,0.2249,0.2256,0.2334,0.243,0.2588,0.2746,0.2824,0.2824,0.2746,0.2746,-2.0658,-2.0475,-2.0281,-2.0151,-2.0074,-1.9998,-1.9878,-1.9671,-1.9473,-1.9274,-1.9142,-1.9142,-1.8942,-1.8741,-1.8549,-1.8414,-1.8212,-1.8076,-1.8008,-1.7862,-1.7608,-1.7392,-1.7185,-1.6412,-1.5568,-1.4927,-1.4346,-1.3992,-1.3855,-1.3339,-1.2973,-1.2844,-1.237,-1.1948,-1.1708,-1.146,-1.0953,-1.0397,-1.0288,-1.0013,-0.9367,-0.9081,-0.8958,-0.877,-0.8646,-0.8517,-0.8517,-0.8392,-0.8163,-0.791,-0.7768,-0.7659,-0.761,-0.7396,-0.7265,-0.7277,-0.7124,-0.6932,-0.6798,-0.6519,-0.6177,-0.5916,-0.5716,-0.5307,-0.4786,-0.4825,-0.4589,-0.3999,-0.3903,-0.3791,-0.3634,-0.3551,-0.3446,-0.3472,-0.3251,-0.3012,-0.2836,-0.2597,-0.2429,-0.2314,-0.217,-0.2076,-0.1947,-0.1885,-0.1686,-0.162,-0.143,-0.1263,-0.1249,-0.123,-0.1129,-0.1056,-0.0563,-0.007,0.0355,0.0851,0.1292,0.1555,0.1648,0.1821,0.1968,0.2115,0.2186,0.2339,0.2357,0.2451,0.2458,0.248,0.2501,0.2668,0.2824,0.2904,0.2982,0.2982,0.3059,-2.0705,-2.0632,-2.0281,-2.026,-2.038,-2.003,-1.9813,-1.9615,-1.9417,-1.9208,-1.9142,-1.9131,-1.8942,-1.8674,-1.8549,-1.8414,-1.8202,-1.8076,-1.8008,-1.794,-1.7676,-1.747,-1.7254,-1.6342,-1.5426,-1.4641,-1.4201,-1.3992,-1.3783,-1.3158,-1.2853,-1.2743,-1.2086,-1.1597,-1.1453,-1.1073,-1.0587,-1.0102,-1.0085,-0.9808,-0.9391,-0.9081,-0.8958,-0.877,-0.8582,-0.8452,-0.8317,-0.8192,-0.8098,-0.7915,-0.7779,-0.7695,-0.7523,-0.7418,-0.7458,-0.7412,-0.7258,-0.7066,-0.6948,-0.6498,-0.6143,-0.5837,-0.5583,-0.5265,-0.4838,-0.4803,-0.4551,-0.4035,-0.3982,-0.3858,-0.3603,-0.3463,-0.3419,-0.3305,-0.3079,-0.2906,-0.2715,-0.2528,-0.2348,-0.2233,-0.2152,-0.2,-0.1751,-0.1682,-0.1559,-0.1483,-0.1308,-0.1209,-0.1186,-0.1174,-0.1152,-0.0921,-0.0492,-0.0,0.0356,0.0846,0.1385,0.1553,0.1729,0.1903,0.2141,0.2216,0.2287,0.2438,0.2526,0.2636,0.2651,0.2556,0.251,0.2746,0.3061,0.3215,0.3372,0.3374,0.345,-2.0895,-2.1063,-2.0446,-2.0456,-2.0751,-2.0193,-1.979,-1.9605,-1.9351,-1.9208,-1.9142,-1.9131,-1.8875,-1.8607,-1.8549,-1.8347,-1.8076,-1.8008,-1.8008,-1.7872,-1.7676,-1.7332,-1.689,-1.5991,-1.5141,-1.4425,-1.4209,-1.3992,-1.3702,-1.3121,-1.2835,-1.2802,-1.1902,-1.1243,-1.1096,-1.0667,-1.0196,-0.9845,-0.9855,-0.9622,-0.928,-0.9081,-0.8894,-0.877,-0.8582,-0.8317,-0.8112,-0.7992,-0.8083,-0.8223,-0.7995,-0.7729,-0.7553,-0.7682,-0.7677,-0.749,-0.7211,-0.7013,-0.682,-0.6368,-0.5988,-0.5985,-0.559,-0.524,-0.5096,-0.4853,-0.4517,-0.4052,-0.4027,-0.3827,-0.3552,-0.3409,-0.3302,-0.3043,-0.286,-0.2615,-0.2299,-0.2158,-0.2166,-0.2172,-0.2076,-0.1793,-0.1446,-0.1441,-0.1385,-0.1317,-0.123,-0.1144,-0.1131,-0.1114,-0.1088,-0.0715,-0.0213,0.021,0.0704,0.104,0.1501,0.1787,0.1887,0.205,0.2219,0.2293,0.2362,0.2512,0.2617,0.2728,0.278,0.2686,0.2733,0.3059,0.3294,0.3606,0.3675,0.3665,0.374,-2.0975,-2.1377,-2.0871,-2.074,-2.0839,-2.0371,-1.998,-1.956,-1.9274,-1.9131,-1.9131,-1.9131,-1.8942,-1.8741,-1.8549,-1.8414,-1.8212,-1.8076,-1.793,-1.7794,-1.7608,-1.6968,-1.6254,-1.5709,-1.4999,-1.4281,-1.4137,-1.392,-1.3564,-1.3078,-1.2868,-1.2865,-1.1859,-1.12,-1.0953,-1.0422,-0.9955,-0.9624,-0.9461,-0.9362,-0.9104,-0.8958,-0.877,-0.8576,-0.8376,-0.8242,-0.8107,-0.7922,-0.7746,-0.7668,-0.7522,-0.7364,-0.7203,-0.7232,-0.7311,-0.7354,-0.6738,-0.6318,-0.6391,-0.6224,-0.6111,-0.6175,-0.5663,-0.5194,-0.493,-0.4665,-0.4282,-0.3847,-0.372,-0.3624,-0.3308,-0.3224,-0.3036,-0.2608,-0.2414,-0.2242,-0.2023,-0.1816,-0.1883,-0.2092,-0.1793,-0.1475,-0.128,-0.1253,-0.1287,-0.1224,-0.1002,-0.0772,-0.084,-0.0918,-0.0904,-0.0293,0.0216,0.0561,0.0964,0.1291,0.1684,0.2026,0.2176,0.2254,0.2339,0.234,0.2472,0.2604,0.2755,0.2879,0.2885,0.2882,0.3153,0.3332,0.3569,0.3703,0.3853,0.3923,0.4002,-2.1119,-2.1666,-2.0917,-2.0728,-2.0953,-2.0325,-1.991,-1.9681,-1.9281,-1.9131,-1.9065,-1.9008,-1.8875,-1.8684,-1.8482,-1.8347,-1.8134,-1.7998,-1.7794,-1.7647,-1.7176,-1.6542,-1.5912,-1.5488,-1.4927,-1.4201,-1.3992,-1.3783,-1.347,-1.3006,-1.2846,-1.2694,-1.1787,-1.1162,-1.0923,-1.0334,-0.9833,-0.9496,-0.9338,-0.921,-0.8958,-0.8835,-0.8641,-0.8441,-0.8236,-0.8107,-0.7912,-0.7526,-0.7405,-0.7405,-0.7279,-0.7122,-0.6869,-0.6871,-0.6954,-0.7013,-0.641,-0.6058,-0.6108,-0.6093,-0.6096,-0.606,-0.5657,-0.5312,-0.4898,-0.4585,-0.4192,-0.3772,-0.3607,-0.3392,-0.3147,-0.2935,-0.2595,-0.2206,-0.197,-0.1816,-0.1748,-0.1681,-0.1681,-0.1756,-0.1634,-0.1304,-0.1147,-0.1147,-0.1189,-0.1214,-0.1085,-0.0775,-0.0464,-0.0624,-0.0466,0.0225,0.0656,0.0996,0.1246,0.1564,0.2021,0.2359,0.2423,0.249,0.249,0.249,0.2626,0.2779,0.2902,0.2963,0.3045,0.318,0.3343,0.3515,0.3695,0.3852,0.3982,0.4095,0.4173,-2.1108,-2.1793,-2.0676,-2.0584,-2.101,-2.013,-1.9769,-1.9755,-1.9297,-1.9065,-1.9008,-1.8875,-1.8674,-1.8482,-1.8347,-1.8212,-1.8008,-1.7862,-1.7716,-1.7364,-1.6821,-1.6132,-1.5771,-1.5275,-1.4776,-1.4129,-1.3928,-1.3717,-1.3382,-1.2863,-1.2634,-1.249,-1.167,-1.108,-1.074,-1.0311,-0.9831,-0.9379,-0.921,-0.9087,-0.8835,-0.8705,-0.8506,-0.8301,-0.8107,-0.7847,-0.7526,-0.7204,-0.7082,-0.741,-0.7269,-0.6876,-0.6544,-0.6741,-0.6705,-0.6509,-0.6283,-0.6068,-0.5981,-0.6002,-0.6037,-0.5952,-0.5617,-0.5269,-0.4894,-0.4535,-0.4137,-0.3718,-0.3581,-0.3238,-0.2815,-0.2421,-0.2039,-0.1825,-0.1549,-0.1412,-0.1479,-0.1547,-0.1547,-0.1547,-0.1413,-0.1212,-0.116,-0.1125,-0.1099,-0.1045,-0.084,-0.0077,0.0078,-0.0,0.031,0.0834,0.1256,0.1443,0.1614,0.1775,0.237,0.2831,0.2758,0.2824,0.2757,0.2824,0.2822,0.2976,0.301,0.3124,0.3256,0.3367,0.352,0.3672,0.3846,0.3909,0.3977,0.4144,0.4256,-2.0919,-2.1607,-2.0823,-2.0614,-2.0629,-2.0175,-1.9796,-1.9442,-1.9204,-1.9008,-1.8875,-1.8808,-1.8607,-1.8337,-1.8269,-1.8202,-1.794,-1.7794,-1.7579,-1.7235,-1.6612,-1.6061,-1.5568,-1.4999,-1.4489,-1.4137,-1.3935,-1.3645,-1.323,-1.294,-1.2625,-1.2203,-1.1643,-1.0976,-1.0556,-1.0011,-0.9532,-0.9274,-0.9087,-0.8894,-0.87,-0.8501,-0.8301,-0.8172,-0.7847,-0.7521,-0.7265,-0.7007,-0.6946,-0.6942,-0.6872,-0.6666,-0.647,-0.6478,-0.6482,-0.6304,-0.6093,-0.601,-0.6152,-0.5945,-0.5852,-0.5844,-0.5493,-0.5134,-0.4766,-0.4231,-0.3807,-0.3442,-0.3145,-0.2853,-0.2375,-0.1837,-0.1616,-0.1479,-0.1277,-0.1143,-0.121,-0.121,-0.121,-0.1211,-0.1212,-0.1146,-0.108,-0.1108,-0.1074,-0.0953,-0.03,0.0615,0.0775,0.0624,0.0927,0.1288,0.1491,0.168,0.182,0.204,0.2589,0.298,0.3038,0.3025,0.3023,0.3025,0.3092,0.3094,0.3171,0.3291,0.335,0.3336,0.335,0.3698,0.398,0.4055,0.4089,0.4185,0.4322,-2.072,-2.1177,-2.0517,-2.025,-2.0264,-1.9881,-1.9619,-1.9489,-1.9214,-1.9075,-1.8875,-1.8741,-1.8539,-1.8405,-1.8202,-1.8066,-1.7852,-1.7579,-1.7235,-1.6751,-1.6202,-1.5718,-1.515,-1.4577,-1.4145,-1.3928,-1.3717,-1.3492,-1.3171,-1.2832,-1.2435,-1.2006,-1.1368,-1.0814,-1.0378,-0.9843,-0.9474,-0.9163,-0.8958,-0.8705,-0.8501,-0.8301,-0.8107,-0.7917,-0.7591,-0.7265,-0.7073,-0.6876,-0.6745,-0.6679,-0.6613,-0.6544,-0.6408,-0.6416,-0.635,-0.6152,-0.583,-0.5834,-0.5937,-0.5764,-0.5638,-0.5604,-0.524,-0.4776,-0.4465,-0.3999,-0.3669,-0.3238,-0.2887,-0.2666,-0.204,-0.1628,-0.1349,-0.1277,-0.121,-0.1076,-0.1076,-0.1076,-0.1076,-0.1077,-0.1146,-0.0877,-0.0815,-0.0897,-0.077,-0.0575,0.0149,0.0989,0.0979,0.091,0.1071,0.1363,0.1645,0.1855,0.2019,0.2327,0.2821,0.3069,0.3125,0.3173,0.3159,0.3159,0.3228,0.3232,0.324,0.3262,0.3305,0.3281,0.3406,0.3682,0.3961,0.4087,0.4243,0.4245,0.4377,-2.0512,-2.0718,-2.0106,-1.9916,-1.9923,-1.9473,-1.9427,-1.9599,-1.9251,-1.9065,-1.8942,-1.8607,-1.8482,-1.8347,-1.8144,-1.7862,-1.7647,-1.7373,-1.7028,-1.6551,-1.5921,-1.5497,-1.4927,-1.4353,-1.3855,-1.3717,-1.3572,-1.3346,-1.3048,-1.2727,-1.2278,-1.1844,-1.1159,-1.0672,-1.0196,-0.9741,-0.9342,-0.904,-0.8765,-0.8571,-0.8301,-0.8172,-0.7917,-0.7657,-0.7396,-0.7138,-0.6942,-0.6811,-0.6609,-0.642,-0.642,-0.642,-0.6354,-0.6354,-0.6222,-0.5958,-0.5627,-0.5515,-0.5603,-0.5514,-0.5315,-0.5245,-0.4897,-0.4436,-0.4046,-0.3908,-0.3602,-0.3125,-0.2704,-0.2267,-0.1745,-0.1385,-0.1282,-0.121,-0.1143,-0.1143,-0.1076,-0.1076,-0.1077,-0.1078,-0.1078,-0.0944,-0.0678,-0.0617,-0.0416,-0.0071,0.0659,0.1196,0.1183,0.1179,0.1266,0.1345,0.1547,0.1986,0.2224,0.2587,0.3099,0.3261,0.3311,0.3275,0.3313,0.3433,0.3435,0.3377,0.3322,0.3334,0.3343,0.3411,0.3596,0.377,0.3969,0.4188,0.425,0.43,0.4441,-2.0205,-2.0194,-1.9834,-1.9745,-1.9754,-1.9316,-1.9183,-1.9168,-1.9116,-1.8942,-1.8617,-1.8549,-1.8347,-1.8144,-1.8076,-1.7803,-1.752,-1.7314,-1.7038,-1.6621,-1.6061,-1.5505,-1.4999,-1.4346,-1.3775,-1.3411,-1.3273,-1.3119,-1.2893,-1.2531,-1.211,-1.1559,-1.0994,-1.0443,-1.0068,-0.9539,-0.9167,-0.8969,-0.863,-0.8371,-0.8177,-0.7917,-0.7727,-0.7526,-0.733,-0.7138,-0.6942,-0.6745,-0.6613,-0.6416,-0.642,-0.6354,-0.6218,-0.6156,-0.6094,-0.5896,-0.5432,-0.5193,-0.5377,-0.5256,-0.5033,-0.4843,-0.4603,-0.4344,-0.3982,-0.3714,-0.3429,-0.3032,-0.2294,-0.1707,-0.1489,-0.1305,-0.1147,-0.1143,-0.1143,-0.1076,-0.1078,-0.1078,-0.1078,-0.1077,-0.1078,-0.0945,-0.061,-0.0272,-0.0,0.0208,0.0498,0.1015,0.1156,0.1155,0.1161,0.1233,0.1373,0.1887,0.2412,0.2887,0.3332,0.3383,0.3459,0.347,0.3502,0.3657,0.3645,0.3578,0.3574,0.3574,0.3585,0.3599,0.3792,0.4033,0.4167,0.4233,0.4364,0.4434,0.4543,-1.9878,-1.9681,-1.9483,-1.9417,-1.9362,-1.9218,-1.9131,-1.9075,-1.9008,-1.8808,-1.8674,-1.8472,-1.8347,-1.8134,-1.793,-1.7657,-1.7392,-1.7185,-1.6899,-1.6551,-1.6175,-1.5601,-1.5007,-1.4281,-1.3775,-1.3411,-1.3119,-1.2966,-1.2718,-1.2276,-1.188,-1.1378,-1.0754,-1.0264,-0.9977,-0.9355,-0.904,-0.8888,-0.8565,-0.8242,-0.8107,-0.7787,-0.7591,-0.7461,-0.726,-0.7138,-0.6942,-0.6741,-0.6613,-0.6486,-0.642,-0.6218,-0.6086,-0.5958,-0.5958,-0.576,-0.5299,-0.511,-0.5132,-0.4965,-0.4626,-0.4596,-0.4319,-0.3997,-0.3766,-0.3548,-0.3238,-0.2685,-0.2205,-0.148,-0.1365,-0.1172,-0.108,-0.1076,-0.1077,-0.1078,-0.1079,-0.108,-0.1078,-0.1077,-0.1011,-0.0809,-0.0337,-0.0,0.0408,0.0549,0.0556,0.077,0.1127,0.1132,0.1135,0.1279,0.1493,0.1942,0.2542,0.3072,0.3463,0.3556,0.3579,0.3661,0.368,0.3827,0.3852,0.3832,0.3761,0.3758,0.3696,0.371,0.3971,0.4233,0.43,0.4367,0.4498,0.4576,0.4681,-1.9736,-1.9407,-1.9351,-1.9285,-1.9218,-1.9142,-1.9054,-1.8931,-1.8875,-1.8751,-1.8674,-1.8405,-1.8259,-1.8134,-1.7784,-1.7442,-1.7166,-1.6978,-1.67,-1.6421,-1.6122,-1.5627,-1.4952,-1.4281,-1.3738,-1.3187,-1.2991,-1.2691,-1.2485,-1.2131,-1.1677,-1.1191,-1.0573,-1.0104,-0.9765,-0.9278,-0.9057,-0.8829,-0.8576,-0.8252,-0.7917,-0.7657,-0.7461,-0.7461,-0.7265,-0.7073,-0.6876,-0.6741,-0.6609,-0.6482,-0.6354,-0.6152,-0.5822,-0.5822,-0.5752,-0.5554,-0.5163,-0.5119,-0.5005,-0.4697,-0.4398,-0.4327,-0.4022,-0.3774,-0.3482,-0.3208,-0.2882,-0.2199,-0.1713,-0.1403,-0.1228,-0.1111,-0.1082,-0.1077,-0.1078,-0.108,-0.108,-0.108,-0.108,-0.1079,-0.1012,-0.054,0.0067,0.0405,0.0813,0.0813,0.0823,0.0823,0.1104,0.1108,0.1181,0.1395,0.1686,0.2066,0.2604,0.3169,0.3452,0.3641,0.3741,0.3727,0.3825,0.3988,0.4031,0.4087,0.403,0.3961,0.3894,0.3894,0.4097,0.4233,0.43,0.4431,0.4628,0.4761,0.4846,-1.9868,-1.9813,-1.9407,-1.9372,-1.9481,-1.9229,-1.8844,-1.8613,-1.8721,-1.8607,-1.8405,-1.8269,-1.8056,-1.7784,-1.7442,-1.7235,-1.7107,-1.6996,-1.6709,-1.6421,-1.6008,-1.5443,-1.4911,-1.4489,-1.3697,-1.3064,-1.2699,-1.2446,-1.2244,-1.1812,-1.1478,-1.101,-1.0514,-1.0113,-0.9781,-0.9296,-0.8835,-0.8582,-0.8257,-0.7922,-0.7657,-0.7526,-0.7396,-0.7269,-0.7204,-0.7068,-0.6745,-0.6675,-0.6544,-0.642,-0.6284,-0.6086,-0.5888,-0.5686,-0.5488,-0.5223,-0.496,-0.484,-0.4827,-0.4452,-0.4169,-0.4156,-0.3944,-0.3715,-0.3325,-0.2814,-0.2435,-0.2023,-0.1494,-0.1239,-0.1163,-0.1114,-0.1087,-0.1081,-0.1017,-0.1082,-0.108,-0.0809,-0.0809,-0.0674,-0.0472,0.0067,0.0674,0.0877,0.108,0.108,0.1081,0.1081,0.1082,0.1089,0.1228,0.144,0.1788,0.2232,0.2691,0.3184,0.352,0.3754,0.3842,0.389,0.4034,0.4159,0.4338,0.4381,0.4308,0.4239,0.4231,0.4231,0.4233,0.4367,0.45,0.4631,0.4761,0.4894,0.496,-1.9539,-1.9407,-1.9264,-1.9229,-1.9239,-1.9019,-1.8777,-1.8546,-1.8509,-1.8405,-1.8269,-1.8056,-1.7784,-1.7442,-1.7235,-1.7097,-1.6899,-1.6857,-1.6648,-1.6175,-1.5604,-1.5029,-1.472,-1.4182,-1.3375,-1.3035,-1.2529,-1.2131,-1.1781,-1.1443,-1.1083,-1.0771,-1.0335,-1.0015,-0.9761,-0.9271,-0.8963,-0.8635,-0.8204,-0.7797,-0.7661,-0.7526,-0.7396,-0.7204,-0.7073,-0.6876,-0.6741,-0.6478,-0.6478,-0.6354,-0.6152,-0.5951,-0.5818,-0.5683,-0.5484,-0.5153,-0.4894,-0.4764,-0.4648,-0.4346,-0.4183,-0.4034,-0.3837,-0.3444,-0.2949,-0.2597,-0.2217,-0.1687,-0.137,-0.1202,-0.1187,-0.1152,-0.1125,-0.111,-0.0965,-0.0957,-0.0885,-0.054,-0.0337,-0.0135,0.0068,0.0544,0.0954,0.1017,0.1084,0.1079,0.1078,0.1078,0.1078,0.108,0.1283,0.1485,0.1827,0.2244,0.2763,0.3237,0.344,0.3685,0.4024,0.4106,0.4292,0.4432,0.4597,0.4669,0.4588,0.4521,0.4532,0.45,0.4434,0.4567,0.4764,0.4831,0.496,0.5024,0.5169,-1.9208,-1.9131,-1.9131,-1.9075,-1.9096,-1.8885,-1.8643,-1.8335,-1.8317,-1.8259,-1.8056,-1.7784,-1.7442,-1.7235,-1.7097,-1.6881,-1.6603,-1.6718,-1.6438,-1.5824,-1.513,-1.4664,-1.4285,-1.3691,-1.3179,-1.2856,-1.2144,-1.1612,-1.1149,-1.0729,-1.0504,-1.0424,-1.0079,-0.9793,-0.9568,-0.9245,-0.8842,-0.8546,-0.7987,-0.7666,-0.7596,-0.7466,-0.7335,-0.7138,-0.6942,-0.6741,-0.6544,-0.6346,-0.6284,-0.6152,-0.5954,-0.5752,-0.5686,-0.5484,-0.5286,-0.5024,-0.4827,-0.4694,-0.4529,-0.433,-0.4253,-0.4053,-0.3724,-0.3233,-0.2547,-0.238,-0.211,-0.1539,-0.1395,-0.1233,-0.1214,-0.1181,-0.1156,-0.0996,-0.0778,-0.0769,-0.0,-0.0,-0.0,-0.0,0.028,0.0695,0.0972,0.1029,0.1089,0.108,0.1077,0.1076,0.1076,0.1076,0.1277,0.1479,0.1817,0.2225,0.2788,0.3176,0.3434,0.3699,0.4035,0.4325,0.4517,0.4648,0.4812,0.481,0.4818,0.4926,0.4963,0.4795,0.457,0.4767,0.4967,0.503,0.516,0.516,0.5353,-1.9208,-1.9131,-1.9065,-1.9096,-1.9081,-1.8906,-1.8509,-1.8065,-1.825,-1.8056,-1.7706,-1.7432,-1.7235,-1.7097,-1.6821,-1.6673,-1.6542,-1.6438,-1.6053,-1.5517,-1.4909,-1.4198,-1.3754,-1.3301,-1.2763,-1.2023,-1.1538,-1.0963,-1.0484,-1.0321,-1.0073,-0.9922,-0.9777,-0.9454,-0.9211,-0.8903,-0.8544,-0.8204,-0.7736,-0.7596,-0.7461,-0.733,-0.7138,-0.6942,-0.6811,-0.6609,-0.6276,-0.6214,-0.6083,-0.5954,-0.5752,-0.5617,-0.5484,-0.5352,-0.509,-0.4894,-0.4694,-0.4561,-0.4392,-0.4316,-0.4183,-0.4048,-0.3634,-0.2977,-0.2289,-0.2141,-0.1868,-0.1399,-0.1322,-0.124,-0.1214,-0.1188,-0.1179,-0.1095,-0.0871,-0.0576,-0.0,-0.0,-0.0,-0.0,0.036,0.0713,0.1065,0.1125,0.1105,0.1095,0.1077,0.1076,0.1143,0.1143,0.1277,0.1479,0.1748,0.2155,0.2767,0.3147,0.3401,0.3668,0.4006,0.441,0.4745,0.4856,0.4947,0.5091,0.5113,0.53,0.5364,0.5111,0.4919,0.504,0.51,0.5229,0.5379,0.5463,0.5773,-1.8942,-1.8885,-1.8741,-1.8751,-1.8828,-1.8607,-1.8307,-1.7997,-1.7969,-1.7716,-1.7364,-1.7235,-1.7028,-1.6811,-1.6751,-1.6473,-1.6333,-1.6298,-1.573,-1.4805,-1.3948,-1.3293,-1.2907,-1.2548,-1.1942,-1.1531,-1.1089,-1.0633,-1.0299,-1.0133,-0.9977,-0.9813,-0.9526,-0.9323,-0.9074,-0.8667,-0.8225,-0.7942,-0.7661,-0.7526,-0.7456,-0.733,-0.7073,-0.6876,-0.6618,-0.6412,-0.621,-0.6013,-0.5881,-0.5752,-0.5554,-0.5418,-0.5286,-0.5153,-0.4957,-0.4761,-0.4625,-0.4495,-0.43,-0.4217,-0.4122,-0.3572,-0.3139,-0.2531,-0.2033,-0.1876,-0.1601,-0.1377,-0.1225,-0.1218,-0.1238,-0.1228,-0.1296,-0.1203,-0.0968,-0.0593,-0.0,-0.0,-0.0,-0.0,0.0366,0.0507,0.0868,0.1155,0.1132,0.1111,0.1091,0.1076,0.1143,0.121,0.1344,0.1614,0.1816,0.2085,0.2696,0.3063,0.3372,0.3707,0.4053,0.4395,0.4745,0.498,0.509,0.525,0.535,0.5444,0.5447,0.5355,0.5269,0.5249,0.5302,0.5425,0.5586,0.5773,0.6014,-1.8741,-1.8674,-1.8549,-1.8472,-1.8529,-1.8337,-1.8046,-1.7872,-1.7696,-1.751,-1.7235,-1.7097,-1.6881,-1.6603,-1.6473,-1.6342,-1.6132,-1.5895,-1.5323,-1.4412,-1.3439,-1.268,-1.2347,-1.2083,-1.1713,-1.1344,-1.096,-1.0556,-0.9968,-1.0214,-0.986,-0.9466,-0.9202,-0.9117,-0.8975,-0.8492,-0.8001,-0.7766,-0.7596,-0.7461,-0.7396,-0.7204,-0.7007,-0.6811,-0.6548,-0.6284,-0.6148,-0.5954,-0.5756,-0.5624,-0.5422,-0.5223,-0.509,-0.4957,-0.4824,-0.4691,-0.4561,-0.4428,-0.4231,-0.4108,-0.3862,-0.3303,-0.2865,-0.2339,-0.187,-0.1609,-0.1478,-0.1271,-0.1194,-0.1203,-0.124,-0.1241,-0.132,-0.1227,-0.1302,-0.0,-0.0,-0.0,-0.0,0.0527,0.0599,0.0749,0.0895,0.1189,0.1153,0.113,0.111,0.109,0.1076,0.121,0.1344,0.1614,0.1951,0.2287,0.2626,0.3014,0.3409,0.3704,0.406,0.4382,0.4699,0.4933,0.5184,0.5346,0.5482,0.5548,0.5567,0.5627,0.5549,0.5382,0.5473,0.5589,0.5741,0.5931,0.6147,-1.8664,-1.8482,-1.8317,-1.8317,-1.8267,-1.8076,-1.7852,-1.7619,-1.751,-1.7314,-1.7097,-1.6811,-1.6603,-1.6473,-1.6281,-1.6061,-1.5824,-1.5359,-1.4722,-1.4008,-1.3059,-1.2575,-1.2166,-1.1808,-1.1383,-1.1042,-1.0773,-1.0361,-0.9657,-0.9898,-0.9487,-0.9091,-0.8974,-0.8898,-0.9014,-0.8367,-0.7937,-0.7731,-0.7526,-0.7396,-0.7269,-0.7077,-0.6876,-0.6679,-0.6416,-0.6152,-0.5954,-0.5892,-0.5693,-0.5425,-0.5156,-0.5024,-0.5024,-0.4758,-0.4625,-0.4561,-0.4431,-0.4231,-0.403,-0.3894,-0.3502,-0.3046,-0.2614,-0.2161,-0.1755,-0.1558,-0.1505,-0.1163,-0.1166,-0.1181,-0.1209,-0.1233,-0.1237,-0.1167,-0.1162,-0.0,-0.0,-0.0,-0.0,0.0767,0.1087,0.1251,0.1241,0.1224,0.118,0.115,0.1129,0.1109,0.1092,0.1228,0.1372,0.1632,0.1975,0.2364,0.2715,0.3051,0.3445,0.3734,0.4048,0.4272,0.46,0.4812,0.5079,0.539,0.551,0.5473,0.5686,0.5915,0.5749,0.559,0.5696,0.5804,0.5949,0.6116,0.6287,-1.7999,-1.7372,-1.7451,-1.7271,-1.705,-1.7562,-1.7716,-1.751,-1.7254,-1.6968,-1.6751,-1.6473,-1.6281,-1.607,-1.5912,-1.5754,-1.5438,-1.5108,-1.4462,-1.3429,-1.2572,-1.1701,-1.1369,-1.1329,-1.0995,-1.0575,-1.0436,-1.036,-0.9894,-0.9873,-0.9679,-0.9321,-0.8727,-0.8567,-0.8372,-0.7942,-0.7727,-0.7596,-0.7526,-0.7391,-0.7199,-0.7007,-0.6745,-0.6548,-0.6218,-0.5954,-0.5752,-0.576,-0.5561,-0.5226,-0.4957,-0.4824,-0.4824,-0.4625,-0.4561,-0.4431,-0.4231,-0.3897,-0.356,-0.3224,-0.3021,-0.2696,-0.2304,-0.1847,-0.1502,-0.1298,-0.1249,-0.12,-0.1136,-0.1153,-0.1179,-0.0965,-0.0823,-0.0761,-0.0612,-0.0387,-0.0,-0.0,0.1094,0.1092,0.1335,0.1336,0.133,0.1243,0.1207,0.1176,0.1155,0.1144,0.1129,0.1274,0.1422,0.1677,0.2008,0.2393,0.2804,0.3122,0.3464,0.3785,0.3963,0.4109,0.4409,0.4689,0.5017,0.5347,0.5415,0.5421,0.5751,0.5949,0.581,0.5761,0.5801,0.5935,0.6067,0.6213,0.636,-1.7445,-1.6899,-1.6802,-1.6522,-1.627,-1.7007,-1.73,-1.7226,-1.6968,-1.6751,-1.6542,-1.6333,-1.6079,-1.5842,-1.559,-1.539,-1.499,-1.4514,-1.4098,-1.3078,-1.2336,-1.1881,-1.1476,-1.0996,-1.1012,-1.0554,-1.0465,-1.0359,-0.98,-0.984,-0.9496,-0.8961,-0.856,-0.8251,-0.8027,-0.7866,-0.7596,-0.7466,-0.733,-0.7204,-0.6942,-0.6749,-0.6552,-0.6288,-0.6024,-0.5822,-0.5686,-0.5557,-0.5428,-0.509,-0.4824,-0.4625,-0.4561,-0.4428,-0.4364,-0.4164,-0.383,-0.356,-0.3226,-0.2757,-0.2554,-0.2354,-0.1816,-0.1479,-0.1277,-0.1215,-0.1156,-0.11,-0.1106,-0.1124,-0.1072,-0.0791,-0.0663,-0.0601,-0.0076,0.0155,0.0468,0.1099,0.11,0.1179,0.1336,0.1336,0.1335,0.1327,0.1232,0.1206,0.1182,0.1172,0.1163,0.131,0.1457,0.1796,0.2052,0.2451,0.277,0.3103,0.3428,0.377,0.3893,0.4042,0.4222,0.4499,0.493,0.5286,0.534,0.5448,0.5768,0.5874,0.5851,0.5839,0.5916,0.6036,0.6119,0.6234,0.636,-1.6879,-1.6946,-1.6398,-1.61,-1.5983,-1.63,-1.6575,-1.6835,-1.6636,-1.6489,-1.6507,-1.6097,-1.5859,-1.5649,-1.5204,-1.4872,-1.4566,-1.3961,-1.351,-1.3091,-1.238,-1.2094,-1.1819,-1.1519,-1.0953,-1.0918,-1.0747,-1.0172,-0.9583,-0.95,-0.9067,-0.8469,-0.8123,-0.7991,-0.7873,-0.7721,-0.7527,-0.7404,-0.7218,-0.6951,-0.6679,-0.6486,-0.6284,-0.602,-0.5822,-0.569,-0.5624,-0.5627,-0.5432,-0.5093,-0.4619,-0.4558,-0.4428,-0.4228,-0.4095,-0.383,-0.3493,-0.3293,-0.3025,-0.2554,-0.2153,-0.195,-0.1546,-0.1344,-0.1277,-0.1143,-0.1149,-0.1083,-0.1088,-0.1032,-0.0976,-0.0933,-0.0811,-0.0225,0.0459,0.0774,0.1017,0.1179,0.11,0.11,0.1258,0.1335,0.1256,0.125,0.1238,0.1219,0.1195,0.1183,0.1176,0.1176,0.1471,0.1911,0.2175,0.2513,0.2839,0.3151,0.3472,0.3783,0.3876,0.4056,0.4217,0.4428,0.4772,0.5101,0.529,0.544,0.5681,0.584,0.5933,0.5994,0.6044,0.6195,0.6304,0.6291,0.6394,-1.6196,-1.5388,-1.5557,-1.5287,-1.4866,-1.5079,-1.5468,-1.5839,-1.5716,-1.5575,-1.5592,-1.552,-1.5384,-1.5117,-1.4772,-1.4486,-1.4014,-1.3502,-1.2972,-1.2523,-1.2065,-1.1451,-1.1048,-1.0855,-1.0442,-1.023,-1.0061,-0.9991,-0.9544,-0.9231,-0.8778,-0.8234,-0.8037,-0.7888,-0.776,-0.7578,-0.7453,-0.7297,-0.714,-0.6758,-0.6482,-0.6354,-0.6083,-0.5752,-0.5557,-0.5422,-0.5359,-0.5432,-0.5236,-0.4824,-0.4495,-0.4367,-0.4367,-0.4097,-0.3964,-0.3632,-0.3362,-0.3092,-0.2822,-0.2285,-0.1884,-0.1681,-0.1412,-0.121,-0.1143,-0.1143,-0.1076,-0.1078,-0.1078,-0.1092,-0.0966,-0.0848,-0.0729,-0.0298,0.038,0.077,0.1012,0.1258,0.1179,0.1179,0.1336,0.1331,0.1251,0.1242,0.123,0.1218,0.1207,0.1196,0.1193,0.1194,0.1496,0.1945,0.2234,0.251,0.2968,0.3351,0.3542,0.3799,0.3885,0.4046,0.4243,0.4469,0.4735,0.5017,0.5325,0.5454,0.5521,0.5655,0.5867,0.5965,0.6095,0.6264,0.6378,0.6394,0.6452,-1.559,-1.4935,-1.493,-1.4656,-1.4261,-1.4188,-1.4373,-1.4718,-1.4893,-1.5052,-1.5163,-1.5099,-1.4857,-1.4582,-1.4267,-1.3866,-1.34,-1.2897,-1.2424,-1.2136,-1.161,-1.1379,-1.0883,-1.0422,-1.0233,-0.9894,-0.9668,-0.961,-0.9311,-0.8901,-0.8405,-0.8017,-0.7954,-0.776,-0.7483,-0.7297,-0.7211,-0.7126,-0.6936,-0.6577,-0.635,-0.6152,-0.5818,-0.5488,-0.5292,-0.5093,-0.5027,-0.5169,-0.49,-0.4628,-0.4434,-0.4233,-0.4167,-0.3964,-0.3696,-0.3364,-0.3092,-0.2956,-0.2686,-0.2218,-0.1883,-0.1614,-0.1344,-0.1211,-0.1144,-0.1076,-0.1078,-0.1078,-0.108,-0.1017,-0.0822,-0.0694,-0.0645,-0.0591,-0.0,0.0534,0.0928,0.1254,0.1336,0.1336,0.1333,0.1326,0.1241,0.1232,0.1219,0.1202,0.1277,0.1359,0.1287,0.1298,0.1607,0.2072,0.2292,0.2579,0.3048,0.3499,0.3695,0.3868,0.3925,0.4094,0.4354,0.4475,0.47,0.5066,0.5464,0.5594,0.5589,0.5662,0.5741,0.593,0.6183,0.6358,0.6406,0.6443,0.6523,-1.5018,-1.4992,-1.4481,-1.4165,-1.395,-1.3657,-1.3545,-1.3527,-1.4183,-1.4695,-1.4833,-1.4695,-1.436,-1.4021,-1.3644,-1.3228,-1.2814,-1.2332,-1.2059,-1.192,-1.1489,-1.117,-1.087,-1.0642,-0.9934,-0.9779,-0.9536,-0.9091,-0.8938,-0.8544,-0.8072,-0.7671,-0.7466,-0.738,-0.7301,-0.7011,-0.6899,-0.6836,-0.6631,-0.628,-0.602,-0.5686,-0.5422,-0.5156,-0.496,-0.4761,-0.4761,-0.4761,-0.4697,-0.4564,-0.4431,-0.4233,-0.3964,-0.3696,-0.3429,-0.3226,-0.2956,-0.2755,-0.2554,-0.2151,-0.1883,-0.1614,-0.1412,-0.1284,-0.1152,-0.1078,-0.1078,-0.1018,-0.0954,-0.0753,-0.0553,-0.0347,-0.0213,-0.0,0.0523,0.0839,0.109,0.1335,0.1336,0.1336,0.1335,0.1328,0.1319,0.1311,0.1382,0.1349,0.1416,0.1511,0.1533,0.1472,0.1788,0.2184,0.2485,0.2852,0.3203,0.3674,0.3932,0.4019,0.4072,0.4219,0.4488,0.4577,0.4586,0.5072,0.5587,0.5731,0.5766,0.5755,0.582,0.6058,0.6251,0.6473,0.6508,0.6591,0.668,-1.4918,-1.4463,-1.4054,-1.3899,-1.383,-1.3476,-1.3354,-1.331,-1.3153,-1.3347,-1.3542,-1.3675,-1.3601,-1.3344,-1.3065,-1.2695,-1.2485,-1.1966,-1.1689,-1.1361,-1.1072,-1.069,-1.0204,-0.9807,-0.9384,-0.9029,-0.869,-0.8443,-0.8307,-0.7981,-0.7734,-0.7555,-0.7352,-0.7239,-0.6976,-0.6697,-0.6621,-0.6584,-0.6195,-0.6017,-0.5888,-0.5557,-0.5292,-0.509,-0.4821,-0.4694,-0.4628,-0.4498,-0.4434,-0.4367,-0.43,-0.4097,-0.3758,-0.3563,-0.3362,-0.3092,-0.2822,-0.2688,-0.2421,-0.2084,-0.1816,-0.1681,-0.1483,-0.1365,-0.1231,-0.1151,-0.1015,-0.089,-0.076,-0.0486,-0.021,-0.0,0.0282,0.0654,0.0969,0.1148,0.1254,0.1335,0.1336,0.1336,0.1336,0.133,0.1321,0.1392,0.1463,0.1528,0.1666,0.1751,0.1855,0.1877,0.2186,0.2582,0.282,0.3115,0.3478,0.3762,0.4018,0.4264,0.4327,0.448,0.4703,0.4909,0.5115,0.5331,0.5643,0.5798,0.5884,0.5884,0.603,0.6204,0.6412,0.6641,0.6884,0.6883,0.7029,-1.4893,-1.4369,-1.3881,-1.3649,-1.3536,-1.3241,-1.3058,-1.2936,-1.2621,-1.2476,-1.2569,-1.2879,-1.2917,-1.2778,-1.2508,-1.224,-1.203,-1.1648,-1.1213,-1.0814,-1.0491,-0.9996,-0.9472,-0.9087,-0.8846,-0.8501,-0.8177,-0.7932,-0.7792,-0.7601,-0.7414,-0.7283,-0.7189,-0.6989,-0.6688,-0.6572,-0.6451,-0.6288,-0.5752,-0.562,-0.5693,-0.5425,-0.516,-0.4957,-0.4758,-0.4561,-0.4431,-0.4367,-0.43,-0.41,-0.4033,-0.383,-0.356,-0.3429,-0.3295,-0.3092,-0.2889,-0.2621,-0.2354,-0.2153,-0.1883,-0.1748,-0.1616,-0.1429,-0.1119,-0.1044,-0.0991,-0.0787,-0.0432,-0.0145,0.0073,0.0292,0.0667,0.1061,0.0995,0.0932,0.1176,0.1335,0.1336,0.1336,0.1336,0.1335,0.1328,0.1327,0.1396,0.1533,0.1675,0.1921,0.2027,0.2199,0.2511,0.2824,0.3061,0.3295,0.3667,0.388,0.4013,0.4263,0.4574,0.4732,0.4884,0.5286,0.5619,0.5695,0.5782,0.5885,0.5969,0.5979,0.6183,0.6375,0.659,0.6896,0.7042,0.7167,0.7199,-1.4942,-1.4291,-1.3683,-1.3346,-1.3241,-1.2928,-1.2744,-1.2567,-1.2313,-1.2058,-1.1862,-1.2258,-1.2292,-1.2235,-1.2092,-1.1701,-1.1445,-1.1339,-1.0877,-1.0434,-1.011,-0.96,-0.9151,-0.8765,-0.8436,-0.8107,-0.7852,-0.7591,-0.74,-0.7204,-0.7007,-0.6815,-0.6745,-0.6609,-0.6478,-0.6346,-0.6079,-0.5951,-0.5686,-0.5425,-0.5292,-0.5156,-0.4957,-0.4758,-0.4628,-0.4498,-0.43,-0.4233,-0.4167,-0.403,-0.3828,-0.3629,-0.3429,-0.3295,-0.3228,-0.3025,-0.2956,-0.269,-0.2423,-0.2221,-0.2085,-0.1884,-0.1685,-0.1438,-0.1127,-0.1004,-0.0949,-0.0517,-0.0149,0.0149,0.0376,0.0677,0.1069,0.124,0.1012,0.0861,0.1099,0.1336,0.1336,0.1336,0.1336,0.1336,0.1335,0.1335,0.1481,0.1539,0.1771,0.2024,0.2198,0.2433,0.2746,0.2981,0.3139,0.3452,0.3763,0.391,0.4124,0.4306,0.4545,0.48,0.5067,0.5516,0.5744,0.5747,0.5841,0.6054,0.6067,0.6071,0.6291,0.6499,0.6754,0.7011,0.7084,0.7222,0.731,-1.441,-1.3631,-1.3277,-1.3103,-1.2989,-1.2752,-1.2629,-1.2498,-1.2003,-1.1685,-1.1582,-1.1409,-1.1403,-1.1459,-1.134,-1.1213,-1.1157,-1.1003,-1.0751,-1.0308,-0.9786,-0.9274,-0.8829,-0.8312,-0.7982,-0.7722,-0.7461,-0.7335,-0.7138,-0.6872,-0.6679,-0.6486,-0.635,-0.6214,-0.602,-0.5885,-0.5815,-0.5686,-0.5425,-0.5096,-0.516,-0.5024,-0.4758,-0.4558,-0.4495,-0.4298,-0.4167,-0.4233,-0.4167,-0.403,-0.3761,-0.356,-0.3362,-0.3228,-0.3159,-0.3092,-0.3023,-0.2824,-0.2555,-0.2354,-0.222,-0.2091,-0.1834,-0.1594,-0.1346,-0.115,-0.0878,-0.0299,0.015,0.0527,0.0754,0.0895,0.1202,0.1303,0.1162,0.1172,0.1257,0.1336,0.1336,0.1336,0.1336,0.1336,0.1415,0.1492,0.1727,0.1868,0.21,0.2276,0.2353,0.2589,0.2824,0.3061,0.3217,0.3528,0.3763,0.3999,0.4137,0.4404,0.4596,0.4938,0.5286,0.5644,0.5874,0.5989,0.6046,0.619,0.619,0.6152,0.6339,0.6538,0.6853,0.7099,0.718,0.7257,0.733]},{"header":{"parameterUnit":"m.s-1","parameterCategory":1,"la1":31.0,"la2":29.5877,"lo1":-88.7671,"lo2":-86.6584,"dy":0.0162,"dx":0.0185,"nx":115,"ny":88,"refTime":"2023-07-23T00:00:00:Z","depth":0,"parameterNumber":3,"parameterNumberName":"V-component_of_WINDS"},"data":[0.0,0.0,0.0,0.0,0.0,0.0,0.0,0.0,0.0,0.0,0.0,0.0,0.0,0.0,0.0,0.0,0.0,0.0,0.0,0.0,0.0,0.0,0.0,0.0,0.0,0.0,0.0,0.0,0.0,0.0,0.0,0.0,0.0,0.0,0.0,0.0,0.0,0.0,0.0,0.0,0.0,0.0,0.0,0.0,0.0,0.0,0.0,0.0,0.0,0.0,0.0,0.0,0.0,0.0,0.0,0.0,0.0,0.0,0.0,0.0,0.0,0.0,0.0,0.0,0.0,0.0,0.0,0.0,0.0,0.0,0.0,0.0,0.0,0.0,0.0,0.0,0.0,0.0,0.0,0.0,0.0,0.0,0.0,0.0,0.0,0.0,0.0,0.0,0.0,0.0,0.0,0.0,0.0,0.0,0.0,0.0,0.0,0.0,0.0,0.0,0.0,0.0,0.0,0.0,0.0,0.0,0.0,0.0,0.0,0.0,0.0,0.0,0.0,0.0,0.0,0.0,0.0,0.0,0.0,0.0,0.0,0.0,0.0,0.0,0.0,0.0,0.0,0.0,0.0,0.0,0.0,0.0,0.0,0.0,0.0,0.0,0.0,0.0,0.0,0.0,0.0,0.0,0.0,0.0,0.0,0.0,0.0,0.0,0.0,0.0,0.0,0.0,0.0,0.0,0.0,0.0,0.0,0.0,0.0,0.0,0.0,0.0,0.0,0.0,0.0,0.0,0.0,0.0,0.0,0.0,0.0,0.0,0.0,0.0,0.0,0.0,0.0,0.0,0.0,0.0,0.0,0.0,0.0,0.0,0.0,0.0,0.0,0.0,0.0,0.0,0.0,0.0,0.0,0.0,0.0,0.0,0.0,0.0,0.0,0.0,0.0,0.0,0.0,0.0,0.0,0.0,0.0,0.0,0.0,0.0,0.0,0.0,0.0,0.0,0.0,0.0,0.0,0.0,0.0,0.0,0.0,0.0,0.0,0.0,0.0,0.0,0.0,0.0,0.0,0.0,0.0,0.0,0.0,0.0,0.0,0.0,0.0,0.0,0.0,0.0,0.0,0.0,0.0,0.0,0.0,0.0,0.0,0.0,0.0,0.0,0.0,0.0,0.0,0.0,0.0,0.0,0.0,0.0,0.0,0.0,0.0,0.0,0.0,0.0,0.0,0.0,0.0,0.0,0.0,0.0,0.0,0.0,0.0,0.0,0.0,0.0,0.0,0.0,0.0,0.0,0.0,0.0,0.0,0.0,0.0,0.0,0.0,0.0,0.0,0.0,0.0,0.0,0.0,0.0,0.0,0.0,0.0,0.0,0.0,0.0,0.0,0.0,0.0,0.0,0.0,0.0,0.0,0.0,0.0,0.0,0.0,0.0,0.0,0.0,0.0,0.0,0.0,0.0,0.0,0.0,0.0,0.0,0.0,0.0,0.0,0.0,0.0,0.0,0.0,0.0,0.0,0.0,0.0,0.0,0.0,0.0,0.0,0.0,0.0,0.0,0.0,0.0,0.0,0.0,0.0,0.0,0.0,0.0,0.0,0.0,0.0,0.0,0.0,0.0,0.0,0.0,0.0,0.0,0.0,0.0,0.0,0.0,0.0,0.0,0.0,0.0,0.0,0.0,0.0,0.0,0.0,0.0,0.0,0.0,0.0,0.0,0.0,0.0,0.0,0.0,0.0,0.0,0.0,0.0,0.0,0.0,0.0,0.0,0.0,0.0,0.0,0.0,0.0,0.0,0.0,0.0,0.0,0.0,0.0,0.0,0.0,0.0,0.0,0.0,0.0,0.0,0.0,0.0,0.0,0.0,0.0,0.0,0.0,0.0,0.0,0.0,0.0,0.0,0.0,0.0,0.0,0.0,0.0,0.0,0.0,0.0,0.0,0.0,0.0,0.0,0.0,0.0,0.0,0.0,0.0,0.0,0.0,0.0,0.0,0.0,0.0,0.0,0.0,0.0,0.0,0.0,0.0,0.0,0.0,0.0,0.0,0.0,0.0,0.0,0.0,0.0,0.0,0.0,0.0,0.0,0.0,0.0,0.0,0.0,0.0,0.0,0.0,0.0,0.0,0.0,0.0,0.0,0.0,0.0,0.0,0.0,0.0,0.0,0.0,0.0,0.0,0.0,0.0,0.0,0.0,0.0,0.0,0.0,0.0,0.0,0.0,0.0,0.0,0.0,0.0,0.0,0.0,0.0,0.0,0.0,0.0,0.0,0.0,0.0,0.0,0.0,0.0,0.0,0.0,0.0,0.0,0.0,0.0,0.0,0.0,0.0,0.0,0.0,0.0,0.0,0.0,0.0,0.0,0.0,0.0,0.0,0.0,0.0,0.0,0.0,0.0,0.0,0.0,0.0,0.0,0.0,0.0,0.0,0.0,0.0,0.0,0.0,0.0,0.0,0.0,0.0,0.0,0.0,0.0,0.0,0.0,0.0,0.0,0.0,0.0,0.0,0.0,0.0,0.0,0.0,0.0,0.0,0.0,0.0,0.0,0.0,0.0,0.0,0.0,0.0,0.0,0.0,0.0,0.0,0.0,0.0,0.0,0.0,0.0,0.0,0.0,0.0,0.0,0.0,0.0,0.0,0.0,0.0,0.0,0.0,0.0,0.0,0.0,0.0,0.0,0.0,0.0,0.0,0.0,0.0,0.0,0.0,0.0,0.0,0.0,0.0,0.0,0.0,0.0,0.0,0.0,0.0,0.0,0.0,0.0,0.0,0.0,0.0,0.0,0.0,0.0,0.0,0.0,0.0,0.0,0.0,0.0,0.0,0.0,0.0,0.0,0.0,0.0,0.0,0.0,0.0,0.0,0.0,0.0,0.0,0.0,0.0,0.0,0.0,0.0,0.0,0.0,0.0,0.0,0.0,0.0,0.0,0.0,0.0,0.0,0.0,0.0,0.0,0.0,0.0,0.0,0.0,0.0,0.0,0.0,0.0,0.0,0.0,0.0,0.0,0.0,0.0,0.0,0.0,0.0,0.0,0.0,0.0,0.0,0.0,0.0,0.0,0.0,0.0,0.0,0.0,0.0,0.0,0.0,0.0,0.0,0.0,0.0,0.0,0.0,0.0,0.0,0.0,0.0,0.0,0.0,0.0,0.0,0.0,0.0,0.0,0.0,0.0,0.0,0.0,0.0,0.0,0.0,0.0,0.0,0.0,0.0,0.0,0.0,0.0,0.0,0.0,0.0,0.0,0.0,0.0,0.0,0.0,0.0,0.0,0.0,0.0,0.0,0.0,0.0,0.0,0.0,0.0,0.0,0.0,0.0,0.0,0.0,0.0,0.0,0.0,0.0,0.0,0.0,0.0,0.0,0.0,0.0,0.0,0.0,0.0,0.0,0.0,0.0,0.0,0.0,0.0,0.0,0.0,0.0,0.0,0.0,0.0,0.0,0.0,0.0,0.0,0.0,0.0,0.0,0.0,0.0,0.0,0.0,0.0,0.0,0.0,0.0,0.0,0.0,0.0,0.0,0.0,0.0,0.0,0.0,0.0,0.0,0.0,0.0,0.0,0.0,0.0,0.0,0.0,0.0,0.0,0.0,0.0,0.0,0.0,0.0,0.0,0.0,0.0,0.0,0.0,0.0,0.0,0.0,0.0,0.0,0.0,0.0,0.0,0.0,0.0,0.0,0.0,0.0,0.0,0.0,0.0,0.0,0.0,0.0,0.0,0.0,0.0,0.0,0.0,0.0,0.0,0.0,0.0,0.0,0.0,0.0,0.0,0.0,0.0,0.0,0.0,0.0,0.0,0.0,0.0,0.0,0.0,0.0,0.0,0.0,0.0,0.0,0.0,0.0,0.0,0.0,0.0,0.0,0.0,0.0,0.0,0.0,0.0,0.0,0.0,0.0,0.0,0.0,0.0,0.0,0.0,0.0,0.0,0.0,0.0,0.0,0.0,0.0,0.0,0.0,0.0,0.0,0.0,0.0,0.0,0.0,0.0,0.0,0.0,0.0,0.0,0.0,0.0,0.0,0.0,0.0,0.0,0.0,0.0,0.0,0.0,0.0,0.0,0.0,0.0,0.0,0.0,0.0,0.0,0.0,0.0,0.0,0.0,0.0,0.0,0.0,0.0,0.0,0.0,0.0,0.0,0.0,0.0,0.0,0.0,0.0,0.0,0.0,0.0,0.0,0.0,0.0,0.0,0.0,0.0,0.0,0.0,0.0,0.0,0.0,0.0,0.0,0.0,0.0,0.0,0.0,0.0,0.0,0.0,0.0,0.0,0.0,0.0,0.0,0.0,0.0,0.0,0.0,0.0,-0.4789,0.0,0.0,0.0,0.0,0.0,0.0,0.0,0.0,0.0,0.0,0.0,0.0,0.0,0.0,0.0,0.0,0.0,0.0,0.0,0.0,0.0,0.0,0.0,0.0,0.0,0.0,0.0,0.0,0.0,0.0,0.0,0.0,0.0,0.0,0.0,0.0,0.0,0.0,0.0,0.0,0.0,0.0,0.0,0.0,0.0,0.0,0.0,0.0,0.0,0.0,0.0,0.0,0.0,0.0,0.0,0.0,0.0,0.0,0.0,0.0,0.0,0.0,0.0,0.0,0.0,0.0,0.0,0.0,0.0,0.0,0.0,0.0,0.0,0.0,0.0,0.0,0.0,0.0,0.0,0.0,0.0,0.0,0.0,0.0,0.0,0.0,0.0,0.0,0.0,0.0,0.0,0.0,0.0,0.0,0.0,0.0,0.0,0.0,0.0,0.0,0.0,0.0,0.0,0.0,0.0,0.0,0.0,0.0,0.0,0.0,-0.7476,-0.669,-0.6259,-0.6057,-0.605,0.0,0.0,0.0,0.0,0.0,0.0,0.0,0.0,0.0,0.0,0.0,0.0,0.0,0.0,0.0,0.0,0.0,0.0,0.0,0.0,0.0,0.0,0.0,0.0,0.0,0.0,0.0,0.0,0.0,0.0,0.0,0.0,0.0,0.0,0.0,0.0,0.0,0.0,0.0,0.0,0.0,0.0,0.0,0.0,0.0,0.0,0.0,0.0,0.0,0.0,0.0,0.0,0.0,0.0,0.0,0.0,0.0,0.0,0.0,0.0,0.0,0.0,0.0,0.0,0.0,0.0,0.0,0.0,0.0,0.0,0.0,0.0,0.0,0.0,0.0,0.0,0.0,0.0,0.0,0.0,0.0,0.0,0.0,0.0,0.0,0.0,0.0,0.0,0.0,0.0,0.0,0.0,0.0,0.0,0.0,0.0,0.0,0.0,0.0,0.0,0.0,0.0,0.0,0.0,0.0,0.0,0.0,0.0,0.0,0.0,0.0,0.0,-0.7136,-0.7103,-0.7084,0.0,0.0,0.0,0.0,0.0,0.0,0.0,0.0,0.0,0.0,0.0,0.0,0.0,0.0,0.0,0.0,0.0,0.0,0.0,0.0,0.0,0.0,0.0,0.0,0.0,0.0,0.0,0.0,0.0,0.0,0.0,0.0,0.0,0.0,0.0,0.0,0.0,0.0,0.0,0.0,0.0,0.0,0.0,0.0,0.0,0.0,0.0,0.0,0.0,0.0,0.0,0.0,0.0,0.0,0.0,0.0,0.0,0.0,0.0,0.0,0.0,0.0,0.0,0.0,0.0,0.0,0.0,0.0,0.0,0.0,0.0,0.0,0.0,0.0,0.0,0.0,0.0,0.0,0.0,0.0,0.0,0.0,0.0,0.0,0.0,0.0,0.0,0.0,0.0,0.0,0.0,0.0,0.0,0.0,0.0,0.0,0.0,0.0,0.0,0.0,0.0,0.0,0.0,0.0,0.0,0.0,0.0,0.0,0.0,0.0,-0.7936,-0.7139,-0.716,0.0,-0.7098,0.0,0.0,0.0,0.0,0.0,0.0,0.0,0.0,0.0,0.0,0.0,0.0,0.0,0.0,0.0,0.0,0.0,0.0,0.0,0.0,0.0,0.0,0.0,0.0,0.0,0.0,0.0,0.0,0.0,0.0,0.0,0.0,0.0,0.0,0.0,0.0,0.0,0.0,0.0,0.0,0.0,0.0,0.0,0.0,0.0,0.0,0.0,0.0,0.0,0.0,0.0,0.0,0.0,0.0,0.0,0.0,0.0,0.0,0.0,0.0,0.0,0.0,0.0,0.0,0.0,0.0,0.0,0.0,0.0,0.0,0.0,0.0,0.0,0.0,0.0,0.0,0.0,0.0,0.0,0.0,0.0,0.0,0.0,0.0,0.0,0.0,0.0,0.0,0.0,0.0,0.0,0.0,0.0,0.0,0.0,0.0,0.0,0.0,0.0,0.0,0.0,0.0,0.0,0.0,0.0,0.0,0.0,0.0,0.0,0.0,-0.7744,-0.7928,-0.7916,-0.745,0.0,0.0,0.0,0.0,0.0,0.0,0.0,0.0,0.0,0.0,0.0,0.0,0.0,0.0,0.0,0.0,0.0,0.0,0.0,0.0,0.0,0.0,0.0,0.0,0.0,0.0,0.0,0.0,0.0,0.0,0.0,0.0,0.0,0.0,0.0,0.0,0.0,0.0,0.0,0.0,0.0,0.0,0.0,0.0,0.0,0.0,0.0,0.0,0.0,0.0,0.0,0.0,0.0,0.0,0.0,0.0,0.0,0.0,0.0,0.0,0.0,0.0,0.0,0.0,0.0,0.0,0.0,0.0,0.0,0.0,0.0,0.0,0.0,0.0,0.0,0.0,0.0,0.0,0.0,0.0,0.0,0.0,0.0,0.0,0.0,0.0,0.0,0.0,0.0,0.0,0.0,0.0,0.0,0.0,0.0,0.0,0.0,0.0,0.0,0.0,0.0,0.0,0.0,0.0,0.0,0.0,0.0,0.0,0.0,0.0,-0.7934,-0.8107,-0.8489,-0.8255,-0.7571,-0.6429,0.0,0.0,0.0,0.0,0.0,0.0,0.0,0.0,0.0,0.0,0.0,0.0,0.0,0.0,0.0,0.0,0.0,0.0,0.0,0.0,0.0,0.0,0.0,0.0,0.0,0.0,0.0,0.0,0.0,0.0,0.0,0.0,0.0,0.0,0.0,0.0,0.0,0.0,0.0,0.0,0.0,0.0,0.0,0.0,0.0,0.0,0.0,0.0,0.0,0.0,0.0,0.0,0.0,0.0,0.0,0.0,0.0,0.0,0.0,0.0,0.0,0.0,0.0,0.0,0.0,0.0,0.0,0.0,0.0,0.0,0.0,0.0,0.0,0.0,0.0,0.0,0.0,0.0,0.0,0.0,0.0,0.0,0.0,0.0,0.0,0.0,0.0,0.0,0.0,0.0,0.0,0.0,0.0,0.0,0.0,0.0,0.0,0.0,0.0,0.0,0.0,0.0,0.0,0.0,0.0,0.0,0.0,0.0,-0.9624,-0.9643,-0.9314,-0.8573,-0.785,-0.742,0.0,0.0,0.0,0.0,0.0,0.0,0.0,0.0,0.0,0.0,0.0,0.0,0.0,0.0,0.0,0.0,0.0,0.0,0.0,0.0,0.0,0.0,0.0,0.0,0.0,0.0,0.0,0.0,0.0,0.0,0.0,0.0,0.0,0.0,0.0,0.0,0.0,0.0,0.0,0.0,0.0,0.0,0.0,0.0,0.0,0.0,0.0,0.0,0.0,0.0,0.0,0.0,0.0,0.0,0.0,0.0,0.0,0.0,0.0,0.0,0.0,0.0,0.0,0.0,0.0,0.0,0.0,0.0,0.0,0.0,0.0,0.0,0.0,0.0,0.0,0.0,0.0,0.0,0.0,0.0,0.0,0.0,0.0,0.0,0.0,0.0,0.0,0.0,0.0,0.0,0.0,0.0,0.0,0.0,0.0,0.0,0.0,0.0,0.0,0.0,0.0,0.0,0.0,0.0,0.0,0.0,0.0,0.0,0.0,-0.8392,-0.8816,-0.844,-0.7139,-0.732,-0.6959,0.0,0.0,0.0,0.0,0.0,0.0,0.0,0.0,0.0,0.0,0.0,0.0,0.0,0.0,0.0,0.0,0.0,0.0,0.0,0.0,0.0,0.0,0.0,0.0,0.0,0.0,0.0,0.0,0.0,0.0,0.0,0.0,0.0,0.0,0.0,0.0,0.0,0.0,0.0,0.0,0.0,0.0,0.0,0.0,0.0,0.0,0.0,0.0,0.0,0.0,0.0,0.0,0.0,0.0,0.0,0.0,0.0,0.0,0.0,0.0,0.0,0.0,0.0,0.0,0.0,0.0,0.0,0.0,0.0,0.0,0.0,0.0,0.0,0.0,0.0,0.0,0.0,0.0,0.0,0.0,0.0,0.0,0.0,0.0,0.0,0.0,0.0,0.0,0.0,0.0,0.0,0.0,0.0,0.0,0.0,0.0,0.0,0.0,0.0,0.0,0.0,0.0,0.0,0.0,0.0,0.0,0.0,0.0,0.0,-0.8362,0.0,-0.8448,-0.7144,-0.7315,-0.6848,0.0,0.0,0.0,0.0,0.0,0.0,0.0,0.0,0.0,0.0,0.0,0.0,0.0,0.0,0.0,0.0,0.0,0.0,0.0,0.0,0.0,0.0,0.0,0.0,0.0,0.0,0.0,0.0,0.0,0.0,0.0,0.0,0.0,0.0,0.0,0.0,0.0,0.0,0.0,0.0,0.0,0.0,0.0,0.0,0.0,0.0,0.0,0.0,0.0,0.0,0.0,0.0,0.0,0.0,0.0,0.0,0.0,0.0,0.0,0.0,0.0,0.0,0.0,0.0,0.0,0.0,0.0,0.0,0.0,0.0,0.0,0.0,0.0,0.0,0.0,0.0,0.0,0.0,0.0,0.0,0.0,0.0,0.0,0.0,0.0,0.0,0.0,0.0,0.0,0.0,0.0,0.0,0.0,0.0,0.0,0.0,0.0,0.0,0.0,0.0,0.0,0.0,0.0,0.0,0.0,0.0,0.0,0.0,-0.9984,-0.9984,-0.9976,-0.9532,-0.8817,-0.7957,-0.7136,0.0,0.0,0.0,0.0,0.0,0.0,0.0,0.0,0.0,0.0,0.0,0.0,0.0,0.0,0.0,0.0,0.0,0.0,0.0,0.0,0.0,0.0,0.0,0.0,0.0,0.0,0.0,0.0,0.0,0.0,0.0,0.0,0.0,0.0,0.0,0.0,0.0,0.0,0.0,0.0,0.0,0.0,0.0,0.0,0.0,0.0,0.0,0.0,0.0,0.0,0.0,0.0,0.0,0.0,0.0,0.0,0.0,0.0,0.0,0.0,0.0,0.0,0.0,0.0,0.0,0.0,0.0,0.0,0.0,0.0,0.0,0.0,0.0,0.0,0.0,0.0,0.0,0.0,0.0,0.0,0.0,0.0,0.0,0.0,0.0,0.0,0.0,0.0,0.0,0.0,0.0,0.0,0.0,0.0,0.0,0.0,0.0,0.0,0.0,0.0,0.0,0.0,0.0,0.0,0.0,0.0,0.0,0.0,0.0,-1.0009,-1.0012,-0.9603,-0.8779,-0.8466,-0.7917,0.0,0.0,0.0,0.0,0.0,0.0,0.0,0.0,0.0,0.0,0.0,0.0,0.0,0.0,0.0,0.0,0.0,0.0,0.0,0.0,0.0,0.0,0.0,0.0,0.0,0.0,0.0,0.0,0.0,0.0,0.0,0.0,0.0,0.0,0.0,0.0,0.0,0.0,0.0,0.0,0.0,0.0,0.0,0.0,0.0,0.0,0.0,0.0,0.0,0.0,0.0,0.0,0.0,0.0,0.0,0.0,0.0,0.0,0.0,0.0,0.0,0.0,0.0,0.0,0.0,0.0,0.0,0.0,0.0,0.0,0.0,0.0,0.0,0.0,0.0,0.0,0.0,0.0,0.0,0.0,0.0,0.0,0.0,0.0,0.0,0.0,0.0,0.0,0.0,0.0,0.0,0.0,0.0,0.0,0.0,0.0,0.0,0.0,0.0,0.0,0.0,0.0,0.0,0.0,0.0,0.0,0.0,0.0,0.0,-1.0885,-1.0854,-1.0615,-1.0044,-0.9736,-0.905,-0.7974,0.0,0.0,0.0,0.0,0.0,0.0,0.0,0.0,0.0,0.0,0.0,0.0,0.0,0.0,0.0,0.0,0.0,0.0,0.0,0.0,0.0,0.0,0.0,0.0,0.0,0.0,0.0,0.0,0.0,0.0,0.0,0.0,0.0,0.0,0.0,0.0,0.0,0.0,0.0,0.0,0.0,0.0,0.0,0.0,0.0,0.0,0.0,0.0,0.0,0.0,0.0,0.0,0.0,0.0,0.0,0.0,0.0,0.0,0.0,0.0,0.0,0.0,0.0,0.0,0.0,0.0,0.0,0.0,0.0,0.0,0.0,0.0,0.0,0.0,0.0,0.0,0.0,0.0,0.0,0.0,0.0,0.0,0.0,0.0,0.0,0.0,0.0,0.0,0.0,0.0,0.0,0.0,0.0,0.0,0.0,0.0,0.0,0.0,0.0,0.0,0.0,0.0,0.0,0.0,0.0,0.0,0.0,0.0,-1.2522,-1.2626,-1.2643,-1.2376,-1.1532,-1.0407,0.0,0.0,0.0,0.0,0.0,0.0,0.0,0.0,0.0,0.0,0.0,0.0,0.0,0.0,0.0,0.0,0.0,0.0,0.0,0.0,0.0,0.0,0.0,0.0,0.0,0.0,0.0,0.0,0.0,0.0,0.0,0.0,0.0,0.0,0.0,0.0,0.0,0.0,0.0,0.0,0.0,0.0,0.0,0.0,0.0,0.0,0.0,0.0,0.0,0.0,0.0,0.0,0.0,0.0,0.0,0.0,0.0,0.0,0.0,0.0,0.0,0.0,0.0,0.0,0.0,0.0,0.0,0.0,0.0,0.0,0.0,0.0,0.0,0.0,0.0,0.0,0.0,0.0,0.0,0.0,0.0,0.0,0.0,0.0,0.0,0.0,0.0,0.0,0.0,0.0,0.0,0.0,0.0,0.0,0.0,0.0,0.0,0.0,0.0,0.0,0.0,0.0,0.0,0.0,0.0,0.0,0.0,0.0,0.0,-1.4918,-1.6571,-1.6337,-1.4009,-1.2613,-1.1702,0.0,0.0,0.0,0.0,0.0,0.0,0.0,0.0,0.0,0.0,0.0,0.0,0.0,0.0,0.0,0.0,0.0,0.0,0.0,0.0,0.0,0.0,0.0,0.0,0.0,0.0,0.0,0.0,0.0,0.0,0.0,0.0,0.0,0.0,0.0,0.0,0.0,0.0,0.0,0.0,0.0,0.0,0.0,0.0,0.0,0.0,0.0,0.0,0.0,0.0,0.0,0.0,0.0,0.0,0.0,0.0,0.0,0.0,0.0,0.0,0.0,0.0,0.0,0.0,0.0,0.0,0.0,0.0,0.0,0.0,0.0,0.0,0.0,0.0,0.0,0.0,0.0,0.0,0.0,0.0,0.0,0.0,0.0,0.0,0.0,0.0,0.0,0.0,0.0,0.0,0.0,0.0,0.0,0.0,0.0,0.0,0.0,0.0,0.0,0.0,0.0,0.0,0.0,0.0,0.0,0.0,0.0,0.0,-1.613,-1.6343,-1.9298,-1.9785,-1.754,-1.5042,-1.34,0.0,0.0,0.0,0.0,0.0,0.0,0.0,0.0,0.0,0.0,0.0,0.0,0.0,0.0,0.0,0.0,0.0,0.0,0.0,0.0,0.0,0.0,0.0,0.0,0.0,0.0,0.0,0.0,0.0,0.0,0.0,0.0,0.0,0.0,0.0,0.0,0.0,0.0,0.0,0.0,0.0,0.0,0.0,0.0,0.0,0.0,0.0,0.0,0.0,0.0,0.0,0.0,0.0,0.0,0.0,0.0,0.0,0.0,0.0,0.0,0.0,0.0,0.0,0.0,0.0,0.0,0.0,0.0,0.0,0.0,0.0,0.0,0.0,0.0,0.0,0.0,0.0,0.0,0.0,0.0,0.0,0.0,0.0,0.0,0.0,0.0,0.0,0.0,0.0,0.0,0.0,0.0,0.0,0.0,0.0,0.0,0.0,0.0,0.0,0.0,0.0,0.0,0.0,0.0,0.0,0.0,0.0,0.0,-1.87,-1.7477,-2.1136,-2.2703,-2.179,-1.7913,-1.5129,0.0,0.0,0.0,0.0,0.0,0.0,0.0,0.0,0.0,0.0,0.0,0.0,0.0,0.0,0.0,0.0,0.0,0.0,0.0,0.0,0.0,0.0,0.0,0.0,0.0,0.0,0.0,0.0,0.0,0.0,0.0,0.0,0.0,0.0,0.0,0.0,0.0,0.0,0.0,0.0,0.0,0.0,0.0,0.0,0.0,0.0,0.0,0.0,0.0,0.0,0.0,0.0,0.0,0.0,0.0,0.0,0.0,0.0,0.0,0.0,0.0,0.0,0.0,0.0,0.0,0.0,0.0,0.0,0.0,0.0,0.0,0.0,0.0,0.0,0.0,0.0,0.0,0.0,0.0,0.0,0.0,0.0,0.0,0.0,0.0,0.0,0.0,0.0,0.0,0.0,0.0,0.0,0.0,0.0,0.0,0.0,0.0,0.0,0.0,0.0,0.0,0.0,0.0,0.0,0.0,0.0,0.0,0.0,-1.8371,-1.9933,-2.2552,-2.3823,-2.3563,-1.8525,-1.5647,0.0,0.0,0.0,0.0,0.0,0.0,0.0,0.0,0.0,0.0,0.0,0.0,0.0,0.0,0.0,0.0,0.0,0.0,0.0,0.0,0.0,0.0,0.0,0.0,0.0,0.0,0.0,0.0,0.0,0.0,0.0,0.0,0.0,0.0,0.0,0.0,0.0,0.0,0.0,0.0,0.0,0.0,0.0,0.0,0.0,0.0,0.0,0.0,-1.2728,0.0,0.0,0.0,0.0,0.0,0.0,0.0,0.0,0.0,0.0,0.0,0.0,0.0,0.0,0.0,0.0,0.0,0.0,0.0,0.0,0.0,0.0,0.0,0.0,0.0,0.0,0.0,0.0,0.0,0.0,0.0,0.0,0.0,0.0,0.0,0.0,0.0,0.0,0.0,0.0,0.0,0.0,0.0,0.0,0.0,0.0,0.0,0.0,0.0,0.0,0.0,0.0,0.0,0.0,0.0,0.0,0.0,0.0,0.0,-1.9285,-2.1275,-2.3268,-2.4284,-2.4044,-2.0258,-1.7596,0.0,0.0,0.0,0.0,0.0,0.0,0.0,0.0,0.0,0.0,0.0,0.0,0.0,0.0,0.0,0.0,0.0,0.0,0.0,0.0,0.0,0.0,0.0,0.0,0.0,0.0,0.0,0.0,0.0,0.0,0.0,0.0,0.0,0.0,0.0,0.0,0.0,0.0,0.0,0.0,0.0,0.0,0.0,0.0,0.0,0.0,0.0,0.0,0.0,0.0,0.0,0.0,0.0,0.0,0.0,0.0,0.0,0.0,0.0,0.0,0.0,0.0,0.0,0.0,0.0,0.0,0.0,0.0,0.0,0.0,0.0,0.0,0.0,0.0,0.0,0.0,0.0,0.0,0.0,0.0,0.0,0.0,0.0,0.0,0.0,0.0,0.0,0.0,0.0,0.0,0.0,0.0,0.0,0.0,0.0,0.0,0.0,0.0,0.0,0.0,0.0,0.0,0.0,0.0,0.0,0.0,0.0,-1.8821,-2.0518,-2.2495,-2.3762,-2.4431,-2.445,-2.2078,-1.9606,-1.7114,0.0,0.0,0.0,0.0,0.0,0.0,0.0,0.0,0.0,0.0,0.0,0.0,0.0,0.0,0.0,0.0,0.0,0.0,0.0,0.0,0.0,0.0,0.0,0.0,0.0,0.0,0.0,0.0,0.0,0.0,0.0,0.0,0.0,0.0,0.0,0.0,0.0,0.0,-1.4082,-1.4841,0.0,0.0,0.0,0.0,0.0,0.0,0.0,0.0,-1.5347,0.0,0.0,0.0,0.0,0.0,0.0,0.0,0.0,0.0,0.0,0.0,0.0,0.0,0.0,0.0,0.0,0.0,0.0,0.0,0.0,0.0,0.0,0.0,0.0,0.0,0.0,0.0,0.0,0.0,0.0,0.0,0.0,0.0,0.0,0.0,0.0,0.0,0.0,0.0,0.0,0.0,0.0,0.0,0.0,0.0,0.0,0.0,0.0,0.0,0.0,0.0,0.0,0.0,0.0,0.0,0.0,-1.8237,-1.8558,-2.0728,-2.4856,-2.4616,-2.4672,-2.5189,-2.237,-1.9657,-1.7254,0.0,0.0,0.0,0.0,0.0,0.0,0.0,0.0,0.0,0.0,0.0,0.0,0.0,0.0,0.0,0.0,0.0,0.0,0.0,0.0,0.0,0.0,0.0,0.0,0.0,0.0,0.0,0.0,0.0,0.0,0.0,0.0,0.0,0.0,0.0,0.0,0.0,0.0,0.0,-1.5206,-1.5292,0.0,0.0,0.0,0.0,0.0,0.0,0.0,0.0,-1.5424,0.0,0.0,0.0,0.0,0.0,0.0,0.0,0.0,0.0,0.0,0.0,0.0,0.0,0.0,0.0,0.0,0.0,0.0,0.0,0.0,0.0,0.0,0.0,0.0,0.0,0.0,0.0,0.0,0.0,0.0,0.0,0.0,0.0,0.0,0.0,0.0,0.0,0.0,0.0,0.0,0.0,0.0,0.0,0.0,0.0,0.0,0.0,0.0,0.0,0.0,0.0,0.0,0.0,0.0,0.0,-1.9056,-1.9956,-2.1887,-2.4892,-2.4651,-2.4633,-2.4893,-2.2287,-1.9702,0.0,0.0,0.0,0.0,0.0,0.0,0.0,0.0,0.0,0.0,0.0,0.0,0.0,0.0,0.0,0.0,0.0,0.0,0.0,0.0,0.0,0.0,0.0,0.0,0.0,0.0,0.0,0.0,0.0,0.0,0.0,0.0,0.0,0.0,0.0,0.0,0.0,0.0,0.0,0.0,-1.5699,-1.5986,-1.5984,0.0,0.0,0.0,0.0,0.0,0.0,-1.5917,-1.5946,0.0,0.0,0.0,0.0,0.0,0.0,0.0,0.0,0.0,0.0,0.0,0.0,0.0,0.0,0.0,0.0,0.0,0.0,0.0,0.0,0.0,0.0,0.0,0.0,0.0,0.0,0.0,0.0,0.0,0.0,0.0,0.0,0.0,0.0,0.0,0.0,0.0,0.0,0.0,0.0,0.0,0.0,0.0,0.0,0.0,0.0,0.0,0.0,0.0,0.0,0.0,0.0,0.0,0.0,0.0,-1.9751,-2.1494,-2.3244,-2.4925,-2.4852,-2.4852,-2.4945,-2.1865,-1.9238,0.0,0.0,0.0,0.0,0.0,0.0,0.0,0.0,0.0,0.0,0.0,0.0,0.0,0.0,0.0,0.0,0.0,0.0,0.0,0.0,0.0,0.0,0.0,0.0,0.0,0.0,0.0,0.0,0.0,0.0,0.0,0.0,0.0,0.0,0.0,0.0,0.0,0.0,0.0,0.0,0.0,-1.6859,-1.6856,-1.6864,0.0,0.0,0.0,0.0,-1.5761,-1.6318,0.0,0.0,0.0,0.0,0.0,0.0,0.0,0.0,0.0,0.0,0.0,0.0,0.0,0.0,0.0,0.0,0.0,0.0,0.0,0.0,0.0,0.0,0.0,0.0,0.0,0.0,0.0,0.0,0.0,0.0,0.0,0.0,0.0,0.0,0.0,0.0,0.0,0.0,0.0,0.0,0.0,0.0,0.0,0.0,0.0,0.0,0.0,0.0,0.0,0.0,0.0,0.0,0.0,0.0,0.0,0.0,-1.9663,-2.2093,-2.446,-2.6617,-2.604,-2.6021,-2.6691,-2.084,-1.7517,0.0,0.0,0.0,0.0,0.0,0.0,0.0,0.0,0.0,0.0,0.0,0.0,0.0,0.0,0.0,0.0,0.0,0.0,0.0,0.0,0.0,0.0,0.0,0.0,0.0,0.0,0.0,0.0,0.0,0.0,0.0,0.0,0.0,0.0,0.0,0.0,0.0,0.0,0.0,0.0,0.0,-1.7746,-1.7741,-1.7762,-1.7485,0.0,0.0,-1.7466,-1.6904,-1.7277,0.0,0.0,0.0,0.0,0.0,0.0,0.0,0.0,0.0,0.0,0.0,0.0,0.0,0.0,0.0,0.0,0.0,0.0,0.0,0.0,0.0,0.0,0.0,0.0,0.0,0.0,0.0,0.0,0.0,0.0,0.0,0.0,0.0,0.0,0.0,0.0,0.0,0.0,0.0,0.0,0.0,0.0,0.0,0.0,0.0,0.0,0.0,0.0,0.0,0.0,0.0,0.0,0.0,0.0,0.0,-1.8331,-1.9782,-2.306,-2.5323,-2.6317,-2.6467,-2.6709,-2.7082,-2.1161,-1.7952,0.0,0.0,0.0,0.0,0.0,0.0,0.0,0.0,0.0,0.0,0.0,0.0,0.0,0.0,0.0,0.0,0.0,0.0,0.0,0.0,0.0,0.0,0.0,0.0,0.0,0.0,0.0,0.0,0.0,0.0,0.0,0.0,0.0,0.0,0.0,0.0,0.0,0.0,0.0,0.0,0.0,0.0,-1.8518,-1.858,0.0,0.0,0.0,-1.8761,-1.7272,0.0,0.0,0.0,0.0,0.0,0.0,0.0,0.0,0.0,0.0,0.0,0.0,0.0,0.0,0.0,0.0,0.0,0.0,0.0,0.0,0.0,0.0,0.0,0.0,0.0,0.0,0.0,0.0,0.0,0.0,0.0,0.0,0.0,0.0,0.0,0.0,0.0,0.0,0.0,0.0,0.0,0.0,0.0,0.0,0.0,0.0,0.0,0.0,0.0,0.0,0.0,0.0,0.0,0.0,0.0,0.0,0.0,-2.0055,-2.4036,-2.6222,-2.6464,-2.71,-2.7324,-2.7043,-2.2126,0.0,0.0,0.0,0.0,0.0,0.0,0.0,0.0,0.0,0.0,0.0,0.0,0.0,0.0,0.0,0.0,0.0,0.0,0.0,0.0,0.0,0.0,0.0,0.0,0.0,0.0,0.0,-0.5279,0.0,0.0,0.0,0.0,0.0,0.0,0.0,0.0,0.0,0.0,0.0,0.0,0.0,0.0,-1.9059,-1.9682,-1.9736,-1.9983,0.0,0.0,-2.0075,-1.8201,-2.0225,-2.1501,0.0,0.0,0.0,0.0,0.0,0.0,0.0,0.0,0.0,0.0,0.0,0.0,0.0,0.0,0.0,0.0,0.0,0.0,0.0,0.0,0.0,0.0,0.0,0.0,0.0,0.0,0.0,0.0,0.0,0.0,0.0,0.0,0.0,0.0,0.0,0.0,0.0,0.0,0.0,0.0,0.0,0.0,0.0,0.0,0.0,0.0,0.0,0.0,0.0,0.0,0.0,0.0,0.0,0.0,0.0,-2.0891,-2.4893,-2.7396,-2.8164,-2.8277,-2.794,-2.7186,-2.3772,-2.0521,0.0,0.0,0.0,0.0,0.0,0.0,0.0,0.0,0.0,0.0,0.0,0.0,0.0,0.0,0.0,0.0,0.0,0.0,0.0,0.0,0.0,0.0,0.0,0.0,0.0,0.0,0.0,0.0,0.0,0.0,0.0,0.0,0.0,0.0,0.0,0.0,0.0,0.0,0.0,0.0,0.0,-2.1454,-2.1522,-2.1517,-2.1546,0.0,0.0,-2.1265,-2.0328,-2.1649,-2.2791,-2.2705,0.0,0.0,0.0,0.0,0.0,0.0,0.0,0.0,0.0,0.0,0.0,0.0,0.0,0.0,0.0,0.0,0.0,0.0,0.0,0.0,0.0,0.0,0.0,0.0,0.0,0.0,0.0,0.0,0.0,0.0,0.0,0.0,0.0,0.0,0.0,0.0,0.0,0.0,0.0,0.0,0.0,0.0,0.0,0.0,0.0,0.0,0.0,0.0,0.0,0.0,0.0,0.0,0.0,-1.9657,-2.0858,-2.4984,-2.7509,-2.8388,-2.8932,-2.882,-2.7955,-2.4742,-2.1467,0.0,0.0,0.0,0.0,0.0,0.0,0.0,0.0,0.0,0.0,0.0,0.0,0.0,0.0,0.0,0.0,0.0,0.0,0.0,0.0,0.0,0.0,0.0,0.0,0.0,0.0,0.0,0.0,-0.8341,-0.8831,-0.917,0.0,0.0,0.0,0.0,0.0,0.0,0.0,0.0,0.0,0.0,-2.1323,-2.2366,-2.2477,0.0,0.0,-2.325,-2.2957,-2.2173,-2.2984,-2.3541,-2.3079,-2.158,0.0,0.0,0.0,0.0,0.0,0.0,0.0,0.0,0.0,0.0,0.0,0.0,0.0,0.0,0.0,0.0,0.0,0.0,0.0,0.0,0.0,0.0,0.0,0.0,0.0,0.0,0.0,0.0,0.0,0.0,0.0,0.0,0.0,0.0,0.0,0.0,0.0,0.0,0.0,0.0,0.0,0.0,0.0,0.0,0.0,0.0,0.0,0.0,0.0,0.0,0.0,0.0,-2.0292,-2.1183,-2.5325,-2.7866,-2.8745,-2.9364,-2.9288,-2.8369,-2.6185,-2.3343,0.0,0.0,0.0,0.0,0.0,0.0,0.0,0.0,0.0,0.0,0.0,0.0,0.0,0.0,0.0,0.0,0.0,0.0,0.0,0.0,0.0,0.0,0.0,0.0,0.0,0.0,0.0,0.0,-0.9378,-0.9903,-1.0155,0.0,0.0,0.0,0.0,0.0,0.0,0.0,0.0,0.0,0.0,-2.1942,-2.2879,-2.3209,-2.3591,-2.4135,-2.4225,-2.4141,-2.3867,-2.4276,-2.4426,-2.3872,0.0,0.0,0.0,0.0,0.0,0.0,0.0,0.0,0.0,0.0,0.0,0.0,0.0,0.0,0.0,0.0,0.0,0.0,0.0,0.0,0.0,0.0,0.0,0.0,0.0,0.0,0.0,0.0,0.0,0.0,-0.8437,0.0,0.0,0.0,0.0,0.0,0.0,0.0,0.0,0.0,0.0,0.0,0.0,0.0,0.0,0.0,0.0,0.0,0.0,0.0,0.0,0.0,0.0,-2.1102,-2.202,-2.6114,-2.869,-2.9532,-2.9664,-2.927,-2.8426,-2.8366,-2.6424,-2.2294,0.0,0.0,0.0,0.0,0.0,0.0,0.0,0.0,0.0,0.0,0.0,0.0,0.0,0.0,0.0,0.0,0.0,0.0,0.0,0.0,0.0,0.0,0.0,0.0,0.0,0.0,-0.8934,-0.8837,-0.9266,0.0,0.0,0.0,0.0,0.0,0.0,0.0,0.0,0.0,0.0,-2.2524,-2.3806,-2.31,-2.3727,-2.4251,-2.4232,-2.4282,-2.458,-2.5302,-2.5485,-2.5576,0.0,0.0,0.0,0.0,0.0,0.0,0.0,0.0,0.0,0.0,0.0,0.0,0.0,0.0,0.0,0.0,0.0,0.0,0.0,0.0,0.0,0.0,0.0,0.0,0.0,0.0,0.0,-1.0493,-1.0385,0.0,0.0,0.0,0.0,0.0,0.0,0.0,0.0,0.0,0.0,0.0,-1.6319,-1.7116,0.0,0.0,0.0,0.0,0.0,0.0,0.0,0.0,0.0,0.0,0.0,0.0,-2.1832,-2.2912,-2.6432,-2.8727,-2.957,-2.9664,-2.9288,-2.8444,-2.8406,-2.6495,-2.2432,0.0,0.0,0.0,0.0,0.0,0.0,0.0,0.0,0.0,0.0,0.0,0.0,0.0,0.0,0.0,0.0,0.0,0.0,0.0,0.0,0.0,0.0,0.0,0.0,0.0,-1.066,0.0,0.0,0.0,0.0,0.0,0.0,0.0,0.0,0.0,0.0,0.0,-2.0347,-2.1216,-2.2036,-2.2646,-2.2957,-2.3727,-2.4478,0.0,0.0,0.0,0.0,0.0,0.0,0.0,0.0,0.0,0.0,0.0,0.0,0.0,0.0,-2.1918,-1.8104,-1.7539,-1.7734,-1.7964,0.0,0.0,0.0,0.0,0.0,0.0,0.0,0.0,0.0,0.0,0.0,0.0,0.0,0.0,-1.2757,0.0,-1.234,0.0,0.0,0.0,0.0,0.0,0.0,0.0,0.0,-1.7256,-1.8603,-1.9196,-1.998,-2.0127,0.0,-2.0281,-1.9129,0.0,0.0,0.0,0.0,0.0,0.0,0.0,0.0,-2.2481,-2.325,-2.6786,-2.8969,-2.9551,-2.9626,-2.9401,-2.8857,-2.8557,-2.6892,-2.3717,-2.1028,-1.8448,0.0,0.0,0.0,0.0,0.0,0.0,0.0,0.0,0.0,0.0,0.0,0.0,0.0,0.0,0.0,0.0,0.0,0.0,0.0,0.0,0.0,0.0,0.0,-1.1596,0.0,0.0,0.0,0.0,0.0,0.0,0.0,0.0,0.0,-1.8213,-1.9798,-2.1194,-2.2108,-2.2685,-2.2912,-2.2583,0.0,0.0,0.0,0.0,0.0,0.0,0.0,-2.5321,-2.5618,-2.5493,-2.5414,-2.5675,-2.5707,-2.5694,-2.5697,0.0,0.0,-2.0323,-1.9917,-2.0173,-1.9844,-2.1639,-2.3121,-2.2497,-2.279,-2.2907,0.0,0.0,0.0,0.0,0.0,0.0,0.0,0.0,-1.6528,-1.5485,0.0,-1.5141,0.0,0.0,0.0,0.0,0.0,-1.6079,0.0,0.0,-2.226,-2.3791,-2.2521,-2.3187,-2.3629,-2.3678,-2.2262,-2.1544,-2.1472,-2.1641,0.0,0.0,0.0,0.0,0.0,0.0,-2.3052,-2.329,-2.7286,-2.9414,-2.9492,-2.9569,-2.9626,-2.9645,-2.8894,-2.7735,-2.6191,-2.4476,-2.2472,-2.0047,-1.7621,0.0,0.0,0.0,0.0,0.0,0.0,0.0,0.0,0.0,0.0,0.0,0.0,0.0,0.0,0.0,0.0,0.0,0.0,0.0,0.0,-1.1455,0.0,0.0,0.0,0.0,0.0,0.0,0.0,0.0,0.0,0.0,-1.914,-2.0636,-2.2011,-2.2837,0.0,0.0,0.0,0.0,-2.5874,-2.3556,-2.4591,-2.5718,-2.5737,-2.6398,-2.7375,-2.8716,0.0,0.0,-2.8357,-2.6922,-2.5954,-2.5899,-2.6676,-2.652,-2.4578,-2.371,-2.3326,-2.3466,-2.6,-2.7596,-2.6247,-2.5744,-2.5549,-1.8936,0.0,0.0,0.0,0.0,-1.6152,-1.7033,-1.854,-1.8532,-1.8079,-1.7402,-1.7725,0.0,0.0,0.0,0.0,0.0,0.0,-1.9289,-2.1479,-2.3117,-2.42,-2.4938,-2.5224,-2.5402,-2.547,-2.571,-2.5808,-2.5827,-2.652,-2.4158,-1.902,0.0,0.0,0.0,0.0,-2.4411,-2.578,-2.816,-2.9433,-2.9492,-2.9569,-2.9626,-2.9701,-2.9457,-2.8821,-2.7774,-2.6787,-2.4846,-2.1771,-2.1001,0.0,0.0,0.0,0.0,0.0,0.0,0.0,0.0,0.0,0.0,0.0,0.0,0.0,0.0,0.0,0.0,0.0,0.0,0.0,-1.3137,-1.2589,-1.2267,0.0,0.0,0.0,0.0,0.0,0.0,0.0,0.0,0.0,-2.1181,-2.1417,-2.174,0.0,0.0,-2.2533,-2.1803,-2.4128,-2.5881,-2.5738,-2.6651,0.0,0.0,-2.7874,-2.8087,-2.8871,-2.9277,-2.9426,-2.918,-2.925,-2.9335,-2.9335,-2.9526,-2.951,-2.8945,-2.7741,-2.7259,-2.8359,-2.9435,-2.9647,-2.8476,-2.8303,-2.8069,-2.1169,-1.9563,-1.8791,-1.8553,-1.8736,-1.8639,-1.9515,-2.1038,-2.0933,-2.045,-1.9731,-2.0484,-1.9427,-1.7079,-1.7432,0.0,0.0,0.0,-2.1864,-2.464,-2.4855,-2.5631,-2.6864,-2.7,-2.7073,-2.7115,-2.7749,-2.8057,-2.808,-2.7981,-2.591,-2.2059,0.0,0.0,-2.177,-2.4315,-2.6142,-2.7237,-2.8975,-2.9915,-2.9975,-2.9737,-2.9626,-2.9701,-2.9701,-2.9289,-2.8446,-2.8347,-2.6908,-2.3959,-2.3547,-2.1568,0.0,0.0,0.0,0.0,0.0,0.0,0.0,0.0,0.0,0.0,0.0,-1.4303,0.0,0.0,0.0,0.0,-1.3702,-1.438,-1.3863,-1.3413,0.0,0.0,0.0,0.0,0.0,0.0,0.0,-1.7377,-2.0319,-2.2631,-2.2852,-2.3419,-2.3792,-2.3728,-2.4025,-2.4006,-2.3346,0.0,-2.7051,-2.687,-2.7569,-2.8133,-2.8262,-2.8515,-2.8916,-2.9557,-3.0139,-3.0482,-3.0559,-3.1258,-3.1675,-3.1422,-3.1308,-3.1214,-3.0863,-2.9949,-2.9545,-3.0565,-3.0801,-3.0548,-2.9884,-2.9943,-2.9786,-2.3238,-2.3088,-2.1079,-2.0971,-2.2045,-2.1698,-2.2442,-2.3803,-2.3427,-2.2475,-2.1406,-2.3134,-2.2332,-1.9634,-2.0476,0.0,-2.3372,-2.3436,-2.4764,-2.7067,-2.7161,-2.7582,-2.8282,-2.844,-2.851,-2.8492,-2.8662,-2.8718,-2.8713,-2.7245,-2.6522,-2.6575,-2.6582,-2.5716,-2.4224,-2.6502,-2.784,-2.8003,-2.9635,-3.0522,-3.0698,-3.0054,-2.9701,-2.9701,-2.9701,-2.9326,-2.8559,-2.927,-2.8647,-2.6415,-2.5589,-2.4054,-2.149,0.0,0.0,0.0,0.0,0.0,0.0,0.0,0.0,0.0,0.0,0.0,0.0,0.0,0.0,0.0,-1.4206,0.0,-1.4616,-1.4538,0.0,0.0,0.0,-1.895,-2.135,-2.2491,-2.3077,-2.3011,0.0,0.0,-2.4524,-2.6207,-2.7245,-2.712,-2.7646,-2.7459,-2.6004,-2.786,-2.8953,-2.7673,-2.8061,-2.8314,-2.8081,-2.8981,-3.0114,-3.0853,-3.1565,-3.206,-3.2172,-3.274,-3.2986,-3.2361,-3.2154,-3.1884,-3.1084,-3.0953,-3.0958,-3.1153,-3.0958,-3.0782,-3.0723,-3.0723,-3.0684,-2.5821,-2.5258,-2.5,-2.4156,-2.3007,-2.2993,-2.3273,-2.3684,-2.3605,-2.3535,-2.3502,-2.4083,-2.411,-2.368,-2.3962,-2.4679,-2.5715,-2.587,-2.6597,-2.7733,-2.7959,-2.813,-2.83,-2.8458,-2.851,-2.8492,-2.8644,-2.8737,-2.8785,-2.845,-2.7921,-2.7292,-2.7273,-2.6468,-2.4932,-2.6053,-2.7368,-2.8754,-2.9167,-2.9798,-3.0686,-3.0597,-3.0263,-2.972,-2.9701,-2.9608,-2.9401,-2.9625,-2.9226,-2.8022,-2.8407,-2.698,-2.322,-2.2256,0.0,0.0,0.0,0.0,0.0,0.0,0.0,0.0,0.0,-1.6051,-1.3973,0.0,-1.6029,0.0,-1.6746,-1.931,-2.0636,-2.0167,0.0,0.0,-2.0597,-2.1089,-2.2367,-2.4435,-2.5522,-2.4866,-2.5829,-2.7215,-2.8883,-2.8368,-2.8365,-2.9547,-2.8216,-2.7187,-2.7484,-2.9147,-3.0494,-3.0676,-3.1324,-3.1525,-3.0263,-3.1292,-3.2414,-3.2655,-3.2867,-3.301,-3.3091,-3.3246,-3.3334,-3.308,-3.2533,-3.2165,-3.2146,-3.2168,-3.2502,-3.3107,-3.207,-3.0801,-3.0801,-3.0821,-3.0801,-2.6915,-2.6519,-2.6462,-2.576,-2.4717,-2.4554,-2.4522,-2.4606,-2.4443,-2.4497,-2.4743,-2.5077,-2.5571,-2.615,-2.6237,-2.6568,-2.7029,-2.7243,-2.7586,-2.8025,-2.8208,-2.829,-2.8264,-2.8432,-2.8466,-2.8458,-2.8569,-2.8712,-2.8785,-2.8834,-2.8785,-2.8712,-2.9059,-2.8596,-2.7318,-2.6939,-2.7318,-2.8315,-2.915,-3.0132,-3.119,-3.0932,-3.0224,-2.9139,-2.8689,-2.8147,-2.7417,-2.7397,-2.7039,-2.6284,-2.6707,-2.5605,-2.2671,-2.179,-2.0144,0.0,0.0,0.0,0.0,0.0,0.0,0.0,0.0,0.0,0.0,0.0,-1.8869,-1.7766,-2.0224,-2.2137,-2.2782,-2.2404,-2.2412,-2.3168,-2.3584,-2.4306,-2.555,-2.7305,-2.8241,-2.7786,-2.8567,-2.9513,-3.0458,-2.9823,-2.9586,-3.0564,-2.9446,-2.8715,-2.9213,-3.0132,-3.0987,-3.1802,-3.2392,-3.2594,-3.1875,-3.3308,-3.41,-3.3193,-3.3439,-3.3848,-3.3778,-3.4218,-3.4443,-3.4039,-3.3573,-3.3166,-3.3016,-3.2973,-3.3146,-3.3231,-3.2723,-3.2038,-3.1955,-3.1953,-3.1895,-2.7359,-2.7286,-2.678,-2.6559,-2.6438,-2.6005,-2.5859,-2.5896,-2.5452,-2.538,-2.5563,-2.5999,-2.664,-2.7434,-2.7526,-2.76,-2.7672,-2.7889,-2.8023,-2.8099,-2.8235,-2.8316,-2.837,-2.8442,-2.8513,-2.8568,-2.859,-2.8717,-2.8931,-2.8974,-2.9314,-3.002,-3.0827,-3.0698,-2.9653,-2.8232,-2.758,-2.7652,-2.9512,-3.089,-3.1766,-3.074,-2.9453,-2.8017,-2.7121,-2.5984,-2.459,-2.4445,-2.4145,-2.3584,-2.3512,-2.3011,-2.1941,-2.0313,-1.9442,0.0,-1.7309,0.0,0.0,0.0,0.0,0.0,0.0,0.0,0.0,-2.1212,-2.2074,-2.3032,-2.4069,-2.4382,-2.3683,-2.3732,-2.4394,-2.5884,-2.6754,-2.7815,-2.9282,-3.0162,-3.0607,-3.0607,-3.0615,-3.0613,-3.0621,-3.0661,-3.0703,-3.0688,-3.0605,-3.0477,-3.0671,-3.0923,-3.1487,-3.2186,-3.2419,-3.306,-3.3612,-3.4865,-3.5171,-3.3497,-3.3803,-3.45,-3.4218,-3.501,-3.5529,-3.4859,-3.461,-3.4417,-3.3822,-3.3682,-3.3485,-3.3335,-3.3551,-3.3665,-3.3465,-3.3305,-3.3285,-2.85,-2.7977,-2.811,-2.7469,-2.6367,-2.6464,-2.6265,-2.5877,-2.5803,-2.5919,-2.6217,-2.6471,-2.6771,-2.7087,-2.7359,-2.7448,-2.7557,-2.7794,-2.7941,-2.8014,-2.8091,-2.8503,-2.9119,-2.8649,-2.8766,-2.9323,-2.8861,-2.9032,-2.9776,-2.9776,-2.9503,-2.9028,-2.9849,-2.9446,-2.7911,0.0,0.0,0.0,-3.0362,-3.1177,-3.072,-2.8537,-2.6984,-2.6135,-2.5318,0.0,-2.4534,-2.4549,-2.4524,-2.4367,-2.4467,0.0,0.0,0.0,0.0,0.0,0.0,0.0,0.0,0.0,0.0,0.0,-2.182,-2.1759,-2.2258,-2.2455,-2.3212,-2.4819,-2.7574,-2.8973,-2.8162,-2.8704,-2.9245,-2.9563,-2.9757,-3.0007,-3.0335,-3.0518,-3.0615,-3.0613,-3.0621,-3.061,-3.0665,-3.07,-3.0715,-3.0703,-3.071,-3.069,-3.069,-3.1797,-3.3021,-3.3876,-3.44,-3.5041,-3.529,-3.5631,-3.5749,-3.5263,-3.4767,-3.4535,-3.4281,-3.4612,-3.4973,-3.4725,-3.4693,-3.4927,-3.5335,-3.4954,-3.4627,-3.5212,-3.5407,-3.523,-3.4331,-3.3745,-3.3508,-2.9053,0.0,-2.8574,-2.8126,0.0,-2.6936,-2.6756,-2.6857,-2.6188,-2.6082,-2.6418,-2.6624,-2.6808,-2.7007,-2.7279,-2.7434,-2.7496,-2.7794,-2.7924,-2.8014,-2.8479,-2.8927,-2.9405,-2.9528,-2.9808,-3.0186,-2.9909,-3.0041,-3.0527,-3.0571,-3.0578,-3.0604,-3.1057,-3.083,-2.9963,-3.0385,-3.0435,-3.0051,-3.1066,-3.1848,-3.2265,-3.0739,-2.9105,-2.7587,0.0,0.0,0.0,0.0,0.0,0.0,0.0,0.0,0.0,0.0,0.0,-2.5452,-2.4377,-2.3885,-2.429,-2.4385,-2.4796,-2.5657,-2.6136,-2.5904,-2.4784,-2.5889,-2.7015,-2.7883,-2.9602,-3.0424,-3.0017,-3.0346,-3.0617,-3.0617,-3.0607,-3.0606,-3.0615,-3.0615,-3.0604,-3.0613,-3.0602,-3.0629,-3.0692,-3.0707,-3.0703,-3.071,-3.069,-3.0697,-3.0775,-3.1436,-3.2419,-3.3716,-3.503,-3.5807,-3.5838,-3.5872,-3.5879,-3.582,-3.5533,-3.4881,-3.3965,-3.4654,-3.5324,-3.5349,-3.5352,-3.5508,-3.5818,-3.5613,-3.5484,-3.5877,-3.6015,-3.5859,-3.5234,-3.4902,-3.4764,-2.9229,-2.9425,-2.8862,-2.867,-2.867,-2.7574,-2.7381,-2.7843,0.0,0.0,0.0,-2.6556,-2.6759,-2.6942,-2.7215,-2.7404,-2.7496,-2.7905,-2.8135,-2.8234,-2.9066,-2.9597,-2.9833,-3.0478,-3.0876,-3.1013,-3.0992,-3.1084,-3.1311,-3.1364,-3.1772,-3.2446,-3.269,-3.2742,-3.2614,-3.2576,-3.2262,-3.1666,-3.1593,-3.231,-3.3724,-3.2803,-3.1315,-2.9283,-2.8333,-2.6842,-2.4813,-2.4518,-2.4479,-2.4584,-2.461,-2.4807,-2.5123,-2.5216,-2.5389,-2.5683,-2.5172,-2.5468,-2.6885,-2.7026,-2.7675,-2.9117,-2.9932,-2.952,-2.744,-2.9332,-3.0617,-3.0617,-3.0617,-3.0617,-3.0617,-3.0617,-3.0656,-3.0791,-3.0674,-3.0653,-3.0789,-3.0662,-3.0613,-3.0621,-3.0629,-3.0645,-3.07,-3.0695,-3.069,-3.069,-3.0697,-3.0704,-3.073,-3.0944,-3.178,-3.3439,-3.4929,-3.5842,-3.5878,-3.5891,-3.5897,-3.5879,-3.5752,-3.5162,-3.4228,-3.4778,-3.5656,-3.5625,-3.586,-3.5977,-3.5994,-3.596,-3.6005,-3.6015,-3.6015,-3.6015,-3.6015,-3.5996,-3.5937,-2.9167,-2.935,-2.9345,-2.9061,-2.8605,-2.8565,-2.8314,-2.7938,-2.7235,-2.6673,-2.6239,-2.645,-2.6572,-2.6674,-2.707,-2.7293,-2.7456,-2.8338,-2.8833,-2.8995,-2.9796,-3.0597,-3.1332,-3.0939,-3.1088,-3.175,-3.1207,-3.1337,-3.2074,-3.2192,-3.2319,-3.2582,-3.324,-3.3293,-3.2614,-3.206,-3.2035,-3.257,-3.1961,-3.1727,-3.1945,-2.9791,-2.8519,-2.8192,-2.684,-2.5857,-2.5538,-2.492,-2.4526,-2.4601,-2.4652,-2.5351,-2.682,-2.699,-2.7721,-2.9182,-2.9265,-2.9346,-2.9617,-2.9669,-2.9784,-3.0008,-3.0216,-3.021,-3.0086,-3.0376,-3.0617,-3.0617,-3.0617,-3.0617,-3.0617,-3.0617,-3.0849,-3.141,-3.0984,-3.0887,-3.1505,-3.1019,-3.0629,-3.0692,-3.0676,-3.0683,-3.0703,-3.071,-3.069,-3.0697,-3.0808,-3.0756,-3.0892,-3.1358,-3.2506,-3.405,-3.5236,-3.5827,-3.5885,-3.5897,-3.5903,-3.5883,-3.5373,-3.4905,-3.4378,-3.4688,-3.5087,-3.4956,-3.5561,-3.5948,-3.6018,-3.6009,-3.6015,-3.6015,-3.6014,-3.601,-3.6003,-3.6007,-3.601,-2.9167,-2.9305,-2.9457,-2.9406,-2.9198,-2.9334,-2.8851,-2.8027,-2.7705,-2.7295,-2.6866,-2.7344,-2.7439,-2.7246,-2.7913,-2.8372,-2.8603,-2.9169,-2.9484,-2.9766,-3.0564,-3.119,-3.1644,-3.1857,-3.2181,-3.2577,-3.2342,-3.243,-3.2871,-3.3002,-3.3086,-3.3113,-3.3166,-3.3183,-3.3201,-3.2576,-3.2428,-3.2779,-3.2519,-3.2562,-3.2974,-3.1964,-3.1247,-3.0844,-3.0143,-2.94,-2.8559,-2.8164,-2.7769,-2.7375,-2.7409,-2.7853,-2.8655,-2.8771,-2.919,-3.003,-3.0079,-3.0123,-3.0185,-3.0204,-3.0213,-3.024,-3.0279,-3.0367,-3.053,-3.0559,-3.0569,-3.0598,-3.0617,-3.0617,-3.0617,-3.0617,-3.0752,-3.1101,-3.08,-3.0761,-3.1069,-3.0864,-3.0657,-3.0673,-3.0707,-3.0695,-3.0707,-3.0703,-3.0697,-3.075,-3.106,-3.1429,-3.1454,-3.2186,-3.2984,-3.3835,-3.5009,-3.578,-3.5889,-3.5928,-3.5947,-3.5947,-3.5666,-3.5381,-3.5235,-3.5345,-3.5363,-3.5409,-3.5762,-3.5975,-3.6015,-3.6015,-3.6013,-3.6009,-3.6007,-3.6018,-3.6016,-3.6018,-3.6021,-2.9167,-2.9305,-2.9412,-2.9547,-2.9681,-2.983,-2.9355,-2.8534,-2.8502,-2.8227,-2.7843,-2.8139,-2.8139,-2.8037,-2.874,-2.9211,-2.9574,-2.9907,-3.0173,-3.0451,-3.1326,-3.1809,-3.192,-3.2648,-3.3011,-3.3104,-3.3214,-3.3322,-3.3411,-3.352,-3.3633,-3.357,-3.2947,-3.2926,-3.3513,-3.287,-3.2539,-3.2521,-3.2659,-3.3101,-3.3881,-3.4037,-3.3919,-3.3527,-3.3393,-3.2705,-3.1278,-3.1017,-3.0546,-2.9774,-2.9789,-2.9842,-2.9895,-2.9959,-3.0022,-3.0102,-3.0094,-3.0142,-3.0185,-3.0204,-3.0232,-3.0266,-3.0299,-3.0362,-3.0466,-3.0469,-3.05,-3.0588,-3.0617,-3.0617,-3.0617,-3.0617,-3.0675,-3.081,-3.0703,-3.072,-3.0864,-3.0746,-3.0637,-3.07,-3.0707,-3.0707,-3.0707,-3.0703,-3.0704,-3.0833,-3.1357,-3.1757,-3.1899,-3.2552,-3.3039,-3.3312,-3.4247,-3.5154,-3.5476,-3.5256,-3.5271,-3.5563,-3.5641,-3.565,-3.5764,-3.5966,-3.5993,-3.5937,-3.597,-3.6021,-3.6016,-3.6021,-3.6003,-3.6016,-3.6013,-3.6013,-3.601,-3.601,-3.6016,-2.9059,-2.9305,-2.9305,-2.9457,-2.9742,-2.983,-2.9876,-2.9943,-2.9976,-2.9708,-2.9102,-2.8023,-2.8022,-2.8659,-2.896,-2.9208,-2.9471,-3.0369,-3.0853,-3.1042,-3.1996,-3.255,-3.2631,-3.2816,-3.2979,-3.3086,-3.3117,-3.3226,-3.3393,-3.352,-3.3661,-3.3688,-3.2999,-3.2669,-3.2669,-3.2097,-3.1745,-3.1727,-3.1848,-3.2302,-3.3069,-3.3239,-3.3601,-3.4255,-3.3693,-3.2968,-3.1917,-3.1337,-3.0584,-2.9793,-2.9841,-2.9891,-2.9912,-2.9959,-3.0038,-3.0087,-3.0094,-3.0142,-3.0204,-3.0204,-3.0218,-3.0218,-3.0272,-3.0337,-3.041,-3.0406,-3.046,-3.0559,-3.0617,-3.0617,-3.0617,-3.0617,-3.0849,-3.1371,-3.0974,-3.0895,-3.1437,-3.1133,-3.07,-3.07,-3.0695,-3.071,-3.071,-3.0704,-3.073,-3.0773,-3.1173,-3.132,-3.1286,-3.2051,-3.2606,-3.245,-3.2698,-3.3458,-3.4365,-3.3653,-3.3838,-3.4627,-3.4852,-3.5197,-3.5715,-3.6015,-3.6018,-3.6007,-3.6005,-3.6003,-3.6016,-3.6013,-3.6013,-3.6013,-3.601,-3.601,-3.6004,-3.6004,-3.601,-2.9059,-2.9213,-2.9366,-2.9608,-2.983,-2.9858,-2.9962,-3.0027,-2.9688,-2.9683,-2.9865,-2.8986,-2.8821,-2.9276,-2.9866,-3.0243,-3.0523,-3.1016,-3.1317,-3.1514,-3.2109,-3.2422,-3.2506,-3.2755,-3.2916,-3.3042,-3.3042,-3.3152,-3.3352,-3.3538,-3.3661,-3.3707,-3.3431,-3.3311,-3.3275,-3.311,-3.2576,-3.1653,-3.1714,-3.1745,-3.1656,-3.2173,-3.2649,-3.2892,-3.2756,-3.2255,-3.1485,-3.1091,-3.0584,-2.9829,-2.982,-2.9851,-2.991,-3.0007,-3.0087,-3.0102,-3.0147,-3.0171,-3.0204,-3.0204,-3.0204,-3.0204,-3.0232,-3.0286,-3.04,-3.0367,-3.0417,-3.0579,-3.0617,-3.0617,-3.0598,-3.0616,-3.0761,-3.0993,-3.0778,-3.0776,-3.1103,-3.0925,-3.07,-3.0695,-3.0697,-3.0704,-3.0698,-3.0716,-3.0778,-3.0964,-3.1554,-3.1992,-3.1763,-3.2723,-3.3546,-3.3501,-3.2911,-3.2931,-3.407,-3.4183,-3.3893,-3.3971,-3.4378,-3.4995,-3.5741,-3.6015,-3.6003,-3.6013,-3.6018,-3.6021,-3.6013,-3.6007,-3.6007,-3.6007,-3.6004,-3.602,-3.6013,-3.6013,-3.5997,-2.9075,-2.9137,-2.9382,-2.9637,-2.983,-2.9874,-2.9962,-2.9968,-2.9573,-2.9781,-3.0335,-2.9906,-2.9755,-2.9959,-3.0597,-3.1055,-3.1291,-3.1423,-3.1576,-3.1783,-3.2037,-3.2249,-3.2335,-3.259,-3.282,-3.2965,-3.2979,-3.3122,-3.3322,-3.3481,-3.3605,-3.3698,-3.3753,-3.3762,-3.3807,-3.3921,-3.3197,-3.1763,-3.1714,-3.1299,-3.0525,-3.0963,-3.1528,-3.1939,-3.206,-3.1728,-3.0959,-3.0919,-3.0565,-2.9847,-2.9817,-2.9851,-2.9888,-3.0007,-3.0087,-3.0102,-3.0176,-3.0204,-3.0204,-3.0204,-3.0204,-3.0218,-3.0218,-3.0259,-3.0349,-3.0355,-3.0414,-3.0579,-3.0607,-3.0616,-3.0598,-3.0606,-3.0615,-3.0615,-3.0621,-3.0645,-3.0719,-3.0715,-3.0703,-3.0704,-3.0698,-3.0704,-3.0736,-3.0778,-3.0852,-3.13,-3.1973,-3.282,-3.2513,-3.3102,-3.3535,-3.3918,-3.3025,-3.3103,-3.4027,-3.3827,-3.3717,-3.3706,-3.3945,-3.4993,-3.5779,-3.5962,-3.6003,-3.6004,-3.6007,-3.6004,-3.6004,-3.6017,-3.5997,-3.5981,-3.5978,-3.5986,-3.5962,-3.5981,-3.5953,-2.8967,-2.9121,-2.9382,-2.9592,-2.9726,-2.9858,-2.9946,-3.0017,-3.0081,-3.0241,-3.0417,-3.0418,-3.0502,-3.0592,-3.0797,-3.0992,-3.119,-3.1385,-3.1538,-3.1617,-3.1929,-3.2196,-3.2388,-3.2557,-3.2705,-3.2884,-3.2948,-3.3104,-3.3364,-3.3462,-3.3577,-3.3698,-3.3698,-3.3753,-3.3807,-3.3887,-3.3128,-3.1782,-3.1668,-3.0999,-2.9709,-2.9583,-3.0445,-3.1715,-3.2021,-3.1594,-3.0977,-3.0938,-3.0602,-2.9846,-2.9874,-2.9907,-2.9924,-2.9972,-3.0038,-3.0098,-3.0157,-3.0204,-3.0204,-3.0204,-3.0218,-3.0213,-3.0213,-3.0266,-3.0402,-3.0518,-3.0563,-3.0588,-3.0692,-3.072,-3.0616,-3.0615,-3.0604,-3.0604,-3.0657,-3.0707,-3.071,-3.0775,-3.0717,-3.0769,-3.0911,-3.0981,-3.0881,-3.0794,-3.131,-3.1685,-3.1495,-3.1562,-3.2639,-3.2062,-3.1835,-3.2407,-3.2879,-3.3539,-3.405,-3.3834,-3.3023,-3.3223,-3.435,-3.4998,-3.5561,-3.6004,-3.602,-3.6017,-3.6013,-3.6009,-3.6009,-3.6005,-3.5986,-3.5962,-3.5953,-3.5943,-3.5929,-3.5899,-3.5894,-2.9183,-2.9366,-2.9563,-2.9697,-2.983,-2.9858,-2.9946,-3.0,-3.0162,-3.0274,-3.0417,-3.0485,-3.0609,-3.0831,-3.0871,-3.0952,-3.1112,-3.123,-3.1308,-3.1368,-3.1634,-3.1856,-3.2018,-3.2336,-3.2557,-3.2705,-3.282,-3.2979,-3.3226,-3.3415,-3.3577,-3.3661,-3.3726,-3.378,-3.3788,-3.3887,-3.3128,-3.1782,-3.1668,-3.0958,-2.9537,-2.9431,-2.977,-3.0333,-3.0487,-3.0433,-3.0152,-3.0152,-3.0039,-2.9808,-2.9857,-2.9907,-2.9924,-3.0007,-3.0087,-3.0098,-3.0157,-3.0204,-3.0204,-3.0204,-3.0218,-3.0218,-3.0213,-3.0266,-3.0513,-3.1022,-3.1251,-3.0858,-3.1312,-3.1398,-3.0768,-3.0621,-3.0676,-3.0684,-3.0688,-3.0703,-3.0814,-3.1177,-3.1521,-3.1605,-3.1974,-3.2205,-3.1851,-3.2114,-3.2571,-3.2825,-3.2639,-3.253,-3.24,-3.1936,-3.1845,-3.2475,-3.2326,-3.2627,-3.525,-3.4528,-3.3965,-3.4428,-3.5096,-3.5266,-3.5689,-3.5935,-3.599,-3.599,-3.6005,-3.6001,-3.6001,-3.5958,-3.5958,-3.5924,-3.5914,-3.5908,-3.5894,-3.5889,-3.5889,-2.9275,-2.9518,-2.9653,-2.9786,-2.9918,-2.9918,-2.9946,-3.0017,-3.0146,-3.0274,-3.0417,-3.0485,-3.0651,-3.0871,-3.0912,-3.0952,-3.1072,-3.1151,-3.123,-3.1252,-3.1466,-3.1634,-3.1837,-3.2196,-3.2439,-3.259,-3.277,-3.2979,-3.3117,-3.3386,-3.3549,-3.3605,-3.346,-3.3368,-3.3421,-3.3482,-3.276,-3.156,-3.1538,-3.0958,-2.9593,-2.9431,-2.9453,-2.955,-2.9645,-2.9701,-2.9701,-2.972,-2.9926,-3.0185,-3.0273,-3.0438,-3.0682,-3.082,-3.0655,-3.0213,-3.0443,-3.0491,-3.0242,-3.0218,-3.0199,-3.0251,-3.0259,-3.0292,-3.0487,-3.1449,-3.1514,-3.1158,-3.2027,-3.2393,-3.1452,-3.136,-3.1328,-3.0882,-3.0703,-3.0704,-3.073,-3.1216,-3.152,-3.1643,-3.2224,-3.2649,-3.284,-3.3137,-3.3457,-3.3735,-3.3411,-3.2833,-3.2918,-3.214,-3.1987,-3.2695,-3.2041,-3.2399,-3.3789,-3.3769,-3.439,-3.5001,-3.5188,-3.5415,-3.5483,-3.5732,-3.5845,-3.5903,-3.5958,-3.5977,-3.5953,-3.5909,-3.5904,-3.5889,-3.5903,-3.5897,-3.5883,-3.5889,-3.5883,-2.9412,-2.9518,-2.9637,-2.977,-2.9874,-2.9918,-2.993,-3.0017,-3.0146,-3.029,-3.0417,-3.0485,-3.0651,-3.0871,-3.0912,-3.0992,-3.1151,-3.119,-3.1213,-3.1274,-3.1423,-3.1614,-3.1783,-3.2144,-3.2404,-3.2557,-3.2898,-3.3104,-3.3117,-3.3345,-3.3491,-3.3431,-3.2885,-3.2655,-3.2651,-3.2672,-3.1968,-3.0969,-3.1224,-3.0847,-2.9615,-2.9453,-2.9531,-2.9588,-2.9683,-2.9701,-2.9701,-2.9757,-3.0151,-3.0827,-3.1012,-3.152,-3.197,-3.2131,-3.1724,-3.0674,-3.1058,-3.1083,-3.0447,-3.0347,-3.0393,-3.0439,-3.0375,-3.0496,-3.0794,-3.1664,-3.1939,-3.1428,-3.2626,-3.3447,-3.2349,-3.2559,-3.245,-3.1076,-3.0865,-3.0853,-3.0736,-3.0792,-3.0847,-3.1125,-3.1953,-3.2762,-3.3648,-3.393,-3.4031,-3.4308,-3.3555,-3.2957,-3.3721,-3.2553,-3.1602,-3.1916,-3.2063,-3.2421,-3.2635,-3.2901,-3.4178,-3.522,-3.5298,-3.5389,-3.5186,-3.5256,-3.5169,-3.5208,-3.5456,-3.5495,-3.5612,-3.5607,-3.5875,-3.5883,-3.5891,-3.5885,-3.5885,-3.5891,-3.5891,-2.9502,-2.9653,-2.9786,-2.9874,-2.9902,-2.993,-3.0033,-3.0146,-3.0274,-3.0401,-3.0485,-3.0485,-3.0609,-3.0733,-3.0871,-3.0952,-3.1072,-3.1151,-3.119,-3.1252,-3.144,-3.1538,-3.1651,-3.2037,-3.2456,-3.2755,-3.2993,-3.3165,-3.3244,-3.3433,-3.3577,-3.3459,-3.2866,-3.2606,-3.261,-3.2139,-3.1365,-3.0627,-3.0746,-3.0364,-2.9485,-2.9472,-2.9531,-2.9607,-2.9664,-2.9701,-2.9701,-2.9757,-2.9942,-3.0313,-3.0309,-3.072,-3.1396,-3.1105,-3.1156,-3.1835,-3.247,-3.2611,-3.1981,-3.1341,-3.1052,-3.1162,-3.1219,-3.1291,-3.1553,-3.2772,-3.318,-3.2568,-3.3602,-3.3929,-3.318,-3.3091,-3.2788,-3.1705,-3.1591,-3.1281,-3.0866,-3.1259,-3.1743,-3.2085,-3.3112,-3.394,-3.4281,-3.4519,-3.5096,-3.5334,-3.4482,-3.4039,-3.3649,-3.3161,-3.2343,-3.2248,-3.228,-3.2285,-3.2576,-3.2508,-3.2885,-3.391,-3.4316,-3.4737,-3.4651,-3.4584,-3.4501,-3.453,-3.4803,-3.5051,-3.5148,-3.546,-3.5772,-3.5897,-3.5885,-3.5898,-3.5892,-3.5892,-3.5866,-2.9707,-3.0019,-2.9927,-3.0036,-3.0214,-3.012,-3.0076,-3.0205,-3.0333,-3.0443,-3.0485,-3.0468,-3.0609,-3.0773,-3.0871,-3.0952,-3.1055,-3.1151,-3.119,-3.123,-3.1402,-3.1517,-3.1614,-3.2073,-3.2523,-3.2884,-3.3055,-3.3165,-3.3274,-3.319,-3.3267,-3.3414,-3.2326,-3.1861,-3.2121,-3.1489,-3.0748,-3.0191,-3.0361,-3.0185,-2.956,-2.9472,-2.9531,-2.9607,-2.9683,-2.972,-2.9738,-2.9793,-2.996,-3.0332,-3.0629,-3.1153,-3.1637,-3.1502,-3.1673,-3.2425,-3.308,-3.3242,-3.2688,-3.1585,-3.1238,-3.1495,-3.166,-3.1892,-3.2375,-3.3643,-3.3994,-3.3468,-3.4281,-3.4531,-3.3577,-3.365,-3.3223,-3.2116,-3.1981,-3.1625,-3.1034,-3.1246,-3.1593,-3.1934,-3.284,-3.3906,-3.4858,-3.5018,-3.5708,-3.575,-3.5249,-3.4608,-3.3964,-3.3612,-3.2988,-3.2448,-3.2184,-3.2324,-3.2654,-3.2313,-3.1728,-3.2326,-3.2982,-3.352,-3.3799,-3.3814,-3.377,-3.3799,-3.3988,-3.445,-3.4645,-3.5435,-3.5889,-3.5891,-3.5885,-3.5852,-3.5838,-3.5857,-3.583,-2.998,-3.0647,-3.017,-3.0328,-3.0765,-3.0363,-3.0185,-3.0189,-3.0375,-3.0443,-3.0485,-3.0468,-3.0651,-3.0814,-3.0871,-3.0992,-3.1151,-3.119,-3.119,-3.1269,-3.1402,-3.1593,-3.1765,-3.2249,-3.2657,-3.2979,-3.3073,-3.3165,-3.3286,-3.2889,-3.2793,-3.335,-3.1623,-3.0681,-3.1335,-3.0761,-3.0035,-2.9638,-3.0108,-3.006,-2.9431,-2.9472,-2.955,-2.9607,-2.9683,-2.9738,-2.9754,-2.9827,-3.0166,-3.0958,-3.1481,-3.1889,-3.2393,-3.2944,-3.2604,-3.2768,-3.3211,-3.2993,-3.2435,-3.1651,-3.1168,-3.1904,-3.2115,-3.2174,-3.3106,-3.3991,-3.4313,-3.3604,-3.4669,-3.4947,-3.3798,-3.3852,-3.3529,-3.2338,-3.1884,-3.1473,-3.093,-3.0862,-3.0979,-3.1057,-3.167,-3.2842,-3.4872,-3.4755,-3.5246,-3.5503,-3.5232,-3.4942,-3.4552,-3.4025,-3.3224,-3.2766,-3.248,-3.203,-3.2258,-3.178,-3.1253,-3.1473,-3.1995,-3.2357,-3.2757,-3.2791,-3.2747,-3.2834,-3.3256,-3.3718,-3.436,-3.5112,-3.5716,-3.5866,-3.5845,-3.5815,-3.571,-3.5613,-3.5585,-3.0376,-3.1544,-3.0943,-3.0749,-3.0895,-3.0924,-3.062,-3.0264,-3.0401,-3.0468,-3.0468,-3.0468,-3.0609,-3.0733,-3.0871,-3.0952,-3.1072,-3.1151,-3.1213,-3.1291,-3.144,-3.1746,-3.2073,-3.2387,-3.2722,-3.3042,-3.3104,-3.3196,-3.3364,-3.3201,-3.3304,-3.3514,-3.1931,-3.1195,-3.1365,-3.0268,-2.9539,-2.9402,-2.9558,-2.9692,-2.9547,-2.9531,-2.9607,-2.9664,-2.9701,-2.9718,-2.9735,-2.9825,-2.9952,-3.0194,-3.0452,-3.0972,-3.1511,-3.1324,-3.1987,-3.3519,-3.2393,-3.1761,-3.2502,-3.2396,-3.2576,-3.3319,-3.339,-3.3743,-3.4,-3.4845,-3.4875,-3.4434,-3.4664,-3.4478,-3.3587,-3.3478,-3.3044,-3.2238,-3.1548,-3.1091,-3.0871,-3.0786,-3.0782,-3.0886,-3.157,-3.2173,-3.2572,-3.3766,-3.4683,-3.5037,-3.5337,-3.5402,-3.5009,-3.5047,-3.4519,-3.3553,-3.2968,-3.2143,-3.1567,-3.1126,-3.0852,-3.091,-3.1115,-3.1247,-3.1476,-3.1495,-3.1407,-3.1337,-3.2305,-3.2902,-3.3822,-3.4685,-3.5152,-3.541,-3.5446,-3.5236,-3.518,-3.5113,-3.5124,-3.0443,-3.182,-3.0865,-3.0875,-3.1359,-3.1001,-3.0806,-3.0744,-3.0558,-3.0468,-3.051,-3.0568,-3.0651,-3.079,-3.0912,-3.0992,-3.1095,-3.1173,-3.1291,-3.1351,-3.1634,-3.1948,-3.2266,-3.2472,-3.2755,-3.3055,-3.3165,-3.3274,-3.3339,-3.3229,-3.3249,-3.3286,-3.2166,-3.152,-3.15,-3.0442,-2.9601,-2.9444,-2.9392,-2.9433,-2.9531,-2.9588,-2.9645,-2.9682,-2.9699,-2.9735,-2.9787,-2.9907,-2.9978,-2.9978,-3.0029,-3.0247,-3.0666,-3.0365,-3.1047,-3.2993,-3.1862,-3.191,-3.2557,-3.2878,-3.3294,-3.3936,-3.4263,-3.4515,-3.4853,-3.5427,-3.5417,-3.515,-3.5049,-3.4443,-3.3446,-3.272,-3.2083,-3.1544,-3.109,-3.0786,-3.079,-3.0794,-3.0794,-3.0927,-3.1188,-3.1438,-3.0916,-3.2851,-3.4042,-3.4764,-3.5511,-3.5519,-3.5427,-3.5737,-3.5602,-3.4413,-3.3411,-3.2602,-3.1714,-3.1152,-3.0832,-3.0828,-3.0784,-3.0778,-3.0778,-3.0778,-3.0787,-3.0989,-3.1586,-3.2247,-3.3142,-3.3796,-3.3937,-3.4156,-3.4431,-3.4473,-3.4281,-3.4602,-3.4613,-3.0427,-3.1709,-3.0509,-3.0807,-3.1743,-3.0849,-3.0734,-3.116,-3.0733,-3.051,-3.0568,-3.0651,-3.0773,-3.0912,-3.0992,-3.1072,-3.119,-3.1252,-3.1312,-3.1487,-3.1802,-3.2179,-3.2335,-3.2573,-3.2802,-3.3086,-3.3214,-3.3322,-3.3332,-3.2865,-3.2912,-3.2967,-3.2063,-3.1507,-3.1191,-3.0594,-3.0033,-2.9522,-2.9433,-2.9491,-2.9588,-2.9626,-2.9664,-2.9681,-2.9735,-2.9805,-2.9907,-3.0007,-3.0076,-2.9997,-2.9991,-3.0083,-3.0138,-3.0094,-3.0242,-3.0624,-3.1588,-3.2346,-3.3077,-3.3192,-3.3384,-3.4193,-3.4487,-3.4739,-3.5386,-3.565,-3.562,-3.5371,-3.5562,-3.4418,-3.3005,-3.1646,-3.1105,-3.0942,-3.084,-3.0807,-3.0785,-3.0801,-3.0801,-3.0801,-3.0827,-3.0855,-3.1267,-3.2207,-3.3576,-3.4203,-3.5009,-3.5469,-3.5586,-3.5879,-3.5545,-3.4736,-3.3844,-3.3054,-3.2147,-3.1258,-3.0984,-3.0808,-3.0755,-3.073,-3.0736,-3.073,-3.071,-3.0912,-3.1262,-3.1721,-3.2336,-3.2718,-3.28,-3.2862,-3.3117,-3.3031,-3.2984,-3.375,-3.4051,-3.058,-3.1884,-3.1164,-3.0998,-3.1316,-3.1216,-3.0925,-3.0665,-3.0584,-3.0568,-3.0651,-3.0692,-3.0814,-3.0975,-3.1015,-3.1055,-3.123,-3.1291,-3.1389,-3.1579,-3.1912,-3.2214,-3.2456,-3.2722,-3.293,-3.3104,-3.3232,-3.3352,-3.3372,-3.3276,-3.3104,-3.2637,-3.199,-3.1212,-3.0655,-3.0139,-2.9556,-2.9412,-2.9491,-2.955,-2.9608,-2.9645,-2.9681,-2.9717,-2.9805,-2.9888,-2.9972,-3.0053,-3.0087,-3.0068,-3.0064,-3.0071,-3.0114,-3.0152,-3.0171,-3.0308,-3.063,-3.2039,-3.4019,-3.3718,-3.3615,-3.4924,-3.5179,-3.5411,-3.56,-3.5747,-3.548,-3.4948,-3.4231,-3.3453,-3.1963,-3.1157,-3.0837,-3.0785,-3.0794,-3.0799,-3.0796,-3.0796,-3.0796,-3.0816,-3.0855,-3.0877,-3.0919,-3.1738,-3.2795,-3.36,-3.4432,-3.5209,-3.5538,-3.5776,-3.5417,-3.4722,-3.4147,-3.3454,-3.3329,-3.2201,-3.1162,-3.0951,-3.0847,-3.0711,-3.0691,-3.0711,-3.0704,-3.0723,-3.0814,-3.1312,-3.1875,-3.1739,-3.1875,-3.1837,-3.1842,-3.1872,-3.2143,-3.2899,-3.3393,-3.0432,-3.1396,-3.0851,-3.0887,-3.1204,-3.1057,-3.0945,-3.0889,-3.06,-3.0526,-3.0651,-3.0733,-3.0855,-3.0935,-3.1055,-3.1134,-3.1235,-3.1389,-3.1579,-3.1839,-3.2144,-3.2405,-3.2674,-3.2934,-3.3122,-3.3214,-3.3322,-3.3393,-3.3437,-3.3213,-3.2821,-3.2543,-3.1881,-3.1186,-3.0572,-3.0071,-2.982,-2.9509,-2.9531,-2.9626,-2.9645,-2.9681,-2.9735,-2.9806,-2.9891,-2.9972,-3.0038,-3.0083,-3.0113,-3.0128,-3.0142,-3.0138,-3.0147,-3.0185,-3.0199,-3.024,-3.0343,-3.1476,-3.3244,-3.3987,-3.4147,-3.5379,-3.5593,-3.5678,-3.5718,-3.5793,-3.5652,-3.5242,-3.4743,-3.388,-3.2201,-3.1071,-3.0908,-3.0794,-3.0796,-3.0801,-3.0801,-3.0801,-3.0821,-3.0841,-3.0877,-3.0905,-3.1142,-3.1608,-3.21,-3.2944,-3.414,-3.4849,-3.4498,-3.4734,-3.5062,-3.468,-3.4238,-3.3973,-3.4237,-3.3278,-3.1456,-3.1158,-3.1034,-3.0833,-3.0697,-3.0697,-3.071,-3.0749,-3.0826,-3.104,-3.1448,-3.1215,-3.1103,-3.1111,-3.1136,-3.1041,-3.1177,-3.1709,-3.2164,-3.0125,-3.0716,-3.0233,-3.0522,-3.1122,-3.0714,-3.079,-3.1212,-3.0808,-3.051,-3.0609,-3.0814,-3.0912,-3.0992,-3.1112,-3.1252,-3.1351,-3.1504,-3.1691,-3.1965,-3.2284,-3.2489,-3.2755,-3.3011,-3.3244,-3.3322,-3.3382,-3.3452,-3.3338,-3.2939,-3.2838,-3.254,-3.1955,-3.1214,-3.0695,-3.0432,-3.0087,-2.9567,-2.9589,-2.9645,-2.9681,-2.9717,-2.9806,-2.9874,-2.994,-3.0022,-3.0068,-3.0098,-3.0123,-3.0204,-3.0204,-3.0204,-3.0218,-3.0218,-3.0245,-3.0299,-3.0362,-3.1275,-3.2608,-3.3395,-3.4041,-3.5098,-3.5405,-3.5485,-3.5512,-3.5685,-3.5776,-3.5723,-3.5346,-3.4594,-3.3294,-3.1728,-3.0911,-3.0796,-3.0799,-3.0799,-3.0801,-3.0801,-3.0841,-3.086,-3.088,-3.0903,-3.1067,-3.14,-3.1794,-3.2344,-3.3548,-3.4256,-3.3886,-3.3768,-3.4117,-3.4231,-3.3734,-3.3672,-3.3931,-3.4806,-3.294,-3.1688,-3.1506,-3.1156,-3.0877,-3.0727,-3.0746,-3.0831,-3.0955,-3.1072,-3.1149,-3.1142,-3.0964,-3.0707,-3.0662,-3.0771,-3.0723,-3.0598,-3.111,-2.9955,-3.008,-3.0109,-3.026,-3.0418,-3.0467,-3.0551,-3.0675,-3.0593,-3.0609,-3.0831,-3.0871,-3.0992,-3.1112,-3.1151,-3.1308,-3.1445,-3.1559,-3.1709,-3.1929,-3.2214,-3.2507,-3.2722,-3.2993,-3.3256,-3.3404,-3.3481,-3.352,-3.3587,-3.3515,-3.3046,-3.2643,-3.193,-3.1209,-3.0531,-3.0025,-2.9752,-2.9568,-2.9608,-2.9682,-2.9736,-2.9806,-2.9876,-2.9907,-2.9956,-3.0022,-3.0068,-3.0113,-3.0142,-3.0185,-3.0204,-3.0218,-3.0226,-3.0259,-3.0291,-3.0331,-3.0417,-3.1033,-3.2131,-3.227,-3.2701,-3.3401,-3.4381,-3.4749,-3.495,-3.5333,-3.5616,-3.5554,-3.5003,-3.4,-3.2485,-3.1457,-3.0916,-3.0799,-3.0799,-3.0821,-3.088,-3.088,-3.086,-3.0841,-3.088,-3.0923,-3.1049,-3.119,-3.1445,-3.1835,-3.2594,-3.3207,-3.3105,-3.3066,-3.3241,-3.3239,-3.3096,-3.3228,-3.3448,-3.4743,-3.4605,-3.2873,-3.2237,-3.1685,-3.1348,-3.0898,-3.0801,-3.0808,-3.077,-3.077,-3.0867,-3.0983,-3.0881,-3.0634,-3.0616,-3.0607,-3.0569,-3.0579,-3.0859,-3.0033,-3.0162,-3.029,-3.0333,-3.0392,-3.0459,-3.0468,-3.0526,-3.0568,-3.0692,-3.0773,-3.0895,-3.0992,-3.1095,-3.1213,-3.1368,-3.1538,-3.1651,-3.1783,-3.1965,-3.2266,-3.2526,-3.274,-3.3042,-3.3256,-3.3404,-3.352,-3.3559,-3.357,-3.3276,-3.3088,-3.2582,-3.1681,-3.0898,-3.0479,-2.9899,-2.9567,-2.9531,-2.9626,-2.9718,-2.9735,-2.9841,-2.9891,-2.9924,-2.9953,-3.0022,-3.0068,-3.0094,-3.0142,-3.019,-3.0204,-3.0226,-3.0253,-3.0299,-3.0299,-3.0337,-3.0441,-3.0948,-3.1954,-3.2257,-3.2919,-3.3771,-3.4555,-3.5085,-3.5091,-3.5232,-3.5242,-3.5093,-3.4813,-3.3893,-3.2921,-3.158,-3.0919,-3.0821,-3.0841,-3.086,-3.0899,-3.0919,-3.088,-3.0841,-3.0882,-3.0907,-3.0916,-3.1035,-3.115,-3.146,-3.1851,-3.2081,-3.2285,-3.2402,-3.25,-3.2553,-3.2563,-3.2931,-3.3223,-3.4257,-3.5162,-3.3837,-3.2676,-3.2136,-3.1681,-3.1172,-3.0815,-3.066,-3.0629,-3.061,-3.0657,-3.0773,-3.0681,-3.0607,-3.0598,-3.0588,-3.055,-3.0617,-3.0858,-3.0103,-3.0316,-3.0375,-3.0417,-3.0459,-3.0485,-3.0493,-3.0593,-3.0651,-3.0749,-3.0773,-3.0935,-3.0998,-3.1095,-3.1274,-3.1466,-3.1617,-3.1763,-3.191,-3.2054,-3.2336,-3.2579,-3.2808,-3.3042,-3.3166,-3.3052,-3.3193,-3.3497,-3.3616,-3.333,-3.2974,-3.2502,-3.1372,-3.0643,-3.0506,-2.9882,-2.9623,-2.9569,-2.9664,-2.9756,-2.9806,-2.9874,-2.9924,-2.9924,-2.9972,-3.0038,-3.0083,-3.0094,-3.0123,-3.0171,-3.0218,-3.024,-3.0305,-3.0305,-3.0299,-3.0336,-3.0444,-3.1006,-3.1598,-3.2396,-3.2851,-3.3432,-3.463,-3.5169,-3.5356,-3.4911,-3.4685,-3.4715,-3.4117,-3.3838,-3.3102,-3.1816,-3.0997,-3.0841,-3.088,-3.0919,-3.0919,-3.0919,-3.0919,-3.0899,-3.0921,-3.0913,-3.0918,-3.0915,-3.1044,-3.1063,-3.1434,-3.1415,-3.1602,-3.1719,-3.1833,-3.1962,-3.2163,-3.261,-3.3081,-3.3679,-3.428,-3.3926,-3.2834,-3.2089,-3.1723,-3.1349,-3.1146,-3.1041,-3.0615,-3.0604,-3.0613,-3.0613,-3.0606,-3.0607,-3.0598,-3.0559,-3.051,-3.049,-3.0595,-3.0017,-3.0076,-3.0316,-3.0408,-3.0432,-3.0476,-3.0601,-3.0673,-3.0699,-3.0814,-3.0935,-3.1015,-3.1117,-3.1274,-3.1466,-3.1579,-3.1671,-3.1797,-3.1927,-3.2054,-3.2284,-3.2558,-3.2719,-3.293,-3.2865,-3.2744,-3.2657,-3.3067,-3.3413,-3.3589,-3.3333,-3.2667,-3.1885,-3.1359,-3.0788,-2.9938,-2.9588,-2.9683,-2.9775,-2.9825,-2.9874,-2.9907,-2.994,-2.9991,-3.0007,-3.0019,-3.0113,-3.0109,-3.0138,-3.0204,-3.0213,-3.0253,-3.0292,-3.0311,-3.0348,-3.0394,-3.0458,-3.0557,-3.0914,-3.1681,-3.2212,-3.2666,-3.3322,-3.3918,-3.4528,-3.4789,-3.4817,-3.5626,-3.4225,-3.3395,-3.33,-3.1914,-3.1133,-3.0958,-3.1058,-3.0997,-3.0938,-3.0907,-3.0907,-3.0911,-3.0914,-3.0918,-3.0911,-3.0925,-3.0919,-3.0938,-3.0958,-3.0958,-3.0997,-3.1192,-3.1265,-3.1412,-3.1492,-3.1914,-3.2388,-3.307,-3.3487,-3.3599,-3.3078,-3.2266,-3.2268,-3.2134,-3.1874,-3.1671,-3.1149,-3.0646,-3.0588,-3.0588,-3.0607,-3.0588,-3.0569,-3.053,-3.049,-3.0469,-3.0458,-3.0231,-3.0316,-3.0384,-3.0476,-3.0492,-3.0584,-3.0642,-3.0714,-3.0804,-3.0935,-3.1015,-3.1117,-3.1274,-3.1466,-3.1579,-3.1654,-3.1783,-3.1871,-3.1981,-3.2091,-3.2351,-3.2601,-3.2677,-3.2616,-3.2491,-3.2672,-3.2639,-3.2664,-3.304,-3.2766,-3.2416,-3.2191,-3.1574,-3.1288,-3.0958,-3.0088,-3.0018,-3.0114,-3.0093,-2.9878,-2.9893,-2.9907,-2.994,-3.0007,-3.0038,-3.0083,-3.0094,-3.0152,-3.0152,-3.0218,-3.024,-3.026,-3.0286,-3.0292,-3.0328,-3.0386,-3.0469,-3.0509,-3.0645,-3.142,-3.1777,-3.2268,-3.304,-3.4202,-3.4581,-3.4943,-3.4988,-3.5116,-3.4875,-3.4432,-3.3983,-3.2988,-3.2207,-3.1777,-3.1587,-3.1313,-3.1179,-3.0952,-3.0916,-3.0918,-3.0976,-3.1167,-3.1216,-3.1077,-3.1036,-3.0899,-3.088,-3.088,-3.086,-3.0919,-3.093,-3.0921,-3.0981,-3.1111,-3.1579,-3.2142,-3.273,-3.2978,-3.3372,-3.285,-3.3161,-3.3103,-3.2706,-3.2202,-3.1642,-3.1178,-3.0781,-3.0569,-3.0579,-3.0559,-3.0509,-3.0499,-3.0458,-3.0428,-3.0483,-3.0443,-3.0468,-3.0468,-3.0526,-3.0559,-3.0667,-3.0723,-3.0818,-3.0942,-3.0998,-3.1117,-3.1274,-3.1466,-3.1579,-3.1654,-3.1748,-3.1894,-3.1944,-3.2089,-3.2266,-3.2446,-3.2553,-3.2465,-3.2254,-3.2213,-3.2637,-3.1845,-3.1689,-3.1483,-3.1381,-3.1168,-3.138,-3.1021,-3.0825,-3.0814,-3.0239,-2.9851,-3.0302,-3.0071,-2.9912,-2.991,-2.9943,-2.9975,-3.0022,-3.0068,-3.0094,-3.0138,-3.018,-3.0213,-3.024,-3.0279,-3.0299,-3.0311,-3.0328,-3.0364,-3.0428,-3.0479,-3.05,-3.0762,-3.1303,-3.1767,-3.2423,-3.3328,-3.436,-3.428,-3.5134,-3.5778,-3.5259,-3.55,-3.531,-3.4764,-3.3827,-3.3105,-3.2602,-3.2432,-3.2022,-3.1699,-3.1719,-3.1797,-3.1992,-3.203,-3.1867,-3.1801,-3.1428,-3.1172,-3.0919,-3.0841,-3.0801,-3.0801,-3.0801,-3.0794,-3.0785,-3.0806,-3.0857,-3.1086,-3.154,-3.2004,-3.2466,-3.2859,-3.3413,-3.3742,-3.3606,-3.3188,-3.2675,-3.224,-3.2006,-3.1783,-3.1156,-3.0578,-3.0528,-3.0497,-3.0466,-3.0425,-3.0425,-3.0748,-3.0443,-3.0468,-3.051,-3.0559,-3.0684,-3.07,-3.0804,-3.0977,-3.0982,-3.1117,-3.1295,-3.1449,-3.1579,-3.1654,-3.1802,-3.1858,-3.1948,-3.2089,-3.2197,-3.235,-3.2527,-3.2268,-3.2014,-3.1719,-3.1391,-3.0719,-3.0655,-3.0325,-2.9812,-3.0405,-3.0324,-3.0538,-3.0544,-3.0215,-3.0127,-3.0057,-2.9795,-3.0093,-2.9914,-2.991,-2.9924,-2.9956,-3.0022,-3.0068,-3.0098,-3.0123,-3.0174,-3.0207,-3.0234,-3.0279,-3.0299,-3.0304,-3.0328,-3.0352,-3.0417,-3.0469,-3.05,-3.052,-3.0762,-3.1207,-3.1777,-3.2385,-3.318,-3.403,-3.379,-3.5013,-3.5635,-3.5617,-3.562,-3.5506,-3.4764,-3.4022,-3.3768,-3.3439,-3.327,-3.3022,-3.2812,-3.2812,-3.293,-3.3144,-3.3025,-3.2687,-3.2541,-3.2226,-3.1641,-3.1368,-3.0841,-3.0801,-3.0799,-3.0799,-3.0794,-3.0785,-3.079,-3.0823,-3.0853,-3.1248,-3.1693,-3.2194,-3.2626,-3.35,-3.4302,-3.4011,-3.3603,-3.3561,-3.3222,-3.2995,-3.249,-3.1383,-3.0623,-3.0524,-3.0475,-3.0433,-3.0506,-3.059,-3.1149,-3.0609,-3.0667,-3.0733,-3.0749,-3.0725,-3.0814,-3.0925,-3.1016,-3.1123,-3.1312,-3.1487,-3.1579,-3.1691,-3.1785,-3.1839,-3.1984,-3.2055,-3.2161,-3.2073,-3.193,-3.1888,-3.1701,-3.1353,-3.1057,-3.0709,-3.0636,-3.0467,-3.0236,-3.0124,-3.0283,-3.0479,-3.0655,-3.0213,-3.0256,-3.0148,-3.0227,-3.0168,-2.9901,-2.9893,-2.9907,-2.9905,-2.9956,-3.0038,-3.0083,-3.0161,-3.0166,-3.0188,-3.0228,-3.0254,-3.0299,-3.0336,-3.034,-3.0364,-3.0386,-3.0439,-3.049,-3.0491,-3.053,-3.0598,-3.0984,-3.1312,-3.1969,-3.2603,-3.3087,-3.3239,-3.4363,-3.4924,-3.5051,-3.5076,-3.4881,-3.5447,-3.5174,-3.4937,-3.4452,-3.4127,-3.396,-3.3828,-3.3809,-3.375,-3.3848,-3.3572,-3.3199,-3.3133,-3.3066,-3.2422,-3.1816,-3.125,-3.0801,-3.0799,-3.0796,-3.0791,-3.0798,-3.0786,-3.0789,-3.082,-3.1099,-3.1421,-3.1914,-3.2423,-3.3384,-3.4302,-3.4348,-3.4055,-3.411,-3.3778,-3.2972,-3.2119,-3.1164,-3.0664,-3.0548,-3.046,-3.0379,-3.0508,-3.0772,-3.1302,-3.0733,-3.0773,-3.0871,-3.0895,-3.0838,-3.0975,-3.11,-3.1111,-3.1278,-3.1428,-3.1579,-3.1654,-3.1748,-3.1894,-3.1984,-3.2073,-3.2179,-3.2231,-3.1945,-3.1809,-3.166,-3.1383,-3.0948,-3.0675,-3.0713,-3.0956,-3.0949,-3.0655,-3.0009,-3.0976,-3.0804,-3.0253,-2.9864,-3.0054,-3.0545,-3.0622,-3.039,-3.0028,-2.991,-2.9924,-2.994,-3.0007,-3.0053,-3.0098,-3.0157,-3.0213,-3.0221,-3.0279,-3.0318,-3.0343,-3.0359,-3.0394,-3.0417,-3.0439,-3.046,-3.0481,-3.052,-3.054,-3.0588,-3.0683,-3.0892,-3.1428,-3.1942,-3.2435,-3.2935,-3.3496,-3.3854,-3.4254,-3.4178,-3.4452,-3.5506,-3.5525,-3.5561,-3.5135,-3.5093,-3.4941,-3.4726,-3.4648,-3.4551,-3.4488,-3.4311,-3.4347,-3.4168,-3.4061,-3.3007,-3.2363,-3.1777,-3.1211,-3.0801,-3.0796,-3.0791,-3.0798,-3.0798,-3.0774,-3.0787,-3.13,-3.1771,-3.1895,-3.2482,-3.3287,-3.3973,-3.4019,-3.4179,-3.4234,-3.3658,-3.2716,-3.2396,-3.2326,-3.1468,-3.0525,-3.0648,-3.0905,-3.0976,-3.1239,-3.1257,-3.0757,-3.0912,-3.0942,-3.0942,-3.0858,-3.1151,-3.1235,-3.13,-3.1428,-3.1559,-3.1654,-3.1785,-3.1894,-3.1984,-3.2126,-3.2214,-3.2266,-3.2382,-3.2119,-3.1648,-3.1333,-3.132,-3.1083,-3.0761,-3.065,-3.0546,-3.0849,-3.0742,-2.972,-3.0689,-3.0553,-3.0205,-3.0056,-3.0038,-3.0676,-3.017,-2.9882,-2.9895,-2.9907,-2.994,-2.9991,-3.0057,-3.0083,-3.0128,-3.0185,-3.024,-3.0279,-3.0312,-3.0349,-3.0379,-3.0406,-3.0428,-3.0428,-3.0471,-3.0491,-3.052,-3.0559,-3.0588,-3.0615,-3.0613,-3.0739,-3.0925,-3.1454,-3.1899,-3.214,-3.2443,-3.2837,-3.33,-3.3398,-3.3807,-3.4627,-3.531,-3.5428,-3.5645,-3.5508,-3.5566,-3.5332,-3.5332,-3.5215,-3.5128,-3.5569,-3.5837,-3.5545,-3.5037,-3.3788,-3.2929,-3.2324,-3.1758,-3.127,-3.1245,-3.1415,-3.1149,-3.1168,-3.0906,-3.1034,-3.1689,-3.2101,-3.2147,-3.2385,-3.3006,-3.3258,-3.3188,-3.3484,-3.4029,-3.3376,-3.2274,-3.3089,-3.3981,-3.2602,-3.1302,-3.1501,-3.17,-3.1712,-3.1462,-3.1249,-3.0404,-2.964,-3.0226,-3.0217,-2.9983,-3.0883,-3.1312,-3.1428,-3.1614,-3.1746,-3.1839,-3.1984,-3.2126,-3.2232,-3.2266,-3.23,-3.2366,-3.1853,-3.1551,-3.107,-3.0731,-3.009,-3.0008,-3.0503,-3.0625,-3.0711,-3.1191,-3.1648,-3.1142,-3.1312,-3.1414,-3.1216,-3.0434,-3.0377,-3.0189,-2.9901,-2.9876,-2.991,-2.9907,-2.9921,-2.9988,-3.0053,-3.0113,-3.0157,-3.0226,-3.0279,-3.0299,-3.0337,-3.0374,-3.0414,-3.0439,-3.046,-3.046,-3.0491,-3.052,-3.0559,-3.0588,-3.0632,-3.0653,-3.0671,-3.0672,-3.082,-3.1008,-3.1313,-3.1272,-3.1301,-3.1792,-3.2341,-3.2539,-3.3007,-3.3749,-3.401,-3.4267,-3.4894,-3.5073,-3.5447,-3.5508,-3.5742,-3.5804,-3.5745,-3.5991,-3.601,-3.5835,-3.5603,-3.4569,-3.3671,-3.3066,-3.2773,-3.2343,-3.2436,-3.2567,-3.2007,-3.1694,-3.1276,-3.1261,-3.1702,-3.1627,-3.1394,-3.1706,-3.2298,-3.2397,-3.2338,-3.3079,-3.3759,-3.2798,-3.1965,-3.3038,-3.3737,-3.2949,-3.2263,-3.2077,-3.1636,-3.1213,-3.0885,-3.0576,-2.9914,-2.9417,-2.9697,-2.9653,-2.9503,-3.0523,-3.121,-3.1562,-3.1746,-3.1839,-3.1948,-3.2055,-3.2249,-3.2301,-3.2141,-3.2086,-3.2146,-3.1483,-3.1115,-3.0625,-3.0342,-3.0355,-3.049,-3.0417,-3.1096,-3.1316,-3.1737,-3.2121,-3.1806,-3.1936,-3.1551,-3.0996,-3.0866,-3.0526,-3.0222,-3.0143,-2.991,-2.9943,-2.9956,-3.0007,-3.0068,-3.0132,-3.0176,-3.0232,-3.0286,-3.0305,-3.0311,-3.0355,-3.0398,-3.0417,-3.046,-3.0491,-3.052,-3.054,-3.0569,-3.0597,-3.064,-3.0653,-3.069,-3.0736,-3.0734,-3.0769,-3.0786,-3.0785,-3.0794,-3.0914,-3.115,-3.1504,-3.168,-3.2187,-3.2756,-3.2959,-3.3782,-3.4448,-3.5,-3.541,-3.5739,-3.596,-3.6018,-3.6016,-3.601,-3.601,-3.5971,-3.5776,-3.5291,-3.4549,-3.3846,-3.3573,-3.33,-3.3334,-3.3367,-3.29,-3.2396,-3.2035,-3.1656,-3.1508,-3.1297,-3.0707,-3.1144,-3.1775,-3.1535,-3.1516,-3.2499,-3.3373,-3.2791,-3.2555,-3.3134,-3.3314,-3.2763,-3.2289,-3.1917,-3.1418,-3.0764,-3.0642,-3.0576,-2.9384,-2.9952,-2.9431,-2.9195,-2.9437,-3.002,-3.0848,-3.1662,-3.1789,-3.1844,-3.1878,-3.2109,-3.2336,-3.2264,-3.1698,-3.1532,-3.1416,-3.0813,-3.0523,-3.0471,-3.0261,-3.0901,-3.1195,-3.1224,-3.1365,-3.2162,-3.259,-3.2262,-3.2096,-3.1815,-3.1108,-3.0283,-3.0317,-3.0352,-3.0444,-3.0402,-3.0189,-3.026,-3.0064,-3.0106,-3.0128,-3.019,-3.0213,-3.0266,-3.0305,-3.033,-3.0343,-3.0362,-3.0417,-3.0436,-3.0452,-3.0501,-3.054,-3.0568,-3.0586,-3.064,-3.0661,-3.0683,-3.0711,-3.0734,-3.0784,-3.0778,-3.0781,-3.0791,-3.0794,-3.0799,-3.0955,-3.1016,-3.1153,-3.1526,-3.1938,-3.2877,-3.3799,-3.4452,-3.5075,-3.548,-3.5864,-3.6016,-3.6018,-3.6018,-3.6013,-3.5991,-3.5955,-3.5798,-3.5447,-3.492,-3.4217,-3.3886,-3.3671,-3.3671,-3.3698,-3.3657,-3.319,-3.2853,-3.2454,-3.1994,-3.1705,-3.1374,-3.1009,-3.134,-3.0984,-3.1014,-3.193,-3.267,-3.2937,-3.2952,-3.2634,-3.2705,-3.2808,-3.234,-3.1834,-3.1506,-3.0986,-3.1268,-3.1426,-2.8626,-2.8048,-2.8357,-2.8303,-2.8107,-2.8812,-2.9556,-3.0266,-3.1011,-3.1409,-3.1444,-3.2175,-3.2435,-3.2603,-3.1859,-3.1604,-3.111,-3.0505,-3.0012,-2.9863,-2.9862,-2.9831,-3.0149,-3.0654,-3.0983,-3.1485,-3.1908,-3.2176,-3.1965,-3.167,-3.0866,-2.9943,-3.0259,-3.05,-3.0553,-3.0679,-3.075,-3.0687,-3.0323,-3.017,-3.0171,-3.0218,-3.0234,-3.0299,-3.0355,-3.0359,-3.039,-3.0417,-3.0471,-3.046,-3.053,-3.0588,-3.0588,-3.0606,-3.0623,-3.0684,-3.0695,-3.0704,-3.071,-3.0755,-3.0802,-3.0794,-3.0788,-3.0796,-3.0799,-3.0799,-3.0821,-3.086,-3.088,-3.127,-3.1626,-3.2391,-3.339,-3.4198,-3.4803,-3.5284,-3.5669,-3.6013,-3.6016,-3.6016,-3.601,-3.5874,-3.5837,-3.5564,-3.5213,-3.4881,-3.4569,-3.4237,-3.4159,-3.4198,-3.4264,-3.4261,-3.4087,-3.3774,-3.309,-3.2562,-3.2346,-3.21,-3.1637,-3.1263,-3.1177,-3.1304,-3.1679,-3.213,-3.2694,-3.2158,-3.1314,-3.1667,-3.2443,-3.2186,-3.1724,-3.1492,-3.135,-3.1426,-3.1714,-2.7981,-2.765,-2.7786,-2.771,-2.7542,-2.7997,-2.8516,-2.9042,-3.0199,-3.0861,-3.1263,-3.1835,-3.2228,-3.2183,-3.1489,-3.0962,-3.0635,-2.9661,-2.9269,-2.9664,-2.9286,-2.9837,-3.0105,-3.0268,-3.0806,-3.1142,-3.1376,-3.168,-3.1688,-3.1298,-3.0565,-2.9921,-3.0483,-3.0553,-3.0582,-3.0687,-3.0928,-3.0868,-3.0651,-3.029,-3.0199,-3.024,-3.0286,-3.0348,-3.0402,-3.0436,-3.0447,-3.0483,-3.0507,-3.051,-3.0579,-3.0607,-3.0616,-3.0623,-3.0657,-3.0715,-3.0704,-3.0698,-3.0703,-3.076,-3.0782,-3.0798,-3.0791,-3.0816,-3.0819,-3.0821,-3.086,-3.088,-3.0938,-3.1058,-3.1395,-3.1828,-3.2845,-3.3842,-3.4414,-3.4976,-3.5437,-3.5916,-3.601,-3.601,-3.5913,-3.5737,-3.5545,-3.5271,-3.4901,-3.4413,-3.441,-3.4583,-3.4683,-3.4976,-3.5061,-3.5134,-3.4964,-3.4709,-3.3985,-3.3293,-3.3075,-3.2682,-3.1967,-3.1631,-3.1478,-3.1342,-3.1448,-3.1984,-3.2651,-3.2134,-3.1698,-3.1705,-3.2148,-3.1994,-3.2185,-3.233,-3.1842,-3.0978,-3.136,-2.7516,-2.8196,-2.767,-2.7504,-2.7526,-2.7694,-2.7771,-2.7889,-2.9242,-3.0296,-3.0923,-3.1335,-3.1511,-3.1492,-3.0826,-3.0241,-2.9825,-2.9053,-2.8935,-2.9689,-2.9544,-2.9875,-3.0276,-3.0688,-3.0575,-3.1014,-3.1192,-3.0938,-3.1429,-3.1073,-3.0391,-2.9931,-3.0224,-3.0446,-3.0706,-3.0674,-3.0799,-3.0833,-3.0538,-3.0194,-3.0266,-3.0311,-3.0359,-3.0406,-3.0458,-3.049,-3.049,-3.049,-3.0519,-3.054,-3.0559,-3.0607,-3.0623,-3.0657,-3.0688,-3.069,-3.0698,-3.0716,-3.0734,-3.0765,-3.0782,-3.0798,-3.0788,-3.095,-3.1053,-3.086,-3.086,-3.1097,-3.1216,-3.1378,-3.1675,-3.1795,-3.2499,-3.3476,-3.4234,-3.4951,-3.5667,-3.5971,-3.601,-3.601,-3.5971,-3.5796,-3.5542,-3.5327,-3.5168,-3.4329,-3.4131,-3.4615,-3.5103,-3.5497,-3.56,-3.5714,-3.5538,-3.5256,-3.4853,-3.4237,-3.3854,-3.3333,-3.2578,-3.2048,-3.1932,-3.1564,-3.1149,-3.2023,-3.2947,-3.2923,-3.2699,-3.2641,-3.259,-3.2685,-3.2927,-3.3302,-3.2718,-3.1685,-3.1766,-2.7192,-2.7636,-2.7583,-2.7574,-2.7587,-2.7783,-2.7842,-2.7906,-2.8369,-2.9118,-2.9888,-3.0535,-3.091,-3.0872,-3.0227,-2.9727,-2.9413,-2.8889,-2.875,-2.9028,-2.9223,-2.9572,-2.9847,-2.9959,-2.9992,-2.9999,-3.0058,-3.0189,-3.047,-3.0315,-3.0177,-3.0021,-3.0333,-3.0741,-3.0521,-3.0524,-3.082,-3.0648,-3.045,-3.0247,-3.0292,-3.0355,-3.0402,-3.0417,-3.0441,-3.05,-3.051,-3.055,-3.0579,-3.0588,-3.0598,-3.0606,-3.061,-3.0673,-3.0695,-3.0704,-3.071,-3.0722,-3.0764,-3.0769,-3.0786,-3.0794,-3.0882,-3.1259,-3.1343,-3.1014,-3.1018,-3.1374,-3.1651,-3.1852,-3.2011,-3.209,-3.2362,-3.3314,-3.4166,-3.5059,-3.5916,-3.5971,-3.601,-3.601,-3.601,-3.5854,-3.56,-3.5441,-3.5282,-3.5006,-3.4686,-3.4858,-3.5401,-3.581,-3.5734,-3.5805,-3.5827,-3.5606,-3.5317,-3.5053,-3.4592,-3.4109,-3.3432,-3.2919,-3.2434,-3.2364,-3.2293,-3.2733,-3.3275,-3.3308,-3.3372,-3.3372,-3.3346,-3.3473,-3.3772,-3.4165,-3.4217,-3.3459,-3.3429,-2.7006,-2.731,-2.7539,-2.7677,-2.7754,-2.7917,-2.8003,-2.806,-2.8182,-2.8523,-2.908,-2.9797,-3.0248,-3.0286,-2.9827,-2.9368,-2.9222,-2.883,-2.8834,-2.8923,-2.9021,-2.9237,-2.937,-2.9491,-2.9625,-2.9645,-2.9736,-2.9863,-2.9859,-2.9929,-3.0016,-3.0048,-3.0532,-3.0579,-3.0166,-3.0591,-3.0677,-3.0232,-3.0299,-3.0323,-3.0349,-3.0379,-3.0425,-3.0439,-3.0471,-3.052,-3.0559,-3.0588,-3.0598,-3.0625,-3.0634,-3.064,-3.0653,-3.0688,-3.0703,-3.0704,-3.0704,-3.0728,-3.0769,-3.0784,-3.0782,-3.079,-3.0837,-3.1178,-3.2051,-3.1877,-3.2446,-3.2803,-3.2985,-3.3183,-3.3398,-3.3514,-3.3958,-3.473,-3.5064,-3.5574,-3.5938,-3.5991,-3.601,-3.601,-3.601,-3.5971,-3.5796,-3.5757,-3.5539,-3.5103,-3.4882,-3.5182,-3.5704,-3.5948,-3.5908,-3.5885,-3.5885,-3.5864,-3.5632,-3.5433,-3.5221,-3.472,-3.4168,-3.3673,-3.3177,-3.3373,-3.3576,-3.3583,-3.3647,-3.3808,-3.3853,-3.391,-3.4191,-3.4395,-3.4712,-3.507,-3.5002,-3.4837,-3.4611,-2.6956,-2.7307,-2.7595,-2.7824,-2.7917,-2.8042,-2.8126,-2.8227,-2.8318,-2.8406,-2.8637,-2.9233,-2.9494,-2.9539,-2.9556,-2.9145,-2.8869,-2.8785,-2.89,-2.9062,-2.9156,-2.9328,-2.9471,-2.9589,-2.9664,-2.9735,-2.9823,-2.9891,-2.9959,-3.0007,-3.0053,-3.0117,-3.0113,-3.0123,-3.0152,-3.018,-3.0215,-3.026,-3.0311,-3.0379,-3.0402,-3.0406,-3.0439,-3.0471,-3.051,-3.055,-3.0598,-3.0607,-3.0616,-3.0615,-3.0621,-3.0665,-3.0688,-3.0703,-3.071,-3.0711,-3.0698,-3.0742,-3.0784,-3.0799,-3.0789,-3.0802,-3.0872,-3.1373,-3.2265,-3.2875,-3.3443,-3.3883,-3.4062,-3.4218,-3.4431,-3.4485,-3.4984,-3.5506,-3.5669,-3.5868,-3.596,-3.601,-3.601,-3.601,-3.601,-3.601,-3.5991,-3.5971,-3.5711,-3.5259,-3.5268,-3.5646,-3.5929,-3.5914,-3.5891,-3.5872,-3.5878,-3.585,-3.5799,-3.5704,-3.5503,-3.5069,-3.4526,-3.4156,-3.3901,-3.387,-3.3872,-3.3891,-3.3994,-3.4334,-3.441,-3.443,-3.4787,-3.5067,-3.5158,-3.5247,-3.5212,-3.5105,-3.5146,-2.7244,-2.7642,-2.7836,-2.794,-2.8014,-2.8144,-2.82,-2.8237,-2.845,-2.8562,-2.8667,-2.8778,-2.8948,-2.8905,-2.8973,-2.8834,-2.8877,-2.8852,-2.8947,-2.9108,-2.9246,-2.9412,-2.9569,-2.9719,-2.9789,-2.9857,-2.9924,-2.9975,-3.0022,-3.0064,-3.0128,-3.019,-3.0199,-3.0207,-3.0266,-3.0273,-3.0267,-3.0311,-3.0379,-3.0455,-3.0425,-3.0428,-3.0471,-3.0501,-3.053,-3.0578,-3.0616,-3.0607,-3.0616,-3.0615,-3.0629,-3.0653,-3.0695,-3.071,-3.0697,-3.0704,-3.0691,-3.073,-3.0753,-3.0769,-3.0779,-3.0867,-3.1098,-3.1737,-3.2452,-3.2929,-3.3543,-3.4256,-3.4433,-3.4488,-3.4562,-3.4168,-3.4413,-3.5112,-3.5489,-3.5801,-3.5994,-3.601,-3.601,-3.601,-3.601,-3.601,-3.6007,-3.5985,-3.5955,-3.5635,-3.5602,-3.5924,-3.5899,-3.5903,-3.5885,-3.5885,-3.5872,-3.5823,-3.5799,-3.5793,-3.562,-3.5234,-3.4913,-3.4591,-3.4342,-3.4186,-3.4186,-3.4404,-3.4732,-3.5103,-3.5103,-3.4891,-3.5056,-3.5278,-3.5258,-3.5289,-3.5293,-3.5277,-3.5242]}]]